<?xml version="1.0" encoding="UTF-8" standalone="no" ?>
<gpx xmlns="http://www.topografix.com/GPX/1/1" xmlns:xsi="http://www.w3.org/2001/XMLSchema-instance" xsi:schemaLocation="http://www.topografix.com/GPX/1/1 http://www.topografix.com/GPX/1/1/gpx.xsd" version="1.1" creator="VisuGPX - https://www.visugpx.com">
  <metadata>
    <name>Randonnée du 12/07/2022 à 09:01</name>
  </metadata>
  <trk>
    <name><![CDATA[Randonnée du 12/07/2022 à 09:01]]></name>
    <trkseg>
      <trkpt lat="48.53387" lon="2.01101">
        <ele>103</ele>
        <time>2022-07-12T09:01:50+02:00</time>
      </trkpt>
      <trkpt lat="48.53381" lon="2.0109">
        <ele>105</ele>
        <time>2022-07-12T09:02:05+02:00</time>
      </trkpt>
      <trkpt lat="48.53374" lon="2.011">
        <ele>115</ele>
        <time>2022-07-12T09:05:42+02:00</time>
      </trkpt>
      <trkpt lat="48.53384" lon="2.01092">
        <ele>112</ele>
        <time>2022-07-12T09:15:11+02:00</time>
      </trkpt>
      <trkpt lat="48.53371" lon="2.01105">
        <ele>113</ele>
        <time>2022-07-12T09:16:58+02:00</time>
      </trkpt>
      <trkpt lat="48.53381" lon="2.01104">
        <ele>117</ele>
        <time>2022-07-12T09:32:00+02:00</time>
      </trkpt>
      <trkpt lat="48.5339" lon="2.01098">
        <ele>115</ele>
        <time>2022-07-12T09:32:37+02:00</time>
      </trkpt>
      <trkpt lat="48.53396" lon="2.01087">
        <ele>116</ele>
        <time>2022-07-12T09:32:46+02:00</time>
      </trkpt>
      <trkpt lat="48.53399" lon="2.01072">
        <ele>115</ele>
        <time>2022-07-12T09:32:53+02:00</time>
      </trkpt>
      <trkpt lat="48.53401" lon="2.01058">
        <ele>114</ele>
        <time>2022-07-12T09:32:59+02:00</time>
      </trkpt>
      <trkpt lat="48.53403" lon="2.01044">
        <ele>114</ele>
        <time>2022-07-12T09:33:06+02:00</time>
      </trkpt>
      <trkpt lat="48.53407" lon="2.01017">
        <ele>121</ele>
        <time>2022-07-12T09:33:20+02:00</time>
      </trkpt>
      <trkpt lat="48.53409" lon="2.01003">
        <ele>121</ele>
        <time>2022-07-12T09:33:28+02:00</time>
      </trkpt>
      <trkpt lat="48.53416" lon="2.00992">
        <ele>122</ele>
        <time>2022-07-12T09:33:36+02:00</time>
      </trkpt>
      <trkpt lat="48.53423" lon="2.00983">
        <ele>123</ele>
        <time>2022-07-12T09:33:43+02:00</time>
      </trkpt>
      <trkpt lat="48.53429" lon="2.00973">
        <ele>126</ele>
        <time>2022-07-12T09:33:53+02:00</time>
      </trkpt>
      <trkpt lat="48.53424" lon="2.00961">
        <ele>129</ele>
        <time>2022-07-12T09:34:10+02:00</time>
      </trkpt>
      <trkpt lat="48.53415" lon="2.00957">
        <ele>128</ele>
        <time>2022-07-12T09:34:18+02:00</time>
      </trkpt>
      <trkpt lat="48.53405" lon="2.00955">
        <ele>127</ele>
        <time>2022-07-12T09:34:25+02:00</time>
      </trkpt>
      <trkpt lat="48.53396" lon="2.00952">
        <ele>126</ele>
        <time>2022-07-12T09:34:33+02:00</time>
      </trkpt>
      <trkpt lat="48.53387" lon="2.00948">
        <ele>126</ele>
        <time>2022-07-12T09:34:40+02:00</time>
      </trkpt>
      <trkpt lat="48.53377" lon="2.00944">
        <ele>126</ele>
        <time>2022-07-12T09:34:48+02:00</time>
      </trkpt>
      <trkpt lat="48.53367" lon="2.00941">
        <ele>125</ele>
        <time>2022-07-12T09:34:55+02:00</time>
      </trkpt>
      <trkpt lat="48.53358" lon="2.00938">
        <ele>125</ele>
        <time>2022-07-12T09:35:02+02:00</time>
      </trkpt>
      <trkpt lat="48.53349" lon="2.00935">
        <ele>124</ele>
        <time>2022-07-12T09:35:18+02:00</time>
      </trkpt>
      <trkpt lat="48.53343" lon="2.00924">
        <ele>121</ele>
        <time>2022-07-12T09:35:29+02:00</time>
      </trkpt>
      <trkpt lat="48.53337" lon="2.00935">
        <ele>117</ele>
        <time>2022-07-12T09:36:10+02:00</time>
      </trkpt>
      <trkpt lat="48.53335" lon="2.00949">
        <ele>121</ele>
        <time>2022-07-12T09:36:18+02:00</time>
      </trkpt>
      <trkpt lat="48.53326" lon="2.00954">
        <ele>125</ele>
        <time>2022-07-12T09:36:28+02:00</time>
      </trkpt>
      <trkpt lat="48.53316" lon="2.00951">
        <ele>126</ele>
        <time>2022-07-12T09:36:35+02:00</time>
      </trkpt>
      <trkpt lat="48.53307" lon="2.00951">
        <ele>130</ele>
        <time>2022-07-12T09:36:48+02:00</time>
      </trkpt>
      <trkpt lat="48.53299" lon="2.00955">
        <ele>132</ele>
        <time>2022-07-12T09:36:56+02:00</time>
      </trkpt>
      <trkpt lat="48.53289" lon="2.00959">
        <ele>134</ele>
        <time>2022-07-12T09:37:03+02:00</time>
      </trkpt>
      <trkpt lat="48.5328" lon="2.00959">
        <ele>136</ele>
        <time>2022-07-12T09:37:11+02:00</time>
      </trkpt>
      <trkpt lat="48.53269" lon="2.00956">
        <ele>135</ele>
        <time>2022-07-12T09:37:17+02:00</time>
      </trkpt>
      <trkpt lat="48.5326" lon="2.00951">
        <ele>133</ele>
        <time>2022-07-12T09:37:24+02:00</time>
      </trkpt>
      <trkpt lat="48.53251" lon="2.00949">
        <ele>132</ele>
        <time>2022-07-12T09:37:31+02:00</time>
      </trkpt>
      <trkpt lat="48.53242" lon="2.00944">
        <ele>130</ele>
        <time>2022-07-12T09:37:39+02:00</time>
      </trkpt>
      <trkpt lat="48.53233" lon="2.00938">
        <ele>129</ele>
        <time>2022-07-12T09:37:46+02:00</time>
      </trkpt>
      <trkpt lat="48.5323" lon="2.00925">
        <ele>126</ele>
        <time>2022-07-12T09:37:52+02:00</time>
      </trkpt>
      <trkpt lat="48.53229" lon="2.00911">
        <ele>125</ele>
        <time>2022-07-12T09:37:58+02:00</time>
      </trkpt>
      <trkpt lat="48.53229" lon="2.00898">
        <ele>122</ele>
        <time>2022-07-12T09:38:07+02:00</time>
      </trkpt>
      <trkpt lat="48.53224" lon="2.00885">
        <ele>122</ele>
        <time>2022-07-12T09:38:15+02:00</time>
      </trkpt>
      <trkpt lat="48.53217" lon="2.00876">
        <ele>122</ele>
        <time>2022-07-12T09:38:22+02:00</time>
      </trkpt>
      <trkpt lat="48.5321" lon="2.00866">
        <ele>120</ele>
        <time>2022-07-12T09:38:29+02:00</time>
      </trkpt>
      <trkpt lat="48.53201" lon="2.00862">
        <ele>118</ele>
        <time>2022-07-12T09:38:40+02:00</time>
      </trkpt>
      <trkpt lat="48.53198" lon="2.00849">
        <ele>118</ele>
        <time>2022-07-12T09:38:56+02:00</time>
      </trkpt>
      <trkpt lat="48.53194" lon="2.00836">
        <ele>118</ele>
        <time>2022-07-12T09:39:05+02:00</time>
      </trkpt>
      <trkpt lat="48.53188" lon="2.00825">
        <ele>115</ele>
        <time>2022-07-12T09:39:14+02:00</time>
      </trkpt>
      <trkpt lat="48.5318" lon="2.00814">
        <ele>114</ele>
        <time>2022-07-12T09:39:22+02:00</time>
      </trkpt>
      <trkpt lat="48.5317" lon="2.00809">
        <ele>112</ele>
        <time>2022-07-12T09:39:29+02:00</time>
      </trkpt>
      <trkpt lat="48.53164" lon="2.00797">
        <ele>106</ele>
        <time>2022-07-12T09:39:38+02:00</time>
      </trkpt>
      <trkpt lat="48.53158" lon="2.00787">
        <ele>107</ele>
        <time>2022-07-12T09:39:48+02:00</time>
      </trkpt>
      <trkpt lat="48.53152" lon="2.00776">
        <ele>109</ele>
        <time>2022-07-12T09:39:59+02:00</time>
      </trkpt>
      <trkpt lat="48.53152" lon="2.00762">
        <ele>109</ele>
        <time>2022-07-12T09:40:13+02:00</time>
      </trkpt>
      <trkpt lat="48.53151" lon="2.00748">
        <ele>109</ele>
        <time>2022-07-12T09:40:21+02:00</time>
      </trkpt>
      <trkpt lat="48.53149" lon="2.00734">
        <ele>108</ele>
        <time>2022-07-12T09:40:29+02:00</time>
      </trkpt>
      <trkpt lat="48.53144" lon="2.00722">
        <ele>108</ele>
        <time>2022-07-12T09:40:37+02:00</time>
      </trkpt>
      <trkpt lat="48.53137" lon="2.00713">
        <ele>107</ele>
        <time>2022-07-12T09:40:44+02:00</time>
      </trkpt>
      <trkpt lat="48.53139" lon="2.00699">
        <ele>100</ele>
        <time>2022-07-12T09:41:04+02:00</time>
      </trkpt>
      <trkpt lat="48.53146" lon="2.00689">
        <ele>96</ele>
        <time>2022-07-12T09:41:12+02:00</time>
      </trkpt>
      <trkpt lat="48.53151" lon="2.00676">
        <ele>96</ele>
        <time>2022-07-12T09:41:21+02:00</time>
      </trkpt>
      <trkpt lat="48.53159" lon="2.00668">
        <ele>96</ele>
        <time>2022-07-12T09:41:29+02:00</time>
      </trkpt>
      <trkpt lat="48.53165" lon="2.00656">
        <ele>96</ele>
        <time>2022-07-12T09:41:38+02:00</time>
      </trkpt>
      <trkpt lat="48.5317" lon="2.00644">
        <ele>93</ele>
        <time>2022-07-12T09:41:44+02:00</time>
      </trkpt>
      <trkpt lat="48.53176" lon="2.00631">
        <ele>91</ele>
        <time>2022-07-12T09:41:51+02:00</time>
      </trkpt>
      <trkpt lat="48.53181" lon="2.00619">
        <ele>91</ele>
        <time>2022-07-12T09:41:57+02:00</time>
      </trkpt>
      <trkpt lat="48.53187" lon="2.00609">
        <ele>92</ele>
        <time>2022-07-12T09:42:04+02:00</time>
      </trkpt>
      <trkpt lat="48.53193" lon="2.00599">
        <ele>94</ele>
        <time>2022-07-12T09:42:19+02:00</time>
      </trkpt>
      <trkpt lat="48.53199" lon="2.00588">
        <ele>95</ele>
        <time>2022-07-12T09:42:30+02:00</time>
      </trkpt>
      <trkpt lat="48.53203" lon="2.00575">
        <ele>95</ele>
        <time>2022-07-12T09:42:38+02:00</time>
      </trkpt>
      <trkpt lat="48.53207" lon="2.00562">
        <ele>96</ele>
        <time>2022-07-12T09:42:45+02:00</time>
      </trkpt>
      <trkpt lat="48.53211" lon="2.00549">
        <ele>97</ele>
        <time>2022-07-12T09:42:55+02:00</time>
      </trkpt>
      <trkpt lat="48.53214" lon="2.00535">
        <ele>99</ele>
        <time>2022-07-12T09:43:02+02:00</time>
      </trkpt>
      <trkpt lat="48.53215" lon="2.0052">
        <ele>100</ele>
        <time>2022-07-12T09:43:09+02:00</time>
      </trkpt>
      <trkpt lat="48.53218" lon="2.00507">
        <ele>98</ele>
        <time>2022-07-12T09:43:15+02:00</time>
      </trkpt>
      <trkpt lat="48.53221" lon="2.00492">
        <ele>98</ele>
        <time>2022-07-12T09:43:22+02:00</time>
      </trkpt>
      <trkpt lat="48.53224" lon="2.00479">
        <ele>99</ele>
        <time>2022-07-12T09:43:28+02:00</time>
      </trkpt>
      <trkpt lat="48.53227" lon="2.00465">
        <ele>99</ele>
        <time>2022-07-12T09:43:36+02:00</time>
      </trkpt>
      <trkpt lat="48.53229" lon="2.00451">
        <ele>98</ele>
        <time>2022-07-12T09:43:44+02:00</time>
      </trkpt>
      <trkpt lat="48.53231" lon="2.00438">
        <ele>98</ele>
        <time>2022-07-12T09:43:52+02:00</time>
      </trkpt>
      <trkpt lat="48.53235" lon="2.0041">
        <ele>99</ele>
        <time>2022-07-12T09:44:08+02:00</time>
      </trkpt>
      <trkpt lat="48.53238" lon="2.00395">
        <ele>98</ele>
        <time>2022-07-12T09:44:15+02:00</time>
      </trkpt>
      <trkpt lat="48.53243" lon="2.00383">
        <ele>99</ele>
        <time>2022-07-12T09:44:25+02:00</time>
      </trkpt>
      <trkpt lat="48.53244" lon="2.00369">
        <ele>98</ele>
        <time>2022-07-12T09:44:31+02:00</time>
      </trkpt>
      <trkpt lat="48.53248" lon="2.00355">
        <ele>98</ele>
        <time>2022-07-12T09:44:38+02:00</time>
      </trkpt>
      <trkpt lat="48.53252" lon="2.0034">
        <ele>97</ele>
        <time>2022-07-12T09:44:46+02:00</time>
      </trkpt>
      <trkpt lat="48.53255" lon="2.00327">
        <ele>97</ele>
        <time>2022-07-12T09:44:53+02:00</time>
      </trkpt>
      <trkpt lat="48.53254" lon="2.00313">
        <ele>98</ele>
        <time>2022-07-12T09:45:00+02:00</time>
      </trkpt>
      <trkpt lat="48.53255" lon="2.00299">
        <ele>97</ele>
        <time>2022-07-12T09:45:07+02:00</time>
      </trkpt>
      <trkpt lat="48.53256" lon="2.00284">
        <ele>97</ele>
        <time>2022-07-12T09:45:16+02:00</time>
      </trkpt>
      <trkpt lat="48.53261" lon="2.00271">
        <ele>97</ele>
        <time>2022-07-12T09:45:23+02:00</time>
      </trkpt>
      <trkpt lat="48.53262" lon="2.00255">
        <ele>99</ele>
        <time>2022-07-12T09:45:31+02:00</time>
      </trkpt>
      <trkpt lat="48.53263" lon="2.0024">
        <ele>101</ele>
        <time>2022-07-12T09:45:38+02:00</time>
      </trkpt>
      <trkpt lat="48.53263" lon="2.00226">
        <ele>102</ele>
        <time>2022-07-12T09:45:45+02:00</time>
      </trkpt>
      <trkpt lat="48.53263" lon="2.00211">
        <ele>101</ele>
        <time>2022-07-12T09:45:53+02:00</time>
      </trkpt>
      <trkpt lat="48.53263" lon="2.00196">
        <ele>101</ele>
        <time>2022-07-12T09:46:02+02:00</time>
      </trkpt>
      <trkpt lat="48.53263" lon="2.00181">
        <ele>100</ele>
        <time>2022-07-12T09:46:10+02:00</time>
      </trkpt>
      <trkpt lat="48.53269" lon="2.00158">
        <ele>98</ele>
        <time>2022-07-12T09:46:35+02:00</time>
      </trkpt>
      <trkpt lat="48.53278" lon="2.00157">
        <ele>100</ele>
        <time>2022-07-12T09:46:42+02:00</time>
      </trkpt>
      <trkpt lat="48.53287" lon="2.00158">
        <ele>101</ele>
        <time>2022-07-12T09:46:51+02:00</time>
      </trkpt>
      <trkpt lat="48.53296" lon="2.00159">
        <ele>102</ele>
        <time>2022-07-12T09:46:59+02:00</time>
      </trkpt>
      <trkpt lat="48.53306" lon="2.00158">
        <ele>103</ele>
        <time>2022-07-12T09:47:23+02:00</time>
      </trkpt>
      <trkpt lat="48.53314" lon="2.00154">
        <ele>103</ele>
        <time>2022-07-12T09:47:30+02:00</time>
      </trkpt>
      <trkpt lat="48.53323" lon="2.00152">
        <ele>103</ele>
        <time>2022-07-12T09:47:38+02:00</time>
      </trkpt>
      <trkpt lat="48.53333" lon="2.00153">
        <ele>103</ele>
        <time>2022-07-12T09:47:46+02:00</time>
      </trkpt>
      <trkpt lat="48.53342" lon="2.00155">
        <ele>104</ele>
        <time>2022-07-12T09:47:54+02:00</time>
      </trkpt>
      <trkpt lat="48.53352" lon="2.00157">
        <ele>105</ele>
        <time>2022-07-12T09:48:02+02:00</time>
      </trkpt>
      <trkpt lat="48.53361" lon="2.00159">
        <ele>105</ele>
        <time>2022-07-12T09:48:09+02:00</time>
      </trkpt>
      <trkpt lat="48.53371" lon="2.00161">
        <ele>107</ele>
        <time>2022-07-12T09:48:17+02:00</time>
      </trkpt>
      <trkpt lat="48.5338" lon="2.00164">
        <ele>108</ele>
        <time>2022-07-12T09:48:25+02:00</time>
      </trkpt>
      <trkpt lat="48.53389" lon="2.00165">
        <ele>109</ele>
        <time>2022-07-12T09:48:33+02:00</time>
      </trkpt>
      <trkpt lat="48.53399" lon="2.00164">
        <ele>109</ele>
        <time>2022-07-12T09:48:40+02:00</time>
      </trkpt>
      <trkpt lat="48.53409" lon="2.00165">
        <ele>110</ele>
        <time>2022-07-12T09:48:48+02:00</time>
      </trkpt>
      <trkpt lat="48.53418" lon="2.00167">
        <ele>110</ele>
        <time>2022-07-12T09:48:56+02:00</time>
      </trkpt>
      <trkpt lat="48.53428" lon="2.00167">
        <ele>111</ele>
        <time>2022-07-12T09:49:04+02:00</time>
      </trkpt>
      <trkpt lat="48.53437" lon="2.00169">
        <ele>113</ele>
        <time>2022-07-12T09:49:11+02:00</time>
      </trkpt>
      <trkpt lat="48.53443" lon="2.00179">
        <ele>112</ele>
        <time>2022-07-12T09:49:20+02:00</time>
      </trkpt>
      <trkpt lat="48.53445" lon="2.00193">
        <ele>112</ele>
        <time>2022-07-12T09:49:30+02:00</time>
      </trkpt>
      <trkpt lat="48.53454" lon="2.00198">
        <ele>112</ele>
        <time>2022-07-12T09:49:39+02:00</time>
      </trkpt>
      <trkpt lat="48.53461" lon="2.00187">
        <ele>111</ele>
        <time>2022-07-12T09:49:48+02:00</time>
      </trkpt>
      <trkpt lat="48.53469" lon="2.00182">
        <ele>112</ele>
        <time>2022-07-12T09:49:56+02:00</time>
      </trkpt>
      <trkpt lat="48.53474" lon="2.00168">
        <ele>115</ele>
        <time>2022-07-12T09:50:06+02:00</time>
      </trkpt>
      <trkpt lat="48.53483" lon="2.00173">
        <ele>115</ele>
        <time>2022-07-12T09:50:15+02:00</time>
      </trkpt>
      <trkpt lat="48.53492" lon="2.00172">
        <ele>115</ele>
        <time>2022-07-12T09:50:20+02:00</time>
      </trkpt>
      <trkpt lat="48.53499" lon="2.00163">
        <ele>115</ele>
        <time>2022-07-12T09:50:29+02:00</time>
      </trkpt>
      <trkpt lat="48.53506" lon="2.00153">
        <ele>116</ele>
        <time>2022-07-12T09:50:37+02:00</time>
      </trkpt>
      <trkpt lat="48.53513" lon="2.00142">
        <ele>118</ele>
        <time>2022-07-12T09:50:44+02:00</time>
      </trkpt>
      <trkpt lat="48.53519" lon="2.00131">
        <ele>118</ele>
        <time>2022-07-12T09:50:54+02:00</time>
      </trkpt>
      <trkpt lat="48.53526" lon="2.00122">
        <ele>119</ele>
        <time>2022-07-12T09:51:02+02:00</time>
      </trkpt>
      <trkpt lat="48.53533" lon="2.00113">
        <ele>118</ele>
        <time>2022-07-12T09:51:11+02:00</time>
      </trkpt>
      <trkpt lat="48.53542" lon="2.0011">
        <ele>117</ele>
        <time>2022-07-12T09:51:19+02:00</time>
      </trkpt>
      <trkpt lat="48.53549" lon="2.001">
        <ele>118</ele>
        <time>2022-07-12T09:51:26+02:00</time>
      </trkpt>
      <trkpt lat="48.53557" lon="2.00092">
        <ele>119</ele>
        <time>2022-07-12T09:51:32+02:00</time>
      </trkpt>
      <trkpt lat="48.53564" lon="2.00083">
        <ele>119</ele>
        <time>2022-07-12T09:51:39+02:00</time>
      </trkpt>
      <trkpt lat="48.53573" lon="2.00075">
        <ele>118</ele>
        <time>2022-07-12T09:51:46+02:00</time>
      </trkpt>
      <trkpt lat="48.53581" lon="2.00066">
        <ele>118</ele>
        <time>2022-07-12T09:51:53+02:00</time>
      </trkpt>
      <trkpt lat="48.53588" lon="2.00056">
        <ele>118</ele>
        <time>2022-07-12T09:52:00+02:00</time>
      </trkpt>
      <trkpt lat="48.53596" lon="2.00048">
        <ele>119</ele>
        <time>2022-07-12T09:52:07+02:00</time>
      </trkpt>
      <trkpt lat="48.53604" lon="2.0004">
        <ele>119</ele>
        <time>2022-07-12T09:52:15+02:00</time>
      </trkpt>
      <trkpt lat="48.53612" lon="2.0003">
        <ele>116</ele>
        <time>2022-07-12T09:52:22+02:00</time>
      </trkpt>
      <trkpt lat="48.5362" lon="2.00023">
        <ele>116</ele>
        <time>2022-07-12T09:52:29+02:00</time>
      </trkpt>
      <trkpt lat="48.53628" lon="2.00013">
        <ele>116</ele>
        <time>2022-07-12T09:52:37+02:00</time>
      </trkpt>
      <trkpt lat="48.53636" lon="2.00004">
        <ele>117</ele>
        <time>2022-07-12T09:52:45+02:00</time>
      </trkpt>
      <trkpt lat="48.53643" lon="1.99995">
        <ele>117</ele>
        <time>2022-07-12T09:52:52+02:00</time>
      </trkpt>
      <trkpt lat="48.53651" lon="1.99986">
        <ele>118</ele>
        <time>2022-07-12T09:52:59+02:00</time>
      </trkpt>
      <trkpt lat="48.53658" lon="1.99978">
        <ele>116</ele>
        <time>2022-07-12T09:53:07+02:00</time>
      </trkpt>
      <trkpt lat="48.53666" lon="1.99969">
        <ele>116</ele>
        <time>2022-07-12T09:53:14+02:00</time>
      </trkpt>
      <trkpt lat="48.53675" lon="1.99961">
        <ele>117</ele>
        <time>2022-07-12T09:53:22+02:00</time>
      </trkpt>
      <trkpt lat="48.53682" lon="1.99952">
        <ele>118</ele>
        <time>2022-07-12T09:53:29+02:00</time>
      </trkpt>
      <trkpt lat="48.5369" lon="1.99944">
        <ele>118</ele>
        <time>2022-07-12T09:53:38+02:00</time>
      </trkpt>
      <trkpt lat="48.53698" lon="1.99937">
        <ele>120</ele>
        <time>2022-07-12T09:53:46+02:00</time>
      </trkpt>
      <trkpt lat="48.53706" lon="1.9993">
        <ele>122</ele>
        <time>2022-07-12T09:53:54+02:00</time>
      </trkpt>
      <trkpt lat="48.53714" lon="1.99923">
        <ele>123</ele>
        <time>2022-07-12T09:54:01+02:00</time>
      </trkpt>
      <trkpt lat="48.5372" lon="1.99911">
        <ele>122</ele>
        <time>2022-07-12T09:54:09+02:00</time>
      </trkpt>
      <trkpt lat="48.53728" lon="1.99902">
        <ele>122</ele>
        <time>2022-07-12T09:54:17+02:00</time>
      </trkpt>
      <trkpt lat="48.53736" lon="1.99895">
        <ele>122</ele>
        <time>2022-07-12T09:54:24+02:00</time>
      </trkpt>
      <trkpt lat="48.53743" lon="1.99886">
        <ele>124</ele>
        <time>2022-07-12T09:54:33+02:00</time>
      </trkpt>
      <trkpt lat="48.53752" lon="1.99881">
        <ele>126</ele>
        <time>2022-07-12T09:54:42+02:00</time>
      </trkpt>
      <trkpt lat="48.53761" lon="1.99877">
        <ele>128</ele>
        <time>2022-07-12T09:54:50+02:00</time>
      </trkpt>
      <trkpt lat="48.5377" lon="1.99873">
        <ele>132</ele>
        <time>2022-07-12T09:54:57+02:00</time>
      </trkpt>
      <trkpt lat="48.53779" lon="1.99869">
        <ele>133</ele>
        <time>2022-07-12T09:55:05+02:00</time>
      </trkpt>
      <trkpt lat="48.53789" lon="1.99865">
        <ele>134</ele>
        <time>2022-07-12T09:55:12+02:00</time>
      </trkpt>
      <trkpt lat="48.53798" lon="1.99857">
        <ele>133</ele>
        <time>2022-07-12T09:55:21+02:00</time>
      </trkpt>
      <trkpt lat="48.53804" lon="1.99844">
        <ele>131</ele>
        <time>2022-07-12T09:55:29+02:00</time>
      </trkpt>
      <trkpt lat="48.53808" lon="1.99832">
        <ele>129</ele>
        <time>2022-07-12T09:55:36+02:00</time>
      </trkpt>
      <trkpt lat="48.53811" lon="1.99818">
        <ele>129</ele>
        <time>2022-07-12T09:55:44+02:00</time>
      </trkpt>
      <trkpt lat="48.53813" lon="1.99805">
        <ele>129</ele>
        <time>2022-07-12T09:55:55+02:00</time>
      </trkpt>
      <trkpt lat="48.53817" lon="1.99792">
        <ele>129</ele>
        <time>2022-07-12T09:56:05+02:00</time>
      </trkpt>
      <trkpt lat="48.53823" lon="1.99781">
        <ele>131</ele>
        <time>2022-07-12T09:56:14+02:00</time>
      </trkpt>
      <trkpt lat="48.53829" lon="1.99769">
        <ele>132</ele>
        <time>2022-07-12T09:56:22+02:00</time>
      </trkpt>
      <trkpt lat="48.53834" lon="1.99758">
        <ele>132</ele>
        <time>2022-07-12T09:56:30+02:00</time>
      </trkpt>
      <trkpt lat="48.5384" lon="1.99748">
        <ele>134</ele>
        <time>2022-07-12T09:56:39+02:00</time>
      </trkpt>
      <trkpt lat="48.53845" lon="1.99736">
        <ele>136</ele>
        <time>2022-07-12T09:56:48+02:00</time>
      </trkpt>
      <trkpt lat="48.53848" lon="1.99722">
        <ele>138</ele>
        <time>2022-07-12T09:56:57+02:00</time>
      </trkpt>
      <trkpt lat="48.53854" lon="1.99711">
        <ele>139</ele>
        <time>2022-07-12T09:57:06+02:00</time>
      </trkpt>
      <trkpt lat="48.53861" lon="1.99701">
        <ele>140</ele>
        <time>2022-07-12T09:57:12+02:00</time>
      </trkpt>
      <trkpt lat="48.53868" lon="1.99691">
        <ele>141</ele>
        <time>2022-07-12T09:57:18+02:00</time>
      </trkpt>
      <trkpt lat="48.53874" lon="1.99678">
        <ele>140</ele>
        <time>2022-07-12T09:57:25+02:00</time>
      </trkpt>
      <trkpt lat="48.53881" lon="1.99669">
        <ele>139</ele>
        <time>2022-07-12T09:57:35+02:00</time>
      </trkpt>
      <trkpt lat="48.53889" lon="1.9966">
        <ele>139</ele>
        <time>2022-07-12T09:57:42+02:00</time>
      </trkpt>
      <trkpt lat="48.53897" lon="1.9965">
        <ele>138</ele>
        <time>2022-07-12T09:57:49+02:00</time>
      </trkpt>
      <trkpt lat="48.53904" lon="1.9964">
        <ele>138</ele>
        <time>2022-07-12T09:57:58+02:00</time>
      </trkpt>
      <trkpt lat="48.53911" lon="1.99632">
        <ele>137</ele>
        <time>2022-07-12T09:58:06+02:00</time>
      </trkpt>
      <trkpt lat="48.53919" lon="1.99624">
        <ele>137</ele>
        <time>2022-07-12T09:58:14+02:00</time>
      </trkpt>
      <trkpt lat="48.53927" lon="1.99616">
        <ele>137</ele>
        <time>2022-07-12T09:58:22+02:00</time>
      </trkpt>
      <trkpt lat="48.53935" lon="1.9961">
        <ele>139</ele>
        <time>2022-07-12T09:58:29+02:00</time>
      </trkpt>
      <trkpt lat="48.53944" lon="1.99604">
        <ele>141</ele>
        <time>2022-07-12T09:58:38+02:00</time>
      </trkpt>
      <trkpt lat="48.53953" lon="1.99601">
        <ele>143</ele>
        <time>2022-07-12T09:58:47+02:00</time>
      </trkpt>
      <trkpt lat="48.53962" lon="1.99596">
        <ele>144</ele>
        <time>2022-07-12T09:58:56+02:00</time>
      </trkpt>
      <trkpt lat="48.53971" lon="1.99592">
        <ele>145</ele>
        <time>2022-07-12T09:59:05+02:00</time>
      </trkpt>
      <trkpt lat="48.5398" lon="1.99585">
        <ele>146</ele>
        <time>2022-07-12T09:59:12+02:00</time>
      </trkpt>
      <trkpt lat="48.53986" lon="1.99574">
        <ele>146</ele>
        <time>2022-07-12T09:59:25+02:00</time>
      </trkpt>
      <trkpt lat="48.53987" lon="1.9956">
        <ele>148</ele>
        <time>2022-07-12T09:59:35+02:00</time>
      </trkpt>
      <trkpt lat="48.53988" lon="1.99545">
        <ele>149</ele>
        <time>2022-07-12T09:59:44+02:00</time>
      </trkpt>
      <trkpt lat="48.5399" lon="1.99531">
        <ele>151</ele>
        <time>2022-07-12T09:59:50+02:00</time>
      </trkpt>
      <trkpt lat="48.53988" lon="1.99518">
        <ele>153</ele>
        <time>2022-07-12T09:59:57+02:00</time>
      </trkpt>
      <trkpt lat="48.53987" lon="1.99503">
        <ele>155</ele>
        <time>2022-07-12T10:00:08+02:00</time>
      </trkpt>
      <trkpt lat="48.53982" lon="1.99477">
        <ele>156</ele>
        <time>2022-07-12T10:00:29+02:00</time>
      </trkpt>
      <trkpt lat="48.53985" lon="1.99463">
        <ele>157</ele>
        <time>2022-07-12T10:00:39+02:00</time>
      </trkpt>
      <trkpt lat="48.53986" lon="1.99447">
        <ele>160</ele>
        <time>2022-07-12T10:00:49+02:00</time>
      </trkpt>
      <trkpt lat="48.53987" lon="1.99432">
        <ele>160</ele>
        <time>2022-07-12T10:00:55+02:00</time>
      </trkpt>
      <trkpt lat="48.53985" lon="1.99418">
        <ele>160</ele>
        <time>2022-07-12T10:01:03+02:00</time>
      </trkpt>
      <trkpt lat="48.53982" lon="1.99404">
        <ele>158</ele>
        <time>2022-07-12T10:01:16+02:00</time>
      </trkpt>
      <trkpt lat="48.53979" lon="1.9939">
        <ele>159</ele>
        <time>2022-07-12T10:01:27+02:00</time>
      </trkpt>
      <trkpt lat="48.53976" lon="1.99372">
        <ele>158</ele>
        <time>2022-07-12T10:02:36+02:00</time>
      </trkpt>
      <trkpt lat="48.53976" lon="1.99358">
        <ele>160</ele>
        <time>2022-07-12T10:02:51+02:00</time>
      </trkpt>
      <trkpt lat="48.53973" lon="1.99344">
        <ele>160</ele>
        <time>2022-07-12T10:03:04+02:00</time>
      </trkpt>
      <trkpt lat="48.53973" lon="1.99329">
        <ele>160</ele>
        <time>2022-07-12T10:03:11+02:00</time>
      </trkpt>
      <trkpt lat="48.53975" lon="1.99315">
        <ele>160</ele>
        <time>2022-07-12T10:03:19+02:00</time>
      </trkpt>
      <trkpt lat="48.53973" lon="1.99301">
        <ele>159</ele>
        <time>2022-07-12T10:03:35+02:00</time>
      </trkpt>
      <trkpt lat="48.53976" lon="1.99287">
        <ele>157</ele>
        <time>2022-07-12T10:03:43+02:00</time>
      </trkpt>
      <trkpt lat="48.53973" lon="1.99272">
        <ele>156</ele>
        <time>2022-07-12T10:03:52+02:00</time>
      </trkpt>
      <trkpt lat="48.53966" lon="1.99262">
        <ele>155</ele>
        <time>2022-07-12T10:04:02+02:00</time>
      </trkpt>
      <trkpt lat="48.53959" lon="1.99252">
        <ele>153</ele>
        <time>2022-07-12T10:04:11+02:00</time>
      </trkpt>
      <trkpt lat="48.53952" lon="1.99241">
        <ele>151</ele>
        <time>2022-07-12T10:04:21+02:00</time>
      </trkpt>
      <trkpt lat="48.53948" lon="1.9923">
        <ele>151</ele>
        <time>2022-07-12T10:04:29+02:00</time>
      </trkpt>
      <trkpt lat="48.53944" lon="1.99216">
        <ele>148</ele>
        <time>2022-07-12T10:04:39+02:00</time>
      </trkpt>
      <trkpt lat="48.53943" lon="1.99203">
        <ele>146</ele>
        <time>2022-07-12T10:04:49+02:00</time>
      </trkpt>
      <trkpt lat="48.53943" lon="1.99188">
        <ele>143</ele>
        <time>2022-07-12T10:05:00+02:00</time>
      </trkpt>
      <trkpt lat="48.53947" lon="1.99175">
        <ele>140</ele>
        <time>2022-07-12T10:05:07+02:00</time>
      </trkpt>
      <trkpt lat="48.53954" lon="1.99166">
        <ele>139</ele>
        <time>2022-07-12T10:05:15+02:00</time>
      </trkpt>
      <trkpt lat="48.53963" lon="1.99158">
        <ele>138</ele>
        <time>2022-07-12T10:05:23+02:00</time>
      </trkpt>
      <trkpt lat="48.53972" lon="1.99152">
        <ele>137</ele>
        <time>2022-07-12T10:05:31+02:00</time>
      </trkpt>
      <trkpt lat="48.53981" lon="1.99148">
        <ele>137</ele>
        <time>2022-07-12T10:05:42+02:00</time>
      </trkpt>
      <trkpt lat="48.5399" lon="1.99141">
        <ele>136</ele>
        <time>2022-07-12T10:05:51+02:00</time>
      </trkpt>
      <trkpt lat="48.54" lon="1.99139">
        <ele>136</ele>
        <time>2022-07-12T10:06:01+02:00</time>
      </trkpt>
      <trkpt lat="48.54008" lon="1.99132">
        <ele>136</ele>
        <time>2022-07-12T10:06:10+02:00</time>
      </trkpt>
      <trkpt lat="48.54017" lon="1.99123">
        <ele>135</ele>
        <time>2022-07-12T10:06:20+02:00</time>
      </trkpt>
      <trkpt lat="48.54024" lon="1.99115">
        <ele>133</ele>
        <time>2022-07-12T10:06:31+02:00</time>
      </trkpt>
      <trkpt lat="48.54031" lon="1.99105">
        <ele>130</ele>
        <time>2022-07-12T10:06:40+02:00</time>
      </trkpt>
      <trkpt lat="48.54038" lon="1.99095">
        <ele>127</ele>
        <time>2022-07-12T10:06:50+02:00</time>
      </trkpt>
      <trkpt lat="48.54046" lon="1.99087">
        <ele>126</ele>
        <time>2022-07-12T10:07:03+02:00</time>
      </trkpt>
      <trkpt lat="48.54053" lon="1.99077">
        <ele>126</ele>
        <time>2022-07-12T10:07:11+02:00</time>
      </trkpt>
      <trkpt lat="48.5406" lon="1.99065">
        <ele>126</ele>
        <time>2022-07-12T10:07:19+02:00</time>
      </trkpt>
      <trkpt lat="48.54066" lon="1.99053">
        <ele>130</ele>
        <time>2022-07-12T10:07:26+02:00</time>
      </trkpt>
      <trkpt lat="48.54073" lon="1.99043">
        <ele>132</ele>
        <time>2022-07-12T10:07:33+02:00</time>
      </trkpt>
      <trkpt lat="48.54081" lon="1.99034">
        <ele>135</ele>
        <time>2022-07-12T10:07:41+02:00</time>
      </trkpt>
      <trkpt lat="48.54089" lon="1.99026">
        <ele>137</ele>
        <time>2022-07-12T10:07:50+02:00</time>
      </trkpt>
      <trkpt lat="48.54097" lon="1.99017">
        <ele>139</ele>
        <time>2022-07-12T10:07:58+02:00</time>
      </trkpt>
      <trkpt lat="48.54103" lon="1.99006">
        <ele>140</ele>
        <time>2022-07-12T10:08:06+02:00</time>
      </trkpt>
      <trkpt lat="48.54112" lon="1.98998">
        <ele>142</ele>
        <time>2022-07-12T10:08:17+02:00</time>
      </trkpt>
      <trkpt lat="48.54119" lon="1.98989">
        <ele>146</ele>
        <time>2022-07-12T10:08:25+02:00</time>
      </trkpt>
      <trkpt lat="48.54127" lon="1.9898">
        <ele>149</ele>
        <time>2022-07-12T10:08:33+02:00</time>
      </trkpt>
      <trkpt lat="48.54135" lon="1.98972">
        <ele>153</ele>
        <time>2022-07-12T10:08:42+02:00</time>
      </trkpt>
      <trkpt lat="48.54143" lon="1.98965">
        <ele>155</ele>
        <time>2022-07-12T10:08:49+02:00</time>
      </trkpt>
      <trkpt lat="48.54151" lon="1.98958">
        <ele>156</ele>
        <time>2022-07-12T10:08:56+02:00</time>
      </trkpt>
      <trkpt lat="48.5416" lon="1.98951">
        <ele>158</ele>
        <time>2022-07-12T10:09:05+02:00</time>
      </trkpt>
      <trkpt lat="48.54168" lon="1.98942">
        <ele>159</ele>
        <time>2022-07-12T10:09:14+02:00</time>
      </trkpt>
      <trkpt lat="48.54177" lon="1.98937">
        <ele>160</ele>
        <time>2022-07-12T10:09:22+02:00</time>
      </trkpt>
      <trkpt lat="48.54186" lon="1.98932">
        <ele>160</ele>
        <time>2022-07-12T10:09:30+02:00</time>
      </trkpt>
      <trkpt lat="48.54195" lon="1.98928">
        <ele>159</ele>
        <time>2022-07-12T10:09:37+02:00</time>
      </trkpt>
      <trkpt lat="48.54202" lon="1.9892">
        <ele>158</ele>
        <time>2022-07-12T10:09:46+02:00</time>
      </trkpt>
      <trkpt lat="48.54209" lon="1.98911">
        <ele>157</ele>
        <time>2022-07-12T10:09:56+02:00</time>
      </trkpt>
      <trkpt lat="48.54215" lon="1.98901">
        <ele>156</ele>
        <time>2022-07-12T10:10:05+02:00</time>
      </trkpt>
      <trkpt lat="48.54222" lon="1.9889">
        <ele>155</ele>
        <time>2022-07-12T10:10:15+02:00</time>
      </trkpt>
      <trkpt lat="48.54229" lon="1.98879">
        <ele>154</ele>
        <time>2022-07-12T10:10:23+02:00</time>
      </trkpt>
      <trkpt lat="48.54237" lon="1.98871">
        <ele>153</ele>
        <time>2022-07-12T10:10:31+02:00</time>
      </trkpt>
      <trkpt lat="48.54244" lon="1.98861">
        <ele>154</ele>
        <time>2022-07-12T10:10:42+02:00</time>
      </trkpt>
      <trkpt lat="48.54252" lon="1.98851">
        <ele>154</ele>
        <time>2022-07-12T10:10:52+02:00</time>
      </trkpt>
      <trkpt lat="48.54258" lon="1.9884">
        <ele>154</ele>
        <time>2022-07-12T10:10:58+02:00</time>
      </trkpt>
      <trkpt lat="48.54264" lon="1.98829">
        <ele>155</ele>
        <time>2022-07-12T10:11:05+02:00</time>
      </trkpt>
      <trkpt lat="48.5427" lon="1.98817">
        <ele>156</ele>
        <time>2022-07-12T10:11:13+02:00</time>
      </trkpt>
      <trkpt lat="48.54275" lon="1.98804">
        <ele>156</ele>
        <time>2022-07-12T10:11:21+02:00</time>
      </trkpt>
      <trkpt lat="48.5428" lon="1.98794">
        <ele>156</ele>
        <time>2022-07-12T10:11:28+02:00</time>
      </trkpt>
      <trkpt lat="48.54287" lon="1.98783">
        <ele>157</ele>
        <time>2022-07-12T10:11:37+02:00</time>
      </trkpt>
      <trkpt lat="48.54293" lon="1.98771">
        <ele>158</ele>
        <time>2022-07-12T10:11:46+02:00</time>
      </trkpt>
      <trkpt lat="48.54299" lon="1.98758">
        <ele>158</ele>
        <time>2022-07-12T10:11:54+02:00</time>
      </trkpt>
      <trkpt lat="48.54304" lon="1.98746">
        <ele>158</ele>
        <time>2022-07-12T10:12:04+02:00</time>
      </trkpt>
      <trkpt lat="48.54308" lon="1.98732">
        <ele>157</ele>
        <time>2022-07-12T10:12:14+02:00</time>
      </trkpt>
      <trkpt lat="48.54312" lon="1.98718">
        <ele>158</ele>
        <time>2022-07-12T10:12:23+02:00</time>
      </trkpt>
      <trkpt lat="48.54315" lon="1.98704">
        <ele>158</ele>
        <time>2022-07-12T10:12:31+02:00</time>
      </trkpt>
      <trkpt lat="48.54318" lon="1.9869">
        <ele>159</ele>
        <time>2022-07-12T10:12:41+02:00</time>
      </trkpt>
      <trkpt lat="48.54321" lon="1.98675">
        <ele>161</ele>
        <time>2022-07-12T10:12:50+02:00</time>
      </trkpt>
      <trkpt lat="48.54323" lon="1.98662">
        <ele>162</ele>
        <time>2022-07-12T10:12:58+02:00</time>
      </trkpt>
      <trkpt lat="48.54326" lon="1.98647">
        <ele>163</ele>
        <time>2022-07-12T10:13:06+02:00</time>
      </trkpt>
      <trkpt lat="48.54327" lon="1.98633">
        <ele>164</ele>
        <time>2022-07-12T10:13:14+02:00</time>
      </trkpt>
      <trkpt lat="48.54329" lon="1.98619">
        <ele>164</ele>
        <time>2022-07-12T10:13:22+02:00</time>
      </trkpt>
      <trkpt lat="48.5433" lon="1.98604">
        <ele>164</ele>
        <time>2022-07-12T10:13:28+02:00</time>
      </trkpt>
      <trkpt lat="48.5433" lon="1.9859">
        <ele>164</ele>
        <time>2022-07-12T10:13:34+02:00</time>
      </trkpt>
      <trkpt lat="48.54331" lon="1.98576">
        <ele>165</ele>
        <time>2022-07-12T10:13:40+02:00</time>
      </trkpt>
      <trkpt lat="48.54331" lon="1.9856">
        <ele>166</ele>
        <time>2022-07-12T10:13:47+02:00</time>
      </trkpt>
      <trkpt lat="48.54329" lon="1.98547">
        <ele>168</ele>
        <time>2022-07-12T10:13:57+02:00</time>
      </trkpt>
      <trkpt lat="48.54327" lon="1.98533">
        <ele>166</ele>
        <time>2022-07-12T10:14:06+02:00</time>
      </trkpt>
      <trkpt lat="48.54328" lon="1.98518">
        <ele>167</ele>
        <time>2022-07-12T10:14:13+02:00</time>
      </trkpt>
      <trkpt lat="48.54328" lon="1.98504">
        <ele>166</ele>
        <time>2022-07-12T10:14:22+02:00</time>
      </trkpt>
      <trkpt lat="48.54328" lon="1.9849">
        <ele>167</ele>
        <time>2022-07-12T10:14:32+02:00</time>
      </trkpt>
      <trkpt lat="48.54329" lon="1.98476">
        <ele>167</ele>
        <time>2022-07-12T10:14:40+02:00</time>
      </trkpt>
      <trkpt lat="48.54332" lon="1.98461">
        <ele>168</ele>
        <time>2022-07-12T10:14:48+02:00</time>
      </trkpt>
      <trkpt lat="48.54332" lon="1.98447">
        <ele>168</ele>
        <time>2022-07-12T10:14:55+02:00</time>
      </trkpt>
      <trkpt lat="48.54334" lon="1.98432">
        <ele>169</ele>
        <time>2022-07-12T10:15:03+02:00</time>
      </trkpt>
      <trkpt lat="48.54334" lon="1.98418">
        <ele>169</ele>
        <time>2022-07-12T10:15:10+02:00</time>
      </trkpt>
      <trkpt lat="48.54336" lon="1.98403">
        <ele>169</ele>
        <time>2022-07-12T10:15:17+02:00</time>
      </trkpt>
      <trkpt lat="48.54338" lon="1.98388">
        <ele>169</ele>
        <time>2022-07-12T10:15:24+02:00</time>
      </trkpt>
      <trkpt lat="48.54337" lon="1.98374">
        <ele>169</ele>
        <time>2022-07-12T10:15:30+02:00</time>
      </trkpt>
      <trkpt lat="48.54335" lon="1.98361">
        <ele>168</ele>
        <time>2022-07-12T10:15:36+02:00</time>
      </trkpt>
      <trkpt lat="48.54335" lon="1.98347">
        <ele>168</ele>
        <time>2022-07-12T10:15:46+02:00</time>
      </trkpt>
      <trkpt lat="48.54336" lon="1.98333">
        <ele>167</ele>
        <time>2022-07-12T10:15:54+02:00</time>
      </trkpt>
      <trkpt lat="48.54336" lon="1.98318">
        <ele>167</ele>
        <time>2022-07-12T10:16:02+02:00</time>
      </trkpt>
      <trkpt lat="48.54337" lon="1.98302">
        <ele>166</ele>
        <time>2022-07-12T10:16:10+02:00</time>
      </trkpt>
      <trkpt lat="48.54338" lon="1.98288">
        <ele>165</ele>
        <time>2022-07-12T10:16:16+02:00</time>
      </trkpt>
      <trkpt lat="48.54339" lon="1.98273">
        <ele>164</ele>
        <time>2022-07-12T10:16:24+02:00</time>
      </trkpt>
      <trkpt lat="48.5434" lon="1.98259">
        <ele>162</ele>
        <time>2022-07-12T10:16:31+02:00</time>
      </trkpt>
      <trkpt lat="48.54341" lon="1.98245">
        <ele>160</ele>
        <time>2022-07-12T10:16:38+02:00</time>
      </trkpt>
      <trkpt lat="48.54345" lon="1.98232">
        <ele>161</ele>
        <time>2022-07-12T10:16:45+02:00</time>
      </trkpt>
      <trkpt lat="48.54348" lon="1.98219">
        <ele>160</ele>
        <time>2022-07-12T10:16:53+02:00</time>
      </trkpt>
      <trkpt lat="48.5435" lon="1.98204">
        <ele>159</ele>
        <time>2022-07-12T10:17:00+02:00</time>
      </trkpt>
      <trkpt lat="48.54353" lon="1.98192">
        <ele>158</ele>
        <time>2022-07-12T10:17:08+02:00</time>
      </trkpt>
      <trkpt lat="48.54359" lon="1.9818">
        <ele>159</ele>
        <time>2022-07-12T10:17:15+02:00</time>
      </trkpt>
      <trkpt lat="48.54364" lon="1.98166">
        <ele>158</ele>
        <time>2022-07-12T10:17:22+02:00</time>
      </trkpt>
      <trkpt lat="48.54367" lon="1.98153">
        <ele>158</ele>
        <time>2022-07-12T10:17:29+02:00</time>
      </trkpt>
      <trkpt lat="48.5437" lon="1.98139">
        <ele>158</ele>
        <time>2022-07-12T10:17:38+02:00</time>
      </trkpt>
      <trkpt lat="48.54373" lon="1.98126">
        <ele>157</ele>
        <time>2022-07-12T10:17:45+02:00</time>
      </trkpt>
      <trkpt lat="48.54378" lon="1.98114">
        <ele>156</ele>
        <time>2022-07-12T10:17:52+02:00</time>
      </trkpt>
      <trkpt lat="48.54381" lon="1.98101">
        <ele>155</ele>
        <time>2022-07-12T10:18:03+02:00</time>
      </trkpt>
      <trkpt lat="48.54386" lon="1.98087">
        <ele>154</ele>
        <time>2022-07-12T10:18:13+02:00</time>
      </trkpt>
      <trkpt lat="48.54391" lon="1.98076">
        <ele>153</ele>
        <time>2022-07-12T10:18:21+02:00</time>
      </trkpt>
      <trkpt lat="48.54396" lon="1.98063">
        <ele>153</ele>
        <time>2022-07-12T10:18:29+02:00</time>
      </trkpt>
      <trkpt lat="48.544" lon="1.98051">
        <ele>152</ele>
        <time>2022-07-12T10:18:36+02:00</time>
      </trkpt>
      <trkpt lat="48.54405" lon="1.98038">
        <ele>152</ele>
        <time>2022-07-12T10:18:43+02:00</time>
      </trkpt>
      <trkpt lat="48.54409" lon="1.98024">
        <ele>151</ele>
        <time>2022-07-12T10:18:51+02:00</time>
      </trkpt>
      <trkpt lat="48.54414" lon="1.98011">
        <ele>150</ele>
        <time>2022-07-12T10:18:59+02:00</time>
      </trkpt>
      <trkpt lat="48.54419" lon="1.97998">
        <ele>149</ele>
        <time>2022-07-12T10:19:06+02:00</time>
      </trkpt>
      <trkpt lat="48.54424" lon="1.97985">
        <ele>150</ele>
        <time>2022-07-12T10:19:13+02:00</time>
      </trkpt>
      <trkpt lat="48.5443" lon="1.97973">
        <ele>150</ele>
        <time>2022-07-12T10:19:21+02:00</time>
      </trkpt>
      <trkpt lat="48.54433" lon="1.9796">
        <ele>151</ele>
        <time>2022-07-12T10:19:28+02:00</time>
      </trkpt>
      <trkpt lat="48.54437" lon="1.97947">
        <ele>151</ele>
        <time>2022-07-12T10:19:36+02:00</time>
      </trkpt>
      <trkpt lat="48.54441" lon="1.97934">
        <ele>152</ele>
        <time>2022-07-12T10:19:43+02:00</time>
      </trkpt>
      <trkpt lat="48.54445" lon="1.97921">
        <ele>153</ele>
        <time>2022-07-12T10:19:50+02:00</time>
      </trkpt>
      <trkpt lat="48.54449" lon="1.97907">
        <ele>154</ele>
        <time>2022-07-12T10:19:59+02:00</time>
      </trkpt>
      <trkpt lat="48.54454" lon="1.97895">
        <ele>154</ele>
        <time>2022-07-12T10:20:05+02:00</time>
      </trkpt>
      <trkpt lat="48.54459" lon="1.97882">
        <ele>155</ele>
        <time>2022-07-12T10:20:12+02:00</time>
      </trkpt>
      <trkpt lat="48.54464" lon="1.9787">
        <ele>156</ele>
        <time>2022-07-12T10:20:20+02:00</time>
      </trkpt>
      <trkpt lat="48.54468" lon="1.97857">
        <ele>156</ele>
        <time>2022-07-12T10:20:27+02:00</time>
      </trkpt>
      <trkpt lat="48.54473" lon="1.97845">
        <ele>156</ele>
        <time>2022-07-12T10:20:34+02:00</time>
      </trkpt>
      <trkpt lat="48.54478" lon="1.97832">
        <ele>157</ele>
        <time>2022-07-12T10:20:40+02:00</time>
      </trkpt>
      <trkpt lat="48.54481" lon="1.97818">
        <ele>158</ele>
        <time>2022-07-12T10:20:50+02:00</time>
      </trkpt>
      <trkpt lat="48.54486" lon="1.97805">
        <ele>158</ele>
        <time>2022-07-12T10:20:58+02:00</time>
      </trkpt>
      <trkpt lat="48.54491" lon="1.97791">
        <ele>159</ele>
        <time>2022-07-12T10:21:05+02:00</time>
      </trkpt>
      <trkpt lat="48.54496" lon="1.97779">
        <ele>159</ele>
        <time>2022-07-12T10:21:12+02:00</time>
      </trkpt>
      <trkpt lat="48.545" lon="1.97766">
        <ele>159</ele>
        <time>2022-07-12T10:21:20+02:00</time>
      </trkpt>
      <trkpt lat="48.54505" lon="1.97753">
        <ele>160</ele>
        <time>2022-07-12T10:21:27+02:00</time>
      </trkpt>
      <trkpt lat="48.54508" lon="1.97739">
        <ele>160</ele>
        <time>2022-07-12T10:21:36+02:00</time>
      </trkpt>
      <trkpt lat="48.54513" lon="1.97727">
        <ele>160</ele>
        <time>2022-07-12T10:21:42+02:00</time>
      </trkpt>
      <trkpt lat="48.54518" lon="1.97715">
        <ele>160</ele>
        <time>2022-07-12T10:21:50+02:00</time>
      </trkpt>
      <trkpt lat="48.54524" lon="1.97703">
        <ele>161</ele>
        <time>2022-07-12T10:21:58+02:00</time>
      </trkpt>
      <trkpt lat="48.54528" lon="1.97689">
        <ele>161</ele>
        <time>2022-07-12T10:22:06+02:00</time>
      </trkpt>
      <trkpt lat="48.54533" lon="1.97676">
        <ele>161</ele>
        <time>2022-07-12T10:22:13+02:00</time>
      </trkpt>
      <trkpt lat="48.54537" lon="1.97663">
        <ele>161</ele>
        <time>2022-07-12T10:22:20+02:00</time>
      </trkpt>
      <trkpt lat="48.54542" lon="1.97651">
        <ele>162</ele>
        <time>2022-07-12T10:22:29+02:00</time>
      </trkpt>
      <trkpt lat="48.54547" lon="1.97638">
        <ele>163</ele>
        <time>2022-07-12T10:22:34+02:00</time>
      </trkpt>
      <trkpt lat="48.54552" lon="1.97624">
        <ele>163</ele>
        <time>2022-07-12T10:22:40+02:00</time>
      </trkpt>
      <trkpt lat="48.54556" lon="1.9761">
        <ele>163</ele>
        <time>2022-07-12T10:22:47+02:00</time>
      </trkpt>
      <trkpt lat="48.5456" lon="1.97598">
        <ele>162</ele>
        <time>2022-07-12T10:22:55+02:00</time>
      </trkpt>
      <trkpt lat="48.54565" lon="1.97586">
        <ele>162</ele>
        <time>2022-07-12T10:23:04+02:00</time>
      </trkpt>
      <trkpt lat="48.54569" lon="1.97574">
        <ele>163</ele>
        <time>2022-07-12T10:23:12+02:00</time>
      </trkpt>
      <trkpt lat="48.54575" lon="1.97561">
        <ele>163</ele>
        <time>2022-07-12T10:23:21+02:00</time>
      </trkpt>
      <trkpt lat="48.54579" lon="1.9755">
        <ele>164</ele>
        <time>2022-07-12T10:23:29+02:00</time>
      </trkpt>
      <trkpt lat="48.54585" lon="1.97537">
        <ele>164</ele>
        <time>2022-07-12T10:23:37+02:00</time>
      </trkpt>
      <trkpt lat="48.54589" lon="1.97524">
        <ele>164</ele>
        <time>2022-07-12T10:23:44+02:00</time>
      </trkpt>
      <trkpt lat="48.54594" lon="1.97513">
        <ele>164</ele>
        <time>2022-07-12T10:23:54+02:00</time>
      </trkpt>
      <trkpt lat="48.54597" lon="1.975">
        <ele>164</ele>
        <time>2022-07-12T10:24:03+02:00</time>
      </trkpt>
      <trkpt lat="48.54601" lon="1.97487">
        <ele>165</ele>
        <time>2022-07-12T10:24:10+02:00</time>
      </trkpt>
      <trkpt lat="48.54605" lon="1.97474">
        <ele>165</ele>
        <time>2022-07-12T10:24:18+02:00</time>
      </trkpt>
      <trkpt lat="48.54607" lon="1.9746">
        <ele>165</ele>
        <time>2022-07-12T10:24:26+02:00</time>
      </trkpt>
      <trkpt lat="48.54611" lon="1.97446">
        <ele>165</ele>
        <time>2022-07-12T10:24:33+02:00</time>
      </trkpt>
      <trkpt lat="48.54615" lon="1.97434">
        <ele>165</ele>
        <time>2022-07-12T10:24:38+02:00</time>
      </trkpt>
      <trkpt lat="48.54621" lon="1.97422">
        <ele>165</ele>
        <time>2022-07-12T10:24:44+02:00</time>
      </trkpt>
      <trkpt lat="48.54626" lon="1.9741">
        <ele>166</ele>
        <time>2022-07-12T10:24:51+02:00</time>
      </trkpt>
      <trkpt lat="48.54631" lon="1.97398">
        <ele>165</ele>
        <time>2022-07-12T10:24:59+02:00</time>
      </trkpt>
      <trkpt lat="48.54636" lon="1.97385">
        <ele>164</ele>
        <time>2022-07-12T10:25:07+02:00</time>
      </trkpt>
      <trkpt lat="48.54638" lon="1.97371">
        <ele>164</ele>
        <time>2022-07-12T10:25:17+02:00</time>
      </trkpt>
      <trkpt lat="48.54642" lon="1.97358">
        <ele>164</ele>
        <time>2022-07-12T10:25:24+02:00</time>
      </trkpt>
      <trkpt lat="48.54646" lon="1.97344">
        <ele>164</ele>
        <time>2022-07-12T10:25:32+02:00</time>
      </trkpt>
      <trkpt lat="48.54652" lon="1.97333">
        <ele>165</ele>
        <time>2022-07-12T10:25:39+02:00</time>
      </trkpt>
      <trkpt lat="48.54656" lon="1.97319">
        <ele>166</ele>
        <time>2022-07-12T10:25:46+02:00</time>
      </trkpt>
      <trkpt lat="48.54661" lon="1.97305">
        <ele>166</ele>
        <time>2022-07-12T10:25:53+02:00</time>
      </trkpt>
      <trkpt lat="48.54665" lon="1.97293">
        <ele>166</ele>
        <time>2022-07-12T10:25:59+02:00</time>
      </trkpt>
      <trkpt lat="48.54668" lon="1.97278">
        <ele>166</ele>
        <time>2022-07-12T10:26:06+02:00</time>
      </trkpt>
      <trkpt lat="48.54674" lon="1.97267">
        <ele>166</ele>
        <time>2022-07-12T10:26:12+02:00</time>
      </trkpt>
      <trkpt lat="48.54678" lon="1.97254">
        <ele>166</ele>
        <time>2022-07-12T10:26:19+02:00</time>
      </trkpt>
      <trkpt lat="48.54683" lon="1.97243">
        <ele>167</ele>
        <time>2022-07-12T10:26:25+02:00</time>
      </trkpt>
      <trkpt lat="48.54687" lon="1.97229">
        <ele>167</ele>
        <time>2022-07-12T10:26:33+02:00</time>
      </trkpt>
      <trkpt lat="48.54692" lon="1.97217">
        <ele>166</ele>
        <time>2022-07-12T10:26:41+02:00</time>
      </trkpt>
      <trkpt lat="48.54697" lon="1.97204">
        <ele>166</ele>
        <time>2022-07-12T10:26:49+02:00</time>
      </trkpt>
      <trkpt lat="48.54703" lon="1.97192">
        <ele>166</ele>
        <time>2022-07-12T10:26:56+02:00</time>
      </trkpt>
      <trkpt lat="48.5471" lon="1.97183">
        <ele>166</ele>
        <time>2022-07-12T10:27:07+02:00</time>
      </trkpt>
      <trkpt lat="48.54707" lon="1.9717">
        <ele>161</ele>
        <time>2022-07-12T10:32:10+02:00</time>
      </trkpt>
      <trkpt lat="48.54706" lon="1.97155">
        <ele>161</ele>
        <time>2022-07-12T10:32:19+02:00</time>
      </trkpt>
      <trkpt lat="48.54701" lon="1.97143">
        <ele>161</ele>
        <time>2022-07-12T10:32:29+02:00</time>
      </trkpt>
      <trkpt lat="48.54698" lon="1.97128">
        <ele>161</ele>
        <time>2022-07-12T10:32:38+02:00</time>
      </trkpt>
      <trkpt lat="48.54696" lon="1.97114">
        <ele>161</ele>
        <time>2022-07-12T10:32:47+02:00</time>
      </trkpt>
      <trkpt lat="48.54691" lon="1.97102">
        <ele>161</ele>
        <time>2022-07-12T10:32:54+02:00</time>
      </trkpt>
      <trkpt lat="48.5469" lon="1.97088">
        <ele>162</ele>
        <time>2022-07-12T10:33:01+02:00</time>
      </trkpt>
      <trkpt lat="48.54688" lon="1.97073">
        <ele>162</ele>
        <time>2022-07-12T10:33:09+02:00</time>
      </trkpt>
      <trkpt lat="48.54684" lon="1.97059">
        <ele>161</ele>
        <time>2022-07-12T10:33:17+02:00</time>
      </trkpt>
      <trkpt lat="48.54681" lon="1.97044">
        <ele>160</ele>
        <time>2022-07-12T10:33:25+02:00</time>
      </trkpt>
      <trkpt lat="48.54679" lon="1.97028">
        <ele>158</ele>
        <time>2022-07-12T10:33:32+02:00</time>
      </trkpt>
      <trkpt lat="48.54676" lon="1.97015">
        <ele>157</ele>
        <time>2022-07-12T10:33:39+02:00</time>
      </trkpt>
      <trkpt lat="48.54673" lon="1.97">
        <ele>157</ele>
        <time>2022-07-12T10:33:48+02:00</time>
      </trkpt>
      <trkpt lat="48.54671" lon="1.96985">
        <ele>156</ele>
        <time>2022-07-12T10:33:55+02:00</time>
      </trkpt>
      <trkpt lat="48.54667" lon="1.96958">
        <ele>156</ele>
        <time>2022-07-12T10:34:11+02:00</time>
      </trkpt>
      <trkpt lat="48.54667" lon="1.96944">
        <ele>154</ele>
        <time>2022-07-12T10:34:19+02:00</time>
      </trkpt>
      <trkpt lat="48.54666" lon="1.96929">
        <ele>154</ele>
        <time>2022-07-12T10:34:26+02:00</time>
      </trkpt>
      <trkpt lat="48.54663" lon="1.96915">
        <ele>154</ele>
        <time>2022-07-12T10:34:33+02:00</time>
      </trkpt>
      <trkpt lat="48.54659" lon="1.96903">
        <ele>154</ele>
        <time>2022-07-12T10:34:39+02:00</time>
      </trkpt>
      <trkpt lat="48.54655" lon="1.9689">
        <ele>154</ele>
        <time>2022-07-12T10:34:47+02:00</time>
      </trkpt>
      <trkpt lat="48.54654" lon="1.96874">
        <ele>154</ele>
        <time>2022-07-12T10:34:56+02:00</time>
      </trkpt>
      <trkpt lat="48.54651" lon="1.96861">
        <ele>155</ele>
        <time>2022-07-12T10:35:03+02:00</time>
      </trkpt>
      <trkpt lat="48.5465" lon="1.96846">
        <ele>157</ele>
        <time>2022-07-12T10:35:11+02:00</time>
      </trkpt>
      <trkpt lat="48.54646" lon="1.96832">
        <ele>156</ele>
        <time>2022-07-12T10:35:18+02:00</time>
      </trkpt>
      <trkpt lat="48.54642" lon="1.9682">
        <ele>156</ele>
        <time>2022-07-12T10:35:25+02:00</time>
      </trkpt>
      <trkpt lat="48.54638" lon="1.96807">
        <ele>157</ele>
        <time>2022-07-12T10:35:34+02:00</time>
      </trkpt>
      <trkpt lat="48.54636" lon="1.96792">
        <ele>157</ele>
        <time>2022-07-12T10:35:43+02:00</time>
      </trkpt>
      <trkpt lat="48.54635" lon="1.96777">
        <ele>158</ele>
        <time>2022-07-12T10:35:50+02:00</time>
      </trkpt>
      <trkpt lat="48.54634" lon="1.96762">
        <ele>159</ele>
        <time>2022-07-12T10:35:59+02:00</time>
      </trkpt>
      <trkpt lat="48.54633" lon="1.96748">
        <ele>158</ele>
        <time>2022-07-12T10:36:06+02:00</time>
      </trkpt>
      <trkpt lat="48.54631" lon="1.96733">
        <ele>158</ele>
        <time>2022-07-12T10:36:14+02:00</time>
      </trkpt>
      <trkpt lat="48.54629" lon="1.9672">
        <ele>157</ele>
        <time>2022-07-12T10:36:20+02:00</time>
      </trkpt>
      <trkpt lat="48.54624" lon="1.96706">
        <ele>155</ele>
        <time>2022-07-12T10:36:27+02:00</time>
      </trkpt>
      <trkpt lat="48.54621" lon="1.96693">
        <ele>154</ele>
        <time>2022-07-12T10:36:35+02:00</time>
      </trkpt>
      <trkpt lat="48.54618" lon="1.9668">
        <ele>153</ele>
        <time>2022-07-12T10:36:42+02:00</time>
      </trkpt>
      <trkpt lat="48.54615" lon="1.96665">
        <ele>154</ele>
        <time>2022-07-12T10:36:51+02:00</time>
      </trkpt>
      <trkpt lat="48.54613" lon="1.96651">
        <ele>155</ele>
        <time>2022-07-12T10:36:59+02:00</time>
      </trkpt>
      <trkpt lat="48.54612" lon="1.96637">
        <ele>155</ele>
        <time>2022-07-12T10:37:06+02:00</time>
      </trkpt>
      <trkpt lat="48.5461" lon="1.96612">
        <ele>157</ele>
        <time>2022-07-12T10:37:51+02:00</time>
      </trkpt>
      <trkpt lat="48.54608" lon="1.96599">
        <ele>154</ele>
        <time>2022-07-12T10:38:13+02:00</time>
      </trkpt>
      <trkpt lat="48.54604" lon="1.96587">
        <ele>153</ele>
        <time>2022-07-12T10:38:22+02:00</time>
      </trkpt>
      <trkpt lat="48.54601" lon="1.96573">
        <ele>154</ele>
        <time>2022-07-12T10:38:30+02:00</time>
      </trkpt>
      <trkpt lat="48.54599" lon="1.96559">
        <ele>158</ele>
        <time>2022-07-12T10:38:39+02:00</time>
      </trkpt>
      <trkpt lat="48.54594" lon="1.96546">
        <ele>159</ele>
        <time>2022-07-12T10:38:47+02:00</time>
      </trkpt>
      <trkpt lat="48.54591" lon="1.96533">
        <ele>160</ele>
        <time>2022-07-12T10:38:54+02:00</time>
      </trkpt>
      <trkpt lat="48.54588" lon="1.9652">
        <ele>160</ele>
        <time>2022-07-12T10:39:01+02:00</time>
      </trkpt>
      <trkpt lat="48.54586" lon="1.96506">
        <ele>160</ele>
        <time>2022-07-12T10:39:09+02:00</time>
      </trkpt>
      <trkpt lat="48.54584" lon="1.96492">
        <ele>161</ele>
        <time>2022-07-12T10:39:16+02:00</time>
      </trkpt>
      <trkpt lat="48.54583" lon="1.96477">
        <ele>162</ele>
        <time>2022-07-12T10:39:25+02:00</time>
      </trkpt>
      <trkpt lat="48.54579" lon="1.96465">
        <ele>162</ele>
        <time>2022-07-12T10:39:32+02:00</time>
      </trkpt>
      <trkpt lat="48.54577" lon="1.9645">
        <ele>163</ele>
        <time>2022-07-12T10:39:39+02:00</time>
      </trkpt>
      <trkpt lat="48.54576" lon="1.96434">
        <ele>163</ele>
        <time>2022-07-12T10:39:46+02:00</time>
      </trkpt>
      <trkpt lat="48.54574" lon="1.9642">
        <ele>164</ele>
        <time>2022-07-12T10:39:54+02:00</time>
      </trkpt>
      <trkpt lat="48.54571" lon="1.96407">
        <ele>167</ele>
        <time>2022-07-12T10:40:03+02:00</time>
      </trkpt>
      <trkpt lat="48.5457" lon="1.96392">
        <ele>169</ele>
        <time>2022-07-12T10:40:10+02:00</time>
      </trkpt>
      <trkpt lat="48.54566" lon="1.96379">
        <ele>170</ele>
        <time>2022-07-12T10:40:18+02:00</time>
      </trkpt>
      <trkpt lat="48.54561" lon="1.96366">
        <ele>170</ele>
        <time>2022-07-12T10:40:28+02:00</time>
      </trkpt>
      <trkpt lat="48.5456" lon="1.96351">
        <ele>170</ele>
        <time>2022-07-12T10:40:35+02:00</time>
      </trkpt>
      <trkpt lat="48.54558" lon="1.96338">
        <ele>170</ele>
        <time>2022-07-12T10:40:42+02:00</time>
      </trkpt>
      <trkpt lat="48.54556" lon="1.96324">
        <ele>168</ele>
        <time>2022-07-12T10:40:50+02:00</time>
      </trkpt>
      <trkpt lat="48.54552" lon="1.9631">
        <ele>168</ele>
        <time>2022-07-12T10:40:57+02:00</time>
      </trkpt>
      <trkpt lat="48.54549" lon="1.96296">
        <ele>166</ele>
        <time>2022-07-12T10:41:05+02:00</time>
      </trkpt>
      <trkpt lat="48.54549" lon="1.96282">
        <ele>164</ele>
        <time>2022-07-12T10:41:12+02:00</time>
      </trkpt>
      <trkpt lat="48.54547" lon="1.96268">
        <ele>162</ele>
        <time>2022-07-12T10:41:19+02:00</time>
      </trkpt>
      <trkpt lat="48.54545" lon="1.96255">
        <ele>161</ele>
        <time>2022-07-12T10:41:26+02:00</time>
      </trkpt>
      <trkpt lat="48.54543" lon="1.96241">
        <ele>160</ele>
        <time>2022-07-12T10:41:34+02:00</time>
      </trkpt>
      <trkpt lat="48.54541" lon="1.96227">
        <ele>159</ele>
        <time>2022-07-12T10:41:40+02:00</time>
      </trkpt>
      <trkpt lat="48.5454" lon="1.96213">
        <ele>157</ele>
        <time>2022-07-12T10:41:46+02:00</time>
      </trkpt>
      <trkpt lat="48.54538" lon="1.96199">
        <ele>155</ele>
        <time>2022-07-12T10:41:53+02:00</time>
      </trkpt>
      <trkpt lat="48.54534" lon="1.96187">
        <ele>153</ele>
        <time>2022-07-12T10:42:03+02:00</time>
      </trkpt>
      <trkpt lat="48.5453" lon="1.96174">
        <ele>154</ele>
        <time>2022-07-12T10:42:15+02:00</time>
      </trkpt>
      <trkpt lat="48.54527" lon="1.96159">
        <ele>153</ele>
        <time>2022-07-12T10:42:22+02:00</time>
      </trkpt>
      <trkpt lat="48.54524" lon="1.96145">
        <ele>154</ele>
        <time>2022-07-12T10:42:29+02:00</time>
      </trkpt>
      <trkpt lat="48.54516" lon="1.96153">
        <ele>157</ele>
        <time>2022-07-12T10:42:53+02:00</time>
      </trkpt>
      <trkpt lat="48.54513" lon="1.96165">
        <ele>157</ele>
        <time>2022-07-12T10:43:01+02:00</time>
      </trkpt>
      <trkpt lat="48.5451" lon="1.96178">
        <ele>155</ele>
        <time>2022-07-12T10:43:08+02:00</time>
      </trkpt>
      <trkpt lat="48.54507" lon="1.96192">
        <ele>156</ele>
        <time>2022-07-12T10:43:15+02:00</time>
      </trkpt>
      <trkpt lat="48.54502" lon="1.96203">
        <ele>156</ele>
        <time>2022-07-12T10:43:23+02:00</time>
      </trkpt>
      <trkpt lat="48.54497" lon="1.96216">
        <ele>158</ele>
        <time>2022-07-12T10:43:32+02:00</time>
      </trkpt>
      <trkpt lat="48.54492" lon="1.96227">
        <ele>161</ele>
        <time>2022-07-12T10:43:40+02:00</time>
      </trkpt>
      <trkpt lat="48.54489" lon="1.96241">
        <ele>164</ele>
        <time>2022-07-12T10:43:47+02:00</time>
      </trkpt>
      <trkpt lat="48.54486" lon="1.96255">
        <ele>167</ele>
        <time>2022-07-12T10:43:54+02:00</time>
      </trkpt>
      <trkpt lat="48.54478" lon="1.9628">
        <ele>169</ele>
        <time>2022-07-12T10:44:07+02:00</time>
      </trkpt>
      <trkpt lat="48.54473" lon="1.96292">
        <ele>168</ele>
        <time>2022-07-12T10:44:14+02:00</time>
      </trkpt>
      <trkpt lat="48.54467" lon="1.96303">
        <ele>169</ele>
        <time>2022-07-12T10:44:22+02:00</time>
      </trkpt>
      <trkpt lat="48.54463" lon="1.96317">
        <ele>168</ele>
        <time>2022-07-12T10:44:29+02:00</time>
      </trkpt>
      <trkpt lat="48.5446" lon="1.9633">
        <ele>168</ele>
        <time>2022-07-12T10:44:36+02:00</time>
      </trkpt>
      <trkpt lat="48.54456" lon="1.96342">
        <ele>168</ele>
        <time>2022-07-12T10:44:43+02:00</time>
      </trkpt>
      <trkpt lat="48.54451" lon="1.96356">
        <ele>168</ele>
        <time>2022-07-12T10:44:51+02:00</time>
      </trkpt>
      <trkpt lat="48.54446" lon="1.96369">
        <ele>168</ele>
        <time>2022-07-12T10:44:57+02:00</time>
      </trkpt>
      <trkpt lat="48.54441" lon="1.96381">
        <ele>166</ele>
        <time>2022-07-12T10:45:04+02:00</time>
      </trkpt>
      <trkpt lat="48.54435" lon="1.96394">
        <ele>164</ele>
        <time>2022-07-12T10:45:12+02:00</time>
      </trkpt>
      <trkpt lat="48.54431" lon="1.96406">
        <ele>162</ele>
        <time>2022-07-12T10:45:19+02:00</time>
      </trkpt>
      <trkpt lat="48.54425" lon="1.96418">
        <ele>160</ele>
        <time>2022-07-12T10:45:27+02:00</time>
      </trkpt>
      <trkpt lat="48.54421" lon="1.96432">
        <ele>159</ele>
        <time>2022-07-12T10:45:34+02:00</time>
      </trkpt>
      <trkpt lat="48.54419" lon="1.96446">
        <ele>159</ele>
        <time>2022-07-12T10:45:41+02:00</time>
      </trkpt>
      <trkpt lat="48.54415" lon="1.9646">
        <ele>159</ele>
        <time>2022-07-12T10:45:48+02:00</time>
      </trkpt>
      <trkpt lat="48.5441" lon="1.96471">
        <ele>159</ele>
        <time>2022-07-12T10:45:55+02:00</time>
      </trkpt>
      <trkpt lat="48.54405" lon="1.96483">
        <ele>159</ele>
        <time>2022-07-12T10:46:04+02:00</time>
      </trkpt>
      <trkpt lat="48.544" lon="1.96495">
        <ele>160</ele>
        <time>2022-07-12T10:46:11+02:00</time>
      </trkpt>
      <trkpt lat="48.54396" lon="1.96508">
        <ele>160</ele>
        <time>2022-07-12T10:46:19+02:00</time>
      </trkpt>
      <trkpt lat="48.5439" lon="1.96522">
        <ele>161</ele>
        <time>2022-07-12T10:46:28+02:00</time>
      </trkpt>
      <trkpt lat="48.54386" lon="1.96534">
        <ele>161</ele>
        <time>2022-07-12T10:46:34+02:00</time>
      </trkpt>
      <trkpt lat="48.54382" lon="1.96547">
        <ele>160</ele>
        <time>2022-07-12T10:46:41+02:00</time>
      </trkpt>
      <trkpt lat="48.54378" lon="1.9656">
        <ele>158</ele>
        <time>2022-07-12T10:46:48+02:00</time>
      </trkpt>
      <trkpt lat="48.54374" lon="1.96574">
        <ele>158</ele>
        <time>2022-07-12T10:46:55+02:00</time>
      </trkpt>
      <trkpt lat="48.5437" lon="1.96588">
        <ele>157</ele>
        <time>2022-07-12T10:47:03+02:00</time>
      </trkpt>
      <trkpt lat="48.54366" lon="1.96601">
        <ele>158</ele>
        <time>2022-07-12T10:47:11+02:00</time>
      </trkpt>
      <trkpt lat="48.54361" lon="1.96614">
        <ele>158</ele>
        <time>2022-07-12T10:47:19+02:00</time>
      </trkpt>
      <trkpt lat="48.54356" lon="1.96625">
        <ele>158</ele>
        <time>2022-07-12T10:47:25+02:00</time>
      </trkpt>
      <trkpt lat="48.54352" lon="1.96638">
        <ele>158</ele>
        <time>2022-07-12T10:47:32+02:00</time>
      </trkpt>
      <trkpt lat="48.54348" lon="1.96651">
        <ele>158</ele>
        <time>2022-07-12T10:47:39+02:00</time>
      </trkpt>
      <trkpt lat="48.54344" lon="1.96664">
        <ele>158</ele>
        <time>2022-07-12T10:47:46+02:00</time>
      </trkpt>
      <trkpt lat="48.54339" lon="1.96677">
        <ele>158</ele>
        <time>2022-07-12T10:47:53+02:00</time>
      </trkpt>
      <trkpt lat="48.54336" lon="1.96691">
        <ele>159</ele>
        <time>2022-07-12T10:48:00+02:00</time>
      </trkpt>
      <trkpt lat="48.54333" lon="1.96704">
        <ele>158</ele>
        <time>2022-07-12T10:48:07+02:00</time>
      </trkpt>
      <trkpt lat="48.54328" lon="1.96718">
        <ele>158</ele>
        <time>2022-07-12T10:48:14+02:00</time>
      </trkpt>
      <trkpt lat="48.54323" lon="1.96729">
        <ele>157</ele>
        <time>2022-07-12T10:48:21+02:00</time>
      </trkpt>
      <trkpt lat="48.54319" lon="1.96743">
        <ele>154</ele>
        <time>2022-07-12T10:48:29+02:00</time>
      </trkpt>
      <trkpt lat="48.54316" lon="1.96756">
        <ele>154</ele>
        <time>2022-07-12T10:48:38+02:00</time>
      </trkpt>
      <trkpt lat="48.5431" lon="1.96769">
        <ele>154</ele>
        <time>2022-07-12T10:48:46+02:00</time>
      </trkpt>
      <trkpt lat="48.54305" lon="1.96782">
        <ele>154</ele>
        <time>2022-07-12T10:48:52+02:00</time>
      </trkpt>
      <trkpt lat="48.543" lon="1.96795">
        <ele>155</ele>
        <time>2022-07-12T10:49:00+02:00</time>
      </trkpt>
      <trkpt lat="48.54295" lon="1.96806">
        <ele>156</ele>
        <time>2022-07-12T10:49:08+02:00</time>
      </trkpt>
      <trkpt lat="48.54291" lon="1.9682">
        <ele>156</ele>
        <time>2022-07-12T10:49:15+02:00</time>
      </trkpt>
      <trkpt lat="48.54287" lon="1.96832">
        <ele>156</ele>
        <time>2022-07-12T10:49:22+02:00</time>
      </trkpt>
      <trkpt lat="48.54282" lon="1.96845">
        <ele>157</ele>
        <time>2022-07-12T10:49:30+02:00</time>
      </trkpt>
      <trkpt lat="48.54276" lon="1.96856">
        <ele>159</ele>
        <time>2022-07-12T10:49:39+02:00</time>
      </trkpt>
      <trkpt lat="48.5427" lon="1.96868">
        <ele>161</ele>
        <time>2022-07-12T10:49:48+02:00</time>
      </trkpt>
      <trkpt lat="48.54264" lon="1.9688">
        <ele>162</ele>
        <time>2022-07-12T10:49:55+02:00</time>
      </trkpt>
      <trkpt lat="48.54261" lon="1.96893">
        <ele>162</ele>
        <time>2022-07-12T10:50:01+02:00</time>
      </trkpt>
      <trkpt lat="48.5426" lon="1.96906">
        <ele>162</ele>
        <time>2022-07-12T10:50:09+02:00</time>
      </trkpt>
      <trkpt lat="48.54259" lon="1.9692">
        <ele>157</ele>
        <time>2022-07-12T10:52:24+02:00</time>
      </trkpt>
      <trkpt lat="48.54254" lon="1.96934">
        <ele>157</ele>
        <time>2022-07-12T10:52:33+02:00</time>
      </trkpt>
      <trkpt lat="48.54249" lon="1.96946">
        <ele>159</ele>
        <time>2022-07-12T10:52:41+02:00</time>
      </trkpt>
      <trkpt lat="48.54242" lon="1.96959">
        <ele>162</ele>
        <time>2022-07-12T10:52:48+02:00</time>
      </trkpt>
      <trkpt lat="48.54239" lon="1.96972">
        <ele>164</ele>
        <time>2022-07-12T10:52:56+02:00</time>
      </trkpt>
      <trkpt lat="48.54235" lon="1.96987">
        <ele>164</ele>
        <time>2022-07-12T10:53:03+02:00</time>
      </trkpt>
      <trkpt lat="48.54232" lon="1.97001">
        <ele>164</ele>
        <time>2022-07-12T10:53:10+02:00</time>
      </trkpt>
      <trkpt lat="48.54227" lon="1.97014">
        <ele>163</ele>
        <time>2022-07-12T10:53:17+02:00</time>
      </trkpt>
      <trkpt lat="48.54223" lon="1.97026">
        <ele>161</ele>
        <time>2022-07-12T10:53:25+02:00</time>
      </trkpt>
      <trkpt lat="48.5422" lon="1.97039">
        <ele>161</ele>
        <time>2022-07-12T10:53:33+02:00</time>
      </trkpt>
      <trkpt lat="48.54216" lon="1.97052">
        <ele>162</ele>
        <time>2022-07-12T10:53:41+02:00</time>
      </trkpt>
      <trkpt lat="48.54211" lon="1.97066">
        <ele>162</ele>
        <time>2022-07-12T10:53:48+02:00</time>
      </trkpt>
      <trkpt lat="48.54207" lon="1.97078">
        <ele>162</ele>
        <time>2022-07-12T10:53:55+02:00</time>
      </trkpt>
      <trkpt lat="48.54202" lon="1.97091">
        <ele>163</ele>
        <time>2022-07-12T10:54:02+02:00</time>
      </trkpt>
      <trkpt lat="48.54199" lon="1.97105">
        <ele>163</ele>
        <time>2022-07-12T10:54:10+02:00</time>
      </trkpt>
      <trkpt lat="48.54195" lon="1.97117">
        <ele>164</ele>
        <time>2022-07-12T10:54:17+02:00</time>
      </trkpt>
      <trkpt lat="48.5419" lon="1.97129">
        <ele>165</ele>
        <time>2022-07-12T10:54:24+02:00</time>
      </trkpt>
      <trkpt lat="48.54184" lon="1.97141">
        <ele>163</ele>
        <time>2022-07-12T10:54:32+02:00</time>
      </trkpt>
      <trkpt lat="48.54177" lon="1.97153">
        <ele>162</ele>
        <time>2022-07-12T10:54:40+02:00</time>
      </trkpt>
      <trkpt lat="48.54175" lon="1.97166">
        <ele>160</ele>
        <time>2022-07-12T10:54:46+02:00</time>
      </trkpt>
      <trkpt lat="48.54171" lon="1.9718">
        <ele>160</ele>
        <time>2022-07-12T10:54:53+02:00</time>
      </trkpt>
      <trkpt lat="48.54167" lon="1.97194">
        <ele>161</ele>
        <time>2022-07-12T10:55:01+02:00</time>
      </trkpt>
      <trkpt lat="48.54163" lon="1.97206">
        <ele>160</ele>
        <time>2022-07-12T10:55:08+02:00</time>
      </trkpt>
      <trkpt lat="48.54158" lon="1.97219">
        <ele>159</ele>
        <time>2022-07-12T10:55:15+02:00</time>
      </trkpt>
      <trkpt lat="48.54154" lon="1.97232">
        <ele>157</ele>
        <time>2022-07-12T10:55:22+02:00</time>
      </trkpt>
      <trkpt lat="48.5415" lon="1.97246">
        <ele>157</ele>
        <time>2022-07-12T10:55:30+02:00</time>
      </trkpt>
      <trkpt lat="48.54145" lon="1.97259">
        <ele>157</ele>
        <time>2022-07-12T10:55:37+02:00</time>
      </trkpt>
      <trkpt lat="48.54139" lon="1.97271">
        <ele>159</ele>
        <time>2022-07-12T10:55:44+02:00</time>
      </trkpt>
      <trkpt lat="48.54134" lon="1.97284">
        <ele>158</ele>
        <time>2022-07-12T10:55:51+02:00</time>
      </trkpt>
      <trkpt lat="48.5413" lon="1.97296">
        <ele>159</ele>
        <time>2022-07-12T10:55:58+02:00</time>
      </trkpt>
      <trkpt lat="48.54126" lon="1.97309">
        <ele>158</ele>
        <time>2022-07-12T10:56:05+02:00</time>
      </trkpt>
      <trkpt lat="48.54122" lon="1.97322">
        <ele>158</ele>
        <time>2022-07-12T10:56:12+02:00</time>
      </trkpt>
      <trkpt lat="48.54118" lon="1.97336">
        <ele>155</ele>
        <time>2022-07-12T10:56:21+02:00</time>
      </trkpt>
      <trkpt lat="48.54112" lon="1.97347">
        <ele>154</ele>
        <time>2022-07-12T10:56:30+02:00</time>
      </trkpt>
      <trkpt lat="48.54106" lon="1.97358">
        <ele>155</ele>
        <time>2022-07-12T10:56:38+02:00</time>
      </trkpt>
      <trkpt lat="48.54104" lon="1.97372">
        <ele>157</ele>
        <time>2022-07-12T10:56:45+02:00</time>
      </trkpt>
      <trkpt lat="48.54101" lon="1.97386">
        <ele>158</ele>
        <time>2022-07-12T10:56:52+02:00</time>
      </trkpt>
      <trkpt lat="48.54095" lon="1.97396">
        <ele>157</ele>
        <time>2022-07-12T10:57:00+02:00</time>
      </trkpt>
      <trkpt lat="48.54092" lon="1.97409">
        <ele>157</ele>
        <time>2022-07-12T10:57:07+02:00</time>
      </trkpt>
      <trkpt lat="48.54087" lon="1.97422">
        <ele>156</ele>
        <time>2022-07-12T10:57:15+02:00</time>
      </trkpt>
      <trkpt lat="48.54083" lon="1.97434">
        <ele>155</ele>
        <time>2022-07-12T10:57:22+02:00</time>
      </trkpt>
      <trkpt lat="48.54078" lon="1.97446">
        <ele>152</ele>
        <time>2022-07-12T10:57:31+02:00</time>
      </trkpt>
      <trkpt lat="48.54073" lon="1.97458">
        <ele>152</ele>
        <time>2022-07-12T10:57:39+02:00</time>
      </trkpt>
      <trkpt lat="48.54069" lon="1.97472">
        <ele>153</ele>
        <time>2022-07-12T10:57:47+02:00</time>
      </trkpt>
      <trkpt lat="48.54065" lon="1.97485">
        <ele>152</ele>
        <time>2022-07-12T10:57:54+02:00</time>
      </trkpt>
      <trkpt lat="48.5406" lon="1.97497">
        <ele>151</ele>
        <time>2022-07-12T10:58:01+02:00</time>
      </trkpt>
      <trkpt lat="48.54057" lon="1.9751">
        <ele>150</ele>
        <time>2022-07-12T10:58:09+02:00</time>
      </trkpt>
      <trkpt lat="48.54053" lon="1.97523">
        <ele>148</ele>
        <time>2022-07-12T10:58:16+02:00</time>
      </trkpt>
      <trkpt lat="48.54049" lon="1.97536">
        <ele>149</ele>
        <time>2022-07-12T10:58:23+02:00</time>
      </trkpt>
      <trkpt lat="48.54045" lon="1.97549">
        <ele>150</ele>
        <time>2022-07-12T10:58:31+02:00</time>
      </trkpt>
      <trkpt lat="48.54041" lon="1.97563">
        <ele>151</ele>
        <time>2022-07-12T10:58:39+02:00</time>
      </trkpt>
      <trkpt lat="48.54036" lon="1.97575">
        <ele>150</ele>
        <time>2022-07-12T10:58:47+02:00</time>
      </trkpt>
      <trkpt lat="48.54032" lon="1.97589">
        <ele>151</ele>
        <time>2022-07-12T10:58:55+02:00</time>
      </trkpt>
      <trkpt lat="48.54026" lon="1.97602">
        <ele>150</ele>
        <time>2022-07-12T10:59:02+02:00</time>
      </trkpt>
      <trkpt lat="48.54022" lon="1.97613">
        <ele>149</ele>
        <time>2022-07-12T10:59:09+02:00</time>
      </trkpt>
      <trkpt lat="48.54017" lon="1.97627">
        <ele>148</ele>
        <time>2022-07-12T10:59:17+02:00</time>
      </trkpt>
      <trkpt lat="48.54012" lon="1.97641">
        <ele>148</ele>
        <time>2022-07-12T10:59:25+02:00</time>
      </trkpt>
      <trkpt lat="48.54008" lon="1.97655">
        <ele>148</ele>
        <time>2022-07-12T10:59:35+02:00</time>
      </trkpt>
      <trkpt lat="48.54003" lon="1.97669">
        <ele>146</ele>
        <time>2022-07-12T10:59:43+02:00</time>
      </trkpt>
      <trkpt lat="48.53998" lon="1.97682">
        <ele>145</ele>
        <time>2022-07-12T10:59:51+02:00</time>
      </trkpt>
      <trkpt lat="48.53994" lon="1.97694">
        <ele>146</ele>
        <time>2022-07-12T10:59:58+02:00</time>
      </trkpt>
      <trkpt lat="48.5399" lon="1.97706">
        <ele>147</ele>
        <time>2022-07-12T11:00:05+02:00</time>
      </trkpt>
      <trkpt lat="48.53984" lon="1.9772">
        <ele>146</ele>
        <time>2022-07-12T11:00:13+02:00</time>
      </trkpt>
      <trkpt lat="48.53981" lon="1.97733">
        <ele>145</ele>
        <time>2022-07-12T11:00:21+02:00</time>
      </trkpt>
      <trkpt lat="48.53975" lon="1.97745">
        <ele>145</ele>
        <time>2022-07-12T11:00:29+02:00</time>
      </trkpt>
      <trkpt lat="48.53972" lon="1.97759">
        <ele>145</ele>
        <time>2022-07-12T11:00:37+02:00</time>
      </trkpt>
      <trkpt lat="48.53967" lon="1.9777">
        <ele>145</ele>
        <time>2022-07-12T11:00:46+02:00</time>
      </trkpt>
      <trkpt lat="48.53962" lon="1.97783">
        <ele>145</ele>
        <time>2022-07-12T11:00:53+02:00</time>
      </trkpt>
      <trkpt lat="48.53958" lon="1.97795">
        <ele>145</ele>
        <time>2022-07-12T11:01:01+02:00</time>
      </trkpt>
      <trkpt lat="48.53953" lon="1.97809">
        <ele>142</ele>
        <time>2022-07-12T11:01:11+02:00</time>
      </trkpt>
      <trkpt lat="48.53947" lon="1.97821">
        <ele>143</ele>
        <time>2022-07-12T11:01:20+02:00</time>
      </trkpt>
      <trkpt lat="48.53945" lon="1.97835">
        <ele>145</ele>
        <time>2022-07-12T11:01:28+02:00</time>
      </trkpt>
      <trkpt lat="48.5394" lon="1.97848">
        <ele>146</ele>
        <time>2022-07-12T11:01:36+02:00</time>
      </trkpt>
      <trkpt lat="48.53936" lon="1.97862">
        <ele>147</ele>
        <time>2022-07-12T11:01:43+02:00</time>
      </trkpt>
      <trkpt lat="48.53933" lon="1.97877">
        <ele>148</ele>
        <time>2022-07-12T11:01:51+02:00</time>
      </trkpt>
      <trkpt lat="48.5393" lon="1.9789">
        <ele>146</ele>
        <time>2022-07-12T11:02:00+02:00</time>
      </trkpt>
      <trkpt lat="48.53928" lon="1.97903">
        <ele>144</ele>
        <time>2022-07-12T11:04:44+02:00</time>
      </trkpt>
      <trkpt lat="48.53919" lon="1.979">
        <ele>146</ele>
        <time>2022-07-12T11:05:20+02:00</time>
      </trkpt>
      <trkpt lat="48.5391" lon="1.97896">
        <ele>149</ele>
        <time>2022-07-12T11:05:34+02:00</time>
      </trkpt>
      <trkpt lat="48.53901" lon="1.9789">
        <ele>150</ele>
        <time>2022-07-12T11:05:43+02:00</time>
      </trkpt>
      <trkpt lat="48.53893" lon="1.97882">
        <ele>150</ele>
        <time>2022-07-12T11:05:50+02:00</time>
      </trkpt>
      <trkpt lat="48.53884" lon="1.97877">
        <ele>150</ele>
        <time>2022-07-12T11:05:57+02:00</time>
      </trkpt>
      <trkpt lat="48.53876" lon="1.97868">
        <ele>148</ele>
        <time>2022-07-12T11:06:06+02:00</time>
      </trkpt>
      <trkpt lat="48.53867" lon="1.9786">
        <ele>148</ele>
        <time>2022-07-12T11:06:13+02:00</time>
      </trkpt>
      <trkpt lat="48.53859" lon="1.97852">
        <ele>148</ele>
        <time>2022-07-12T11:06:21+02:00</time>
      </trkpt>
      <trkpt lat="48.53854" lon="1.9784">
        <ele>148</ele>
        <time>2022-07-12T11:06:34+02:00</time>
      </trkpt>
      <trkpt lat="48.53855" lon="1.97827">
        <ele>151</ele>
        <time>2022-07-12T11:06:42+02:00</time>
      </trkpt>
      <trkpt lat="48.53857" lon="1.97813">
        <ele>153</ele>
        <time>2022-07-12T11:06:50+02:00</time>
      </trkpt>
      <trkpt lat="48.53855" lon="1.978">
        <ele>155</ele>
        <time>2022-07-12T11:07:00+02:00</time>
      </trkpt>
      <trkpt lat="48.53855" lon="1.97784">
        <ele>157</ele>
        <time>2022-07-12T11:07:07+02:00</time>
      </trkpt>
      <trkpt lat="48.53856" lon="1.97768">
        <ele>161</ele>
        <time>2022-07-12T11:07:14+02:00</time>
      </trkpt>
      <trkpt lat="48.53854" lon="1.97755">
        <ele>164</ele>
        <time>2022-07-12T11:07:21+02:00</time>
      </trkpt>
      <trkpt lat="48.53855" lon="1.97741">
        <ele>167</ele>
        <time>2022-07-12T11:07:31+02:00</time>
      </trkpt>
      <trkpt lat="48.5386" lon="1.97728">
        <ele>167</ele>
        <time>2022-07-12T11:07:36+02:00</time>
      </trkpt>
      <trkpt lat="48.53866" lon="1.97715">
        <ele>167</ele>
        <time>2022-07-12T11:07:43+02:00</time>
      </trkpt>
      <trkpt lat="48.53866" lon="1.97701">
        <ele>165</ele>
        <time>2022-07-12T11:07:53+02:00</time>
      </trkpt>
      <trkpt lat="48.53867" lon="1.97686">
        <ele>167</ele>
        <time>2022-07-12T11:08:02+02:00</time>
      </trkpt>
      <trkpt lat="48.53869" lon="1.97671">
        <ele>168</ele>
        <time>2022-07-12T11:08:10+02:00</time>
      </trkpt>
      <trkpt lat="48.53871" lon="1.97658">
        <ele>170</ele>
        <time>2022-07-12T11:08:17+02:00</time>
      </trkpt>
      <trkpt lat="48.5387" lon="1.97643">
        <ele>170</ele>
        <time>2022-07-12T11:08:25+02:00</time>
      </trkpt>
      <trkpt lat="48.53871" lon="1.97628">
        <ele>171</ele>
        <time>2022-07-12T11:08:34+02:00</time>
      </trkpt>
      <trkpt lat="48.53874" lon="1.97615">
        <ele>172</ele>
        <time>2022-07-12T11:08:42+02:00</time>
      </trkpt>
      <trkpt lat="48.53877" lon="1.976">
        <ele>173</ele>
        <time>2022-07-12T11:08:49+02:00</time>
      </trkpt>
      <trkpt lat="48.5388" lon="1.97586">
        <ele>173</ele>
        <time>2022-07-12T11:08:55+02:00</time>
      </trkpt>
      <trkpt lat="48.53881" lon="1.97572">
        <ele>175</ele>
        <time>2022-07-12T11:09:02+02:00</time>
      </trkpt>
      <trkpt lat="48.53884" lon="1.97558">
        <ele>174</ele>
        <time>2022-07-12T11:09:09+02:00</time>
      </trkpt>
      <trkpt lat="48.53886" lon="1.97544">
        <ele>174</ele>
        <time>2022-07-12T11:09:18+02:00</time>
      </trkpt>
      <trkpt lat="48.53887" lon="1.9753">
        <ele>174</ele>
        <time>2022-07-12T11:09:26+02:00</time>
      </trkpt>
      <trkpt lat="48.53888" lon="1.97516">
        <ele>174</ele>
        <time>2022-07-12T11:09:33+02:00</time>
      </trkpt>
      <trkpt lat="48.53889" lon="1.97502">
        <ele>175</ele>
        <time>2022-07-12T11:09:39+02:00</time>
      </trkpt>
      <trkpt lat="48.5389" lon="1.97487">
        <ele>175</ele>
        <time>2022-07-12T11:09:48+02:00</time>
      </trkpt>
      <trkpt lat="48.5389" lon="1.97472">
        <ele>176</ele>
        <time>2022-07-12T11:09:54+02:00</time>
      </trkpt>
      <trkpt lat="48.53891" lon="1.97458">
        <ele>178</ele>
        <time>2022-07-12T11:10:02+02:00</time>
      </trkpt>
      <trkpt lat="48.53891" lon="1.97443">
        <ele>179</ele>
        <time>2022-07-12T11:10:09+02:00</time>
      </trkpt>
      <trkpt lat="48.53891" lon="1.9743">
        <ele>177</ele>
        <time>2022-07-12T11:10:16+02:00</time>
      </trkpt>
      <trkpt lat="48.53894" lon="1.97415">
        <ele>177</ele>
        <time>2022-07-12T11:10:25+02:00</time>
      </trkpt>
      <trkpt lat="48.53898" lon="1.97403">
        <ele>176</ele>
        <time>2022-07-12T11:10:33+02:00</time>
      </trkpt>
      <trkpt lat="48.53902" lon="1.9739">
        <ele>173</ele>
        <time>2022-07-12T11:10:44+02:00</time>
      </trkpt>
      <trkpt lat="48.53905" lon="1.97376">
        <ele>173</ele>
        <time>2022-07-12T11:10:52+02:00</time>
      </trkpt>
      <trkpt lat="48.53909" lon="1.97362">
        <ele>172</ele>
        <time>2022-07-12T11:10:59+02:00</time>
      </trkpt>
      <trkpt lat="48.53914" lon="1.9735">
        <ele>171</ele>
        <time>2022-07-12T11:11:06+02:00</time>
      </trkpt>
      <trkpt lat="48.53918" lon="1.97336">
        <ele>168</ele>
        <time>2022-07-12T11:11:13+02:00</time>
      </trkpt>
      <trkpt lat="48.53922" lon="1.97322">
        <ele>168</ele>
        <time>2022-07-12T11:11:20+02:00</time>
      </trkpt>
      <trkpt lat="48.53923" lon="1.97308">
        <ele>167</ele>
        <time>2022-07-12T11:11:28+02:00</time>
      </trkpt>
      <trkpt lat="48.53926" lon="1.97294">
        <ele>164</ele>
        <time>2022-07-12T11:11:37+02:00</time>
      </trkpt>
      <trkpt lat="48.53928" lon="1.9728">
        <ele>165</ele>
        <time>2022-07-12T11:11:44+02:00</time>
      </trkpt>
      <trkpt lat="48.5393" lon="1.97266">
        <ele>166</ele>
        <time>2022-07-12T11:11:51+02:00</time>
      </trkpt>
      <trkpt lat="48.53932" lon="1.97253">
        <ele>166</ele>
        <time>2022-07-12T11:11:59+02:00</time>
      </trkpt>
      <trkpt lat="48.53935" lon="1.97238">
        <ele>168</ele>
        <time>2022-07-12T11:12:08+02:00</time>
      </trkpt>
      <trkpt lat="48.53939" lon="1.97224">
        <ele>169</ele>
        <time>2022-07-12T11:12:16+02:00</time>
      </trkpt>
      <trkpt lat="48.5394" lon="1.9721">
        <ele>170</ele>
        <time>2022-07-12T11:12:25+02:00</time>
      </trkpt>
      <trkpt lat="48.53942" lon="1.97197">
        <ele>170</ele>
        <time>2022-07-12T11:12:34+02:00</time>
      </trkpt>
      <trkpt lat="48.53943" lon="1.97182">
        <ele>171</ele>
        <time>2022-07-12T11:12:40+02:00</time>
      </trkpt>
      <trkpt lat="48.53947" lon="1.97168">
        <ele>170</ele>
        <time>2022-07-12T11:12:47+02:00</time>
      </trkpt>
      <trkpt lat="48.5395" lon="1.97155">
        <ele>171</ele>
        <time>2022-07-12T11:12:54+02:00</time>
      </trkpt>
      <trkpt lat="48.53953" lon="1.97142">
        <ele>172</ele>
        <time>2022-07-12T11:13:02+02:00</time>
      </trkpt>
      <trkpt lat="48.53955" lon="1.97129">
        <ele>172</ele>
        <time>2022-07-12T11:13:09+02:00</time>
      </trkpt>
      <trkpt lat="48.5396" lon="1.97116">
        <ele>172</ele>
        <time>2022-07-12T11:13:17+02:00</time>
      </trkpt>
      <trkpt lat="48.53963" lon="1.97102">
        <ele>172</ele>
        <time>2022-07-12T11:13:24+02:00</time>
      </trkpt>
      <trkpt lat="48.53965" lon="1.97088">
        <ele>173</ele>
        <time>2022-07-12T11:13:32+02:00</time>
      </trkpt>
      <trkpt lat="48.53968" lon="1.97073">
        <ele>173</ele>
        <time>2022-07-12T11:13:40+02:00</time>
      </trkpt>
      <trkpt lat="48.53971" lon="1.97061">
        <ele>174</ele>
        <time>2022-07-12T11:13:47+02:00</time>
      </trkpt>
      <trkpt lat="48.53971" lon="1.97046">
        <ele>176</ele>
        <time>2022-07-12T11:13:56+02:00</time>
      </trkpt>
      <trkpt lat="48.53972" lon="1.97031">
        <ele>179</ele>
        <time>2022-07-12T11:14:05+02:00</time>
      </trkpt>
      <trkpt lat="48.53973" lon="1.97016">
        <ele>181</ele>
        <time>2022-07-12T11:14:13+02:00</time>
      </trkpt>
      <trkpt lat="48.53976" lon="1.97003">
        <ele>181</ele>
        <time>2022-07-12T11:14:20+02:00</time>
      </trkpt>
      <trkpt lat="48.5398" lon="1.9699">
        <ele>181</ele>
        <time>2022-07-12T11:14:27+02:00</time>
      </trkpt>
      <trkpt lat="48.53981" lon="1.96975">
        <ele>181</ele>
        <time>2022-07-12T11:14:34+02:00</time>
      </trkpt>
      <trkpt lat="48.5398" lon="1.96961">
        <ele>182</ele>
        <time>2022-07-12T11:14:41+02:00</time>
      </trkpt>
      <trkpt lat="48.5398" lon="1.96946">
        <ele>184</ele>
        <time>2022-07-12T11:14:50+02:00</time>
      </trkpt>
      <trkpt lat="48.53983" lon="1.96931">
        <ele>183</ele>
        <time>2022-07-12T11:15:01+02:00</time>
      </trkpt>
      <trkpt lat="48.53988" lon="1.96915">
        <ele>164</ele>
        <time>2022-07-12T11:16:16+02:00</time>
      </trkpt>
      <trkpt lat="48.53986" lon="1.96901">
        <ele>163</ele>
        <time>2022-07-12T11:16:28+02:00</time>
      </trkpt>
      <trkpt lat="48.53985" lon="1.96888">
        <ele>163</ele>
        <time>2022-07-12T11:16:39+02:00</time>
      </trkpt>
      <trkpt lat="48.53985" lon="1.96872">
        <ele>166</ele>
        <time>2022-07-12T11:16:47+02:00</time>
      </trkpt>
      <trkpt lat="48.53985" lon="1.96858">
        <ele>169</ele>
        <time>2022-07-12T11:16:55+02:00</time>
      </trkpt>
      <trkpt lat="48.53984" lon="1.96843">
        <ele>170</ele>
        <time>2022-07-12T11:17:04+02:00</time>
      </trkpt>
      <trkpt lat="48.53981" lon="1.9683">
        <ele>171</ele>
        <time>2022-07-12T11:17:12+02:00</time>
      </trkpt>
      <trkpt lat="48.5398" lon="1.96816">
        <ele>170</ele>
        <time>2022-07-12T11:17:21+02:00</time>
      </trkpt>
      <trkpt lat="48.53982" lon="1.96801">
        <ele>171</ele>
        <time>2022-07-12T11:17:28+02:00</time>
      </trkpt>
      <trkpt lat="48.53982" lon="1.96787">
        <ele>172</ele>
        <time>2022-07-12T11:17:36+02:00</time>
      </trkpt>
      <trkpt lat="48.53984" lon="1.96772">
        <ele>172</ele>
        <time>2022-07-12T11:17:44+02:00</time>
      </trkpt>
      <trkpt lat="48.53984" lon="1.96757">
        <ele>174</ele>
        <time>2022-07-12T11:17:52+02:00</time>
      </trkpt>
      <trkpt lat="48.53985" lon="1.96743">
        <ele>175</ele>
        <time>2022-07-12T11:18:02+02:00</time>
      </trkpt>
      <trkpt lat="48.53987" lon="1.96729">
        <ele>175</ele>
        <time>2022-07-12T11:18:12+02:00</time>
      </trkpt>
      <trkpt lat="48.53989" lon="1.96715">
        <ele>176</ele>
        <time>2022-07-12T11:18:21+02:00</time>
      </trkpt>
      <trkpt lat="48.53991" lon="1.96702">
        <ele>178</ele>
        <time>2022-07-12T11:18:29+02:00</time>
      </trkpt>
      <trkpt lat="48.53992" lon="1.96688">
        <ele>181</ele>
        <time>2022-07-12T11:18:37+02:00</time>
      </trkpt>
      <trkpt lat="48.53992" lon="1.96674">
        <ele>182</ele>
        <time>2022-07-12T11:18:45+02:00</time>
      </trkpt>
      <trkpt lat="48.53992" lon="1.96658">
        <ele>183</ele>
        <time>2022-07-12T11:18:53+02:00</time>
      </trkpt>
      <trkpt lat="48.53991" lon="1.96643">
        <ele>183</ele>
        <time>2022-07-12T11:19:01+02:00</time>
      </trkpt>
      <trkpt lat="48.53992" lon="1.96629">
        <ele>181</ele>
        <time>2022-07-12T11:19:09+02:00</time>
      </trkpt>
      <trkpt lat="48.53991" lon="1.96614">
        <ele>180</ele>
        <time>2022-07-12T11:19:17+02:00</time>
      </trkpt>
      <trkpt lat="48.53989" lon="1.966">
        <ele>180</ele>
        <time>2022-07-12T11:19:25+02:00</time>
      </trkpt>
      <trkpt lat="48.53988" lon="1.96585">
        <ele>179</ele>
        <time>2022-07-12T11:19:34+02:00</time>
      </trkpt>
      <trkpt lat="48.53987" lon="1.9657">
        <ele>178</ele>
        <time>2022-07-12T11:19:42+02:00</time>
      </trkpt>
      <trkpt lat="48.53986" lon="1.96556">
        <ele>179</ele>
        <time>2022-07-12T11:19:50+02:00</time>
      </trkpt>
      <trkpt lat="48.53986" lon="1.96541">
        <ele>179</ele>
        <time>2022-07-12T11:19:58+02:00</time>
      </trkpt>
      <trkpt lat="48.53986" lon="1.96526">
        <ele>176</ele>
        <time>2022-07-12T11:20:07+02:00</time>
      </trkpt>
      <trkpt lat="48.53987" lon="1.96512">
        <ele>175</ele>
        <time>2022-07-12T11:20:16+02:00</time>
      </trkpt>
      <trkpt lat="48.53988" lon="1.96497">
        <ele>175</ele>
        <time>2022-07-12T11:20:23+02:00</time>
      </trkpt>
      <trkpt lat="48.53991" lon="1.96482">
        <ele>176</ele>
        <time>2022-07-12T11:20:34+02:00</time>
      </trkpt>
      <trkpt lat="48.53993" lon="1.96469">
        <ele>177</ele>
        <time>2022-07-12T11:20:43+02:00</time>
      </trkpt>
      <trkpt lat="48.53995" lon="1.96455">
        <ele>177</ele>
        <time>2022-07-12T11:20:52+02:00</time>
      </trkpt>
      <trkpt lat="48.53999" lon="1.96443">
        <ele>176</ele>
        <time>2022-07-12T11:20:58+02:00</time>
      </trkpt>
      <trkpt lat="48.54003" lon="1.9643">
        <ele>176</ele>
        <time>2022-07-12T11:21:06+02:00</time>
      </trkpt>
      <trkpt lat="48.54008" lon="1.96417">
        <ele>176</ele>
        <time>2022-07-12T11:21:15+02:00</time>
      </trkpt>
      <trkpt lat="48.54013" lon="1.96406">
        <ele>176</ele>
        <time>2022-07-12T11:21:23+02:00</time>
      </trkpt>
      <trkpt lat="48.54018" lon="1.96394">
        <ele>177</ele>
        <time>2022-07-12T11:21:31+02:00</time>
      </trkpt>
      <trkpt lat="48.54022" lon="1.96382">
        <ele>176</ele>
        <time>2022-07-12T11:21:39+02:00</time>
      </trkpt>
      <trkpt lat="48.54026" lon="1.96368">
        <ele>176</ele>
        <time>2022-07-12T11:21:47+02:00</time>
      </trkpt>
      <trkpt lat="48.54029" lon="1.96355">
        <ele>175</ele>
        <time>2022-07-12T11:21:55+02:00</time>
      </trkpt>
      <trkpt lat="48.54035" lon="1.96344">
        <ele>174</ele>
        <time>2022-07-12T11:22:01+02:00</time>
      </trkpt>
      <trkpt lat="48.5404" lon="1.96332">
        <ele>173</ele>
        <time>2022-07-12T11:22:08+02:00</time>
      </trkpt>
      <trkpt lat="48.54044" lon="1.96317">
        <ele>172</ele>
        <time>2022-07-12T11:22:16+02:00</time>
      </trkpt>
      <trkpt lat="48.54046" lon="1.96302">
        <ele>173</ele>
        <time>2022-07-12T11:22:23+02:00</time>
      </trkpt>
      <trkpt lat="48.5405" lon="1.96288">
        <ele>174</ele>
        <time>2022-07-12T11:22:30+02:00</time>
      </trkpt>
      <trkpt lat="48.54051" lon="1.96274">
        <ele>175</ele>
        <time>2022-07-12T11:22:37+02:00</time>
      </trkpt>
      <trkpt lat="48.54054" lon="1.9626">
        <ele>176</ele>
        <time>2022-07-12T11:22:46+02:00</time>
      </trkpt>
      <trkpt lat="48.54056" lon="1.96246">
        <ele>177</ele>
        <time>2022-07-12T11:22:56+02:00</time>
      </trkpt>
      <trkpt lat="48.54058" lon="1.9623">
        <ele>177</ele>
        <time>2022-07-12T11:23:05+02:00</time>
      </trkpt>
      <trkpt lat="48.54057" lon="1.96215">
        <ele>176</ele>
        <time>2022-07-12T11:23:12+02:00</time>
      </trkpt>
      <trkpt lat="48.54058" lon="1.96201">
        <ele>176</ele>
        <time>2022-07-12T11:23:18+02:00</time>
      </trkpt>
      <trkpt lat="48.54062" lon="1.96188">
        <ele>175</ele>
        <time>2022-07-12T11:23:24+02:00</time>
      </trkpt>
      <trkpt lat="48.54065" lon="1.96173">
        <ele>175</ele>
        <time>2022-07-12T11:23:32+02:00</time>
      </trkpt>
      <trkpt lat="48.54069" lon="1.96161">
        <ele>176</ele>
        <time>2022-07-12T11:23:40+02:00</time>
      </trkpt>
      <trkpt lat="48.5407" lon="1.96145">
        <ele>177</ele>
        <time>2022-07-12T11:23:48+02:00</time>
      </trkpt>
      <trkpt lat="48.54072" lon="1.96132">
        <ele>179</ele>
        <time>2022-07-12T11:23:56+02:00</time>
      </trkpt>
      <trkpt lat="48.54072" lon="1.96117">
        <ele>180</ele>
        <time>2022-07-12T11:24:07+02:00</time>
      </trkpt>
      <trkpt lat="48.54071" lon="1.96102">
        <ele>180</ele>
        <time>2022-07-12T11:24:17+02:00</time>
      </trkpt>
      <trkpt lat="48.54074" lon="1.96088">
        <ele>181</ele>
        <time>2022-07-12T11:24:25+02:00</time>
      </trkpt>
      <trkpt lat="48.54075" lon="1.96074">
        <ele>181</ele>
        <time>2022-07-12T11:24:33+02:00</time>
      </trkpt>
      <trkpt lat="48.54076" lon="1.96058">
        <ele>183</ele>
        <time>2022-07-12T11:24:42+02:00</time>
      </trkpt>
      <trkpt lat="48.5408" lon="1.96043">
        <ele>185</ele>
        <time>2022-07-12T11:24:50+02:00</time>
      </trkpt>
      <trkpt lat="48.54084" lon="1.96029">
        <ele>187</ele>
        <time>2022-07-12T11:24:59+02:00</time>
      </trkpt>
      <trkpt lat="48.54086" lon="1.96016">
        <ele>188</ele>
        <time>2022-07-12T11:25:07+02:00</time>
      </trkpt>
      <trkpt lat="48.5409" lon="1.96003">
        <ele>188</ele>
        <time>2022-07-12T11:25:15+02:00</time>
      </trkpt>
      <trkpt lat="48.54095" lon="1.95989">
        <ele>187</ele>
        <time>2022-07-12T11:25:22+02:00</time>
      </trkpt>
      <trkpt lat="48.54101" lon="1.95977">
        <ele>186</ele>
        <time>2022-07-12T11:25:28+02:00</time>
      </trkpt>
      <trkpt lat="48.54107" lon="1.95966">
        <ele>185</ele>
        <time>2022-07-12T11:25:35+02:00</time>
      </trkpt>
      <trkpt lat="48.54112" lon="1.95953">
        <ele>185</ele>
        <time>2022-07-12T11:25:45+02:00</time>
      </trkpt>
      <trkpt lat="48.54117" lon="1.95941">
        <ele>185</ele>
        <time>2022-07-12T11:25:52+02:00</time>
      </trkpt>
      <trkpt lat="48.54127" lon="1.95917">
        <ele>182</ele>
        <time>2022-07-12T11:26:06+02:00</time>
      </trkpt>
      <trkpt lat="48.54125" lon="1.95903">
        <ele>175</ele>
        <time>2022-07-12T11:26:16+02:00</time>
      </trkpt>
      <trkpt lat="48.54116" lon="1.95895">
        <ele>169</ele>
        <time>2022-07-12T11:26:25+02:00</time>
      </trkpt>
      <trkpt lat="48.54107" lon="1.95889">
        <ele>165</ele>
        <time>2022-07-12T11:26:31+02:00</time>
      </trkpt>
      <trkpt lat="48.54099" lon="1.95882">
        <ele>161</ele>
        <time>2022-07-12T11:26:39+02:00</time>
      </trkpt>
      <trkpt lat="48.5409" lon="1.95876">
        <ele>160</ele>
        <time>2022-07-12T11:26:45+02:00</time>
      </trkpt>
      <trkpt lat="48.54081" lon="1.95871">
        <ele>158</ele>
        <time>2022-07-12T11:26:53+02:00</time>
      </trkpt>
      <trkpt lat="48.54071" lon="1.95866">
        <ele>156</ele>
        <time>2022-07-12T11:27:02+02:00</time>
      </trkpt>
      <trkpt lat="48.54063" lon="1.95859">
        <ele>155</ele>
        <time>2022-07-12T11:27:08+02:00</time>
      </trkpt>
      <trkpt lat="48.54054" lon="1.95853">
        <ele>154</ele>
        <time>2022-07-12T11:27:15+02:00</time>
      </trkpt>
      <trkpt lat="48.54044" lon="1.95849">
        <ele>154</ele>
        <time>2022-07-12T11:27:24+02:00</time>
      </trkpt>
      <trkpt lat="48.54035" lon="1.95844">
        <ele>154</ele>
        <time>2022-07-12T11:27:33+02:00</time>
      </trkpt>
      <trkpt lat="48.54027" lon="1.95839">
        <ele>154</ele>
        <time>2022-07-12T11:27:39+02:00</time>
      </trkpt>
      <trkpt lat="48.54018" lon="1.95833">
        <ele>156</ele>
        <time>2022-07-12T11:27:47+02:00</time>
      </trkpt>
      <trkpt lat="48.54008" lon="1.95829">
        <ele>158</ele>
        <time>2022-07-12T11:27:55+02:00</time>
      </trkpt>
      <trkpt lat="48.53999" lon="1.95824">
        <ele>158</ele>
        <time>2022-07-12T11:28:02+02:00</time>
      </trkpt>
      <trkpt lat="48.53989" lon="1.95819">
        <ele>157</ele>
        <time>2022-07-12T11:28:10+02:00</time>
      </trkpt>
      <trkpt lat="48.5398" lon="1.95814">
        <ele>157</ele>
        <time>2022-07-12T11:28:17+02:00</time>
      </trkpt>
      <trkpt lat="48.53972" lon="1.95806">
        <ele>161</ele>
        <time>2022-07-12T11:28:27+02:00</time>
      </trkpt>
      <trkpt lat="48.53963" lon="1.95802">
        <ele>161</ele>
        <time>2022-07-12T11:28:33+02:00</time>
      </trkpt>
      <trkpt lat="48.53954" lon="1.95796">
        <ele>160</ele>
        <time>2022-07-12T11:28:39+02:00</time>
      </trkpt>
      <trkpt lat="48.53944" lon="1.95793">
        <ele>159</ele>
        <time>2022-07-12T11:28:46+02:00</time>
      </trkpt>
      <trkpt lat="48.53935" lon="1.95788">
        <ele>159</ele>
        <time>2022-07-12T11:28:54+02:00</time>
      </trkpt>
      <trkpt lat="48.53926" lon="1.95784">
        <ele>157</ele>
        <time>2022-07-12T11:29:01+02:00</time>
      </trkpt>
      <trkpt lat="48.53917" lon="1.95778">
        <ele>156</ele>
        <time>2022-07-12T11:29:09+02:00</time>
      </trkpt>
      <trkpt lat="48.53908" lon="1.95773">
        <ele>155</ele>
        <time>2022-07-12T11:29:16+02:00</time>
      </trkpt>
      <trkpt lat="48.53899" lon="1.95768">
        <ele>153</ele>
        <time>2022-07-12T11:29:23+02:00</time>
      </trkpt>
      <trkpt lat="48.5389" lon="1.95762">
        <ele>154</ele>
        <time>2022-07-12T11:29:32+02:00</time>
      </trkpt>
      <trkpt lat="48.5388" lon="1.95758">
        <ele>153</ele>
        <time>2022-07-12T11:29:40+02:00</time>
      </trkpt>
      <trkpt lat="48.53872" lon="1.95751">
        <ele>153</ele>
        <time>2022-07-12T11:29:47+02:00</time>
      </trkpt>
      <trkpt lat="48.53863" lon="1.95745">
        <ele>153</ele>
        <time>2022-07-12T11:29:56+02:00</time>
      </trkpt>
      <trkpt lat="48.5386" lon="1.95732">
        <ele>156</ele>
        <time>2022-07-12T11:30:12+02:00</time>
      </trkpt>
      <trkpt lat="48.53868" lon="1.95723">
        <ele>161</ele>
        <time>2022-07-12T11:30:22+02:00</time>
      </trkpt>
      <trkpt lat="48.53876" lon="1.95716">
        <ele>163</ele>
        <time>2022-07-12T11:30:31+02:00</time>
      </trkpt>
      <trkpt lat="48.53884" lon="1.95709">
        <ele>165</ele>
        <time>2022-07-12T11:30:38+02:00</time>
      </trkpt>
      <trkpt lat="48.53892" lon="1.957">
        <ele>165</ele>
        <time>2022-07-12T11:30:44+02:00</time>
      </trkpt>
      <trkpt lat="48.53901" lon="1.95693">
        <ele>167</ele>
        <time>2022-07-12T11:30:52+02:00</time>
      </trkpt>
      <trkpt lat="48.5391" lon="1.95688">
        <ele>168</ele>
        <time>2022-07-12T11:31:00+02:00</time>
      </trkpt>
      <trkpt lat="48.53917" lon="1.95678">
        <ele>170</ele>
        <time>2022-07-12T11:31:08+02:00</time>
      </trkpt>
      <trkpt lat="48.53925" lon="1.95669">
        <ele>170</ele>
        <time>2022-07-12T11:31:16+02:00</time>
      </trkpt>
      <trkpt lat="48.53931" lon="1.95658">
        <ele>170</ele>
        <time>2022-07-12T11:31:25+02:00</time>
      </trkpt>
      <trkpt lat="48.53938" lon="1.95646">
        <ele>171</ele>
        <time>2022-07-12T11:31:32+02:00</time>
      </trkpt>
      <trkpt lat="48.53945" lon="1.95639">
        <ele>170</ele>
        <time>2022-07-12T11:31:39+02:00</time>
      </trkpt>
      <trkpt lat="48.53951" lon="1.95627">
        <ele>170</ele>
        <time>2022-07-12T11:31:48+02:00</time>
      </trkpt>
      <trkpt lat="48.53958" lon="1.95617">
        <ele>170</ele>
        <time>2022-07-12T11:31:56+02:00</time>
      </trkpt>
      <trkpt lat="48.53965" lon="1.95607">
        <ele>170</ele>
        <time>2022-07-12T11:32:03+02:00</time>
      </trkpt>
      <trkpt lat="48.53972" lon="1.95596">
        <ele>170</ele>
        <time>2022-07-12T11:32:09+02:00</time>
      </trkpt>
      <trkpt lat="48.53978" lon="1.95585">
        <ele>171</ele>
        <time>2022-07-12T11:32:16+02:00</time>
      </trkpt>
      <trkpt lat="48.53986" lon="1.95575">
        <ele>170</ele>
        <time>2022-07-12T11:32:25+02:00</time>
      </trkpt>
      <trkpt lat="48.53993" lon="1.95567">
        <ele>168</ele>
        <time>2022-07-12T11:32:33+02:00</time>
      </trkpt>
      <trkpt lat="48.54002" lon="1.95559">
        <ele>167</ele>
        <time>2022-07-12T11:32:40+02:00</time>
      </trkpt>
      <trkpt lat="48.5401" lon="1.95552">
        <ele>165</ele>
        <time>2022-07-12T11:32:47+02:00</time>
      </trkpt>
      <trkpt lat="48.54018" lon="1.95545">
        <ele>164</ele>
        <time>2022-07-12T11:32:54+02:00</time>
      </trkpt>
      <trkpt lat="48.54026" lon="1.95538">
        <ele>164</ele>
        <time>2022-07-12T11:33:00+02:00</time>
      </trkpt>
      <trkpt lat="48.54035" lon="1.95532">
        <ele>164</ele>
        <time>2022-07-12T11:33:08+02:00</time>
      </trkpt>
      <trkpt lat="48.54042" lon="1.95523">
        <ele>164</ele>
        <time>2022-07-12T11:33:15+02:00</time>
      </trkpt>
      <trkpt lat="48.54048" lon="1.95513">
        <ele>166</ele>
        <time>2022-07-12T11:33:23+02:00</time>
      </trkpt>
      <trkpt lat="48.54054" lon="1.95502">
        <ele>167</ele>
        <time>2022-07-12T11:33:31+02:00</time>
      </trkpt>
      <trkpt lat="48.54061" lon="1.95491">
        <ele>167</ele>
        <time>2022-07-12T11:33:39+02:00</time>
      </trkpt>
      <trkpt lat="48.54068" lon="1.9548">
        <ele>166</ele>
        <time>2022-07-12T11:33:46+02:00</time>
      </trkpt>
      <trkpt lat="48.54074" lon="1.95469">
        <ele>166</ele>
        <time>2022-07-12T11:33:54+02:00</time>
      </trkpt>
      <trkpt lat="48.5408" lon="1.95457">
        <ele>165</ele>
        <time>2022-07-12T11:34:04+02:00</time>
      </trkpt>
      <trkpt lat="48.54087" lon="1.95447">
        <ele>164</ele>
        <time>2022-07-12T11:34:11+02:00</time>
      </trkpt>
      <trkpt lat="48.54093" lon="1.95435">
        <ele>162</ele>
        <time>2022-07-12T11:34:19+02:00</time>
      </trkpt>
      <trkpt lat="48.541" lon="1.95424">
        <ele>162</ele>
        <time>2022-07-12T11:34:25+02:00</time>
      </trkpt>
      <trkpt lat="48.54107" lon="1.95414">
        <ele>161</ele>
        <time>2022-07-12T11:34:32+02:00</time>
      </trkpt>
      <trkpt lat="48.54113" lon="1.95401">
        <ele>160</ele>
        <time>2022-07-12T11:34:39+02:00</time>
      </trkpt>
      <trkpt lat="48.54122" lon="1.95395">
        <ele>157</ele>
        <time>2022-07-12T11:34:47+02:00</time>
      </trkpt>
      <trkpt lat="48.54127" lon="1.95384">
        <ele>156</ele>
        <time>2022-07-12T11:34:56+02:00</time>
      </trkpt>
      <trkpt lat="48.54132" lon="1.95371">
        <ele>156</ele>
        <time>2022-07-12T11:35:06+02:00</time>
      </trkpt>
      <trkpt lat="48.54137" lon="1.95359">
        <ele>157</ele>
        <time>2022-07-12T11:35:14+02:00</time>
      </trkpt>
      <trkpt lat="48.54143" lon="1.95348">
        <ele>157</ele>
        <time>2022-07-12T11:35:23+02:00</time>
      </trkpt>
      <trkpt lat="48.54149" lon="1.95336">
        <ele>158</ele>
        <time>2022-07-12T11:35:30+02:00</time>
      </trkpt>
      <trkpt lat="48.54155" lon="1.95325">
        <ele>160</ele>
        <time>2022-07-12T11:35:37+02:00</time>
      </trkpt>
      <trkpt lat="48.54161" lon="1.95314">
        <ele>162</ele>
        <time>2022-07-12T11:35:44+02:00</time>
      </trkpt>
      <trkpt lat="48.54167" lon="1.95302">
        <ele>162</ele>
        <time>2022-07-12T11:35:53+02:00</time>
      </trkpt>
      <trkpt lat="48.54174" lon="1.95291">
        <ele>164</ele>
        <time>2022-07-12T11:36:01+02:00</time>
      </trkpt>
      <trkpt lat="48.54179" lon="1.95278">
        <ele>164</ele>
        <time>2022-07-12T11:36:09+02:00</time>
      </trkpt>
      <trkpt lat="48.54187" lon="1.95267">
        <ele>163</ele>
        <time>2022-07-12T11:36:16+02:00</time>
      </trkpt>
      <trkpt lat="48.54194" lon="1.95259">
        <ele>163</ele>
        <time>2022-07-12T11:36:22+02:00</time>
      </trkpt>
      <trkpt lat="48.54201" lon="1.9525">
        <ele>164</ele>
        <time>2022-07-12T11:36:27+02:00</time>
      </trkpt>
      <trkpt lat="48.54208" lon="1.95239">
        <ele>165</ele>
        <time>2022-07-12T11:36:35+02:00</time>
      </trkpt>
      <trkpt lat="48.54216" lon="1.95232">
        <ele>166</ele>
        <time>2022-07-12T11:36:42+02:00</time>
      </trkpt>
      <trkpt lat="48.54224" lon="1.95225">
        <ele>168</ele>
        <time>2022-07-12T11:36:50+02:00</time>
      </trkpt>
      <trkpt lat="48.54233" lon="1.95217">
        <ele>170</ele>
        <time>2022-07-12T11:36:58+02:00</time>
      </trkpt>
      <trkpt lat="48.54241" lon="1.95208">
        <ele>171</ele>
        <time>2022-07-12T11:37:04+02:00</time>
      </trkpt>
      <trkpt lat="48.54247" lon="1.95198">
        <ele>173</ele>
        <time>2022-07-12T11:37:11+02:00</time>
      </trkpt>
      <trkpt lat="48.54256" lon="1.9519">
        <ele>177</ele>
        <time>2022-07-12T11:37:19+02:00</time>
      </trkpt>
      <trkpt lat="48.54265" lon="1.95183">
        <ele>177</ele>
        <time>2022-07-12T11:37:27+02:00</time>
      </trkpt>
      <trkpt lat="48.54274" lon="1.95175">
        <ele>176</ele>
        <time>2022-07-12T11:37:34+02:00</time>
      </trkpt>
      <trkpt lat="48.54282" lon="1.95167">
        <ele>173</ele>
        <time>2022-07-12T11:37:42+02:00</time>
      </trkpt>
      <trkpt lat="48.5429" lon="1.9516">
        <ele>173</ele>
        <time>2022-07-12T11:37:52+02:00</time>
      </trkpt>
      <trkpt lat="48.54298" lon="1.95153">
        <ele>172</ele>
        <time>2022-07-12T11:37:58+02:00</time>
      </trkpt>
      <trkpt lat="48.54306" lon="1.95145">
        <ele>172</ele>
        <time>2022-07-12T11:38:05+02:00</time>
      </trkpt>
      <trkpt lat="48.54315" lon="1.95139">
        <ele>175</ele>
        <time>2022-07-12T11:38:12+02:00</time>
      </trkpt>
      <trkpt lat="48.54324" lon="1.95135">
        <ele>176</ele>
        <time>2022-07-12T11:38:20+02:00</time>
      </trkpt>
      <trkpt lat="48.54333" lon="1.95129">
        <ele>175</ele>
        <time>2022-07-12T11:38:27+02:00</time>
      </trkpt>
      <trkpt lat="48.54334" lon="1.95115">
        <ele>175</ele>
        <time>2022-07-12T11:38:42+02:00</time>
      </trkpt>
      <trkpt lat="48.54333" lon="1.95102">
        <ele>172</ele>
        <time>2022-07-12T11:38:51+02:00</time>
      </trkpt>
      <trkpt lat="48.54332" lon="1.95088">
        <ele>168</ele>
        <time>2022-07-12T11:38:59+02:00</time>
      </trkpt>
      <trkpt lat="48.54331" lon="1.95074">
        <ele>164</ele>
        <time>2022-07-12T11:39:07+02:00</time>
      </trkpt>
      <trkpt lat="48.54328" lon="1.95061">
        <ele>161</ele>
        <time>2022-07-12T11:39:15+02:00</time>
      </trkpt>
      <trkpt lat="48.54324" lon="1.95047">
        <ele>158</ele>
        <time>2022-07-12T11:39:23+02:00</time>
      </trkpt>
      <trkpt lat="48.54325" lon="1.95033">
        <ele>156</ele>
        <time>2022-07-12T11:39:30+02:00</time>
      </trkpt>
      <trkpt lat="48.54323" lon="1.9502">
        <ele>154</ele>
        <time>2022-07-12T11:39:37+02:00</time>
      </trkpt>
      <trkpt lat="48.54321" lon="1.95006">
        <ele>153</ele>
        <time>2022-07-12T11:39:46+02:00</time>
      </trkpt>
      <trkpt lat="48.54317" lon="1.94992">
        <ele>150</ele>
        <time>2022-07-12T11:39:56+02:00</time>
      </trkpt>
      <trkpt lat="48.54315" lon="1.94978">
        <ele>146</ele>
        <time>2022-07-12T11:40:05+02:00</time>
      </trkpt>
      <trkpt lat="48.54314" lon="1.94963">
        <ele>143</ele>
        <time>2022-07-12T11:40:12+02:00</time>
      </trkpt>
      <trkpt lat="48.54308" lon="1.94952">
        <ele>140</ele>
        <time>2022-07-12T11:40:21+02:00</time>
      </trkpt>
      <trkpt lat="48.54299" lon="1.94952">
        <ele>140</ele>
        <time>2022-07-12T11:40:35+02:00</time>
      </trkpt>
      <trkpt lat="48.5429" lon="1.94955">
        <ele>139</ele>
        <time>2022-07-12T11:40:45+02:00</time>
      </trkpt>
      <trkpt lat="48.5428" lon="1.94957">
        <ele>138</ele>
        <time>2022-07-12T11:40:53+02:00</time>
      </trkpt>
      <trkpt lat="48.54271" lon="1.94961">
        <ele>136</ele>
        <time>2022-07-12T11:41:02+02:00</time>
      </trkpt>
      <trkpt lat="48.54262" lon="1.9496">
        <ele>137</ele>
        <time>2022-07-12T11:41:11+02:00</time>
      </trkpt>
      <trkpt lat="48.54252" lon="1.94957">
        <ele>137</ele>
        <time>2022-07-12T11:41:18+02:00</time>
      </trkpt>
      <trkpt lat="48.54243" lon="1.94958">
        <ele>137</ele>
        <time>2022-07-12T11:41:25+02:00</time>
      </trkpt>
      <trkpt lat="48.54234" lon="1.94957">
        <ele>137</ele>
        <time>2022-07-12T11:41:31+02:00</time>
      </trkpt>
      <trkpt lat="48.54224" lon="1.94953">
        <ele>136</ele>
        <time>2022-07-12T11:41:37+02:00</time>
      </trkpt>
      <trkpt lat="48.54214" lon="1.94951">
        <ele>136</ele>
        <time>2022-07-12T11:41:43+02:00</time>
      </trkpt>
      <trkpt lat="48.54204" lon="1.9495">
        <ele>133</ele>
        <time>2022-07-12T11:41:52+02:00</time>
      </trkpt>
      <trkpt lat="48.54195" lon="1.94948">
        <ele>132</ele>
        <time>2022-07-12T11:42:00+02:00</time>
      </trkpt>
      <trkpt lat="48.54186" lon="1.94943">
        <ele>131</ele>
        <time>2022-07-12T11:42:09+02:00</time>
      </trkpt>
      <trkpt lat="48.54176" lon="1.94942">
        <ele>129</ele>
        <time>2022-07-12T11:42:17+02:00</time>
      </trkpt>
      <trkpt lat="48.54167" lon="1.94939">
        <ele>125</ele>
        <time>2022-07-12T11:42:27+02:00</time>
      </trkpt>
      <trkpt lat="48.54157" lon="1.9494">
        <ele>126</ele>
        <time>2022-07-12T11:42:34+02:00</time>
      </trkpt>
      <trkpt lat="48.54148" lon="1.94939">
        <ele>129</ele>
        <time>2022-07-12T11:42:41+02:00</time>
      </trkpt>
      <trkpt lat="48.54139" lon="1.94938">
        <ele>131</ele>
        <time>2022-07-12T11:42:52+02:00</time>
      </trkpt>
      <trkpt lat="48.5413" lon="1.94936">
        <ele>130</ele>
        <time>2022-07-12T11:43:02+02:00</time>
      </trkpt>
      <trkpt lat="48.5412" lon="1.94936">
        <ele>130</ele>
        <time>2022-07-12T11:43:11+02:00</time>
      </trkpt>
      <trkpt lat="48.54111" lon="1.94937">
        <ele>131</ele>
        <time>2022-07-12T11:43:20+02:00</time>
      </trkpt>
      <trkpt lat="48.54101" lon="1.94939">
        <ele>132</ele>
        <time>2022-07-12T11:43:26+02:00</time>
      </trkpt>
      <trkpt lat="48.54092" lon="1.94939">
        <ele>132</ele>
        <time>2022-07-12T11:43:39+02:00</time>
      </trkpt>
      <trkpt lat="48.54084" lon="1.94945">
        <ele>132</ele>
        <time>2022-07-12T11:43:51+02:00</time>
      </trkpt>
      <trkpt lat="48.54075" lon="1.94952">
        <ele>131</ele>
        <time>2022-07-12T11:44:00+02:00</time>
      </trkpt>
      <trkpt lat="48.54071" lon="1.94965">
        <ele>133</ele>
        <time>2022-07-12T11:44:10+02:00</time>
      </trkpt>
      <trkpt lat="48.54068" lon="1.94979">
        <ele>133</ele>
        <time>2022-07-12T11:44:17+02:00</time>
      </trkpt>
      <trkpt lat="48.54062" lon="1.94991">
        <ele>135</ele>
        <time>2022-07-12T11:44:25+02:00</time>
      </trkpt>
      <trkpt lat="48.5406" lon="1.95004">
        <ele>136</ele>
        <time>2022-07-12T11:44:33+02:00</time>
      </trkpt>
      <trkpt lat="48.54058" lon="1.95018">
        <ele>137</ele>
        <time>2022-07-12T11:44:43+02:00</time>
      </trkpt>
      <trkpt lat="48.54061" lon="1.95032">
        <ele>139</ele>
        <time>2022-07-12T11:44:53+02:00</time>
      </trkpt>
      <trkpt lat="48.54065" lon="1.95046">
        <ele>139</ele>
        <time>2022-07-12T11:45:01+02:00</time>
      </trkpt>
      <trkpt lat="48.54065" lon="1.95061">
        <ele>140</ele>
        <time>2022-07-12T11:45:09+02:00</time>
      </trkpt>
      <trkpt lat="48.54066" lon="1.95075">
        <ele>140</ele>
        <time>2022-07-12T11:45:14+02:00</time>
      </trkpt>
      <trkpt lat="48.54066" lon="1.9509">
        <ele>140</ele>
        <time>2022-07-12T11:45:19+02:00</time>
      </trkpt>
      <trkpt lat="48.5406" lon="1.95101">
        <ele>142</ele>
        <time>2022-07-12T11:45:27+02:00</time>
      </trkpt>
      <trkpt lat="48.5405" lon="1.95104">
        <ele>144</ele>
        <time>2022-07-12T11:45:34+02:00</time>
      </trkpt>
      <trkpt lat="48.54041" lon="1.95109">
        <ele>147</ele>
        <time>2022-07-12T11:45:42+02:00</time>
      </trkpt>
      <trkpt lat="48.54039" lon="1.95123">
        <ele>146</ele>
        <time>2022-07-12T11:45:48+02:00</time>
      </trkpt>
      <trkpt lat="48.54034" lon="1.95134">
        <ele>145</ele>
        <time>2022-07-12T11:45:54+02:00</time>
      </trkpt>
      <trkpt lat="48.54029" lon="1.95146">
        <ele>145</ele>
        <time>2022-07-12T11:46:02+02:00</time>
      </trkpt>
      <trkpt lat="48.54023" lon="1.95157">
        <ele>141</ele>
        <time>2022-07-12T11:46:13+02:00</time>
      </trkpt>
      <trkpt lat="48.54018" lon="1.95169">
        <ele>137</ele>
        <time>2022-07-12T11:46:21+02:00</time>
      </trkpt>
      <trkpt lat="48.54011" lon="1.95178">
        <ele>133</ele>
        <time>2022-07-12T11:46:28+02:00</time>
      </trkpt>
      <trkpt lat="48.54006" lon="1.9519">
        <ele>131</ele>
        <time>2022-07-12T11:46:34+02:00</time>
      </trkpt>
      <trkpt lat="48.54003" lon="1.95205">
        <ele>130</ele>
        <time>2022-07-12T11:46:42+02:00</time>
      </trkpt>
      <trkpt lat="48.53999" lon="1.95218">
        <ele>130</ele>
        <time>2022-07-12T11:46:48+02:00</time>
      </trkpt>
      <trkpt lat="48.53994" lon="1.9523">
        <ele>134</ele>
        <time>2022-07-12T11:46:58+02:00</time>
      </trkpt>
      <trkpt lat="48.53984" lon="1.95237">
        <ele>133</ele>
        <time>2022-07-12T11:47:07+02:00</time>
      </trkpt>
      <trkpt lat="48.53979" lon="1.95249">
        <ele>132</ele>
        <time>2022-07-12T11:47:13+02:00</time>
      </trkpt>
      <trkpt lat="48.5397" lon="1.95253">
        <ele>133</ele>
        <time>2022-07-12T11:47:21+02:00</time>
      </trkpt>
      <trkpt lat="48.53961" lon="1.95257">
        <ele>134</ele>
        <time>2022-07-12T11:47:33+02:00</time>
      </trkpt>
      <trkpt lat="48.53952" lon="1.95253">
        <ele>138</ele>
        <time>2022-07-12T11:47:43+02:00</time>
      </trkpt>
      <trkpt lat="48.53946" lon="1.9524">
        <ele>141</ele>
        <time>2022-07-12T11:47:53+02:00</time>
      </trkpt>
      <trkpt lat="48.53937" lon="1.95231">
        <ele>141</ele>
        <time>2022-07-12T11:47:59+02:00</time>
      </trkpt>
      <trkpt lat="48.53929" lon="1.95224">
        <ele>141</ele>
        <time>2022-07-12T11:48:04+02:00</time>
      </trkpt>
      <trkpt lat="48.5392" lon="1.95217">
        <ele>140</ele>
        <time>2022-07-12T11:48:11+02:00</time>
      </trkpt>
      <trkpt lat="48.53912" lon="1.95209">
        <ele>138</ele>
        <time>2022-07-12T11:48:19+02:00</time>
      </trkpt>
      <trkpt lat="48.53906" lon="1.95197">
        <ele>136</ele>
        <time>2022-07-12T11:48:28+02:00</time>
      </trkpt>
      <trkpt lat="48.53899" lon="1.95188">
        <ele>136</ele>
        <time>2022-07-12T11:48:34+02:00</time>
      </trkpt>
      <trkpt lat="48.53889" lon="1.95191">
        <ele>136</ele>
        <time>2022-07-12T11:48:49+02:00</time>
      </trkpt>
      <trkpt lat="48.5388" lon="1.95197">
        <ele>135</ele>
        <time>2022-07-12T11:48:56+02:00</time>
      </trkpt>
      <trkpt lat="48.53874" lon="1.95207">
        <ele>132</ele>
        <time>2022-07-12T11:49:05+02:00</time>
      </trkpt>
      <trkpt lat="48.53868" lon="1.95217">
        <ele>132</ele>
        <time>2022-07-12T11:49:15+02:00</time>
      </trkpt>
      <trkpt lat="48.5386" lon="1.95226">
        <ele>130</ele>
        <time>2022-07-12T11:49:25+02:00</time>
      </trkpt>
      <trkpt lat="48.53852" lon="1.95232">
        <ele>127</ele>
        <time>2022-07-12T11:49:41+02:00</time>
      </trkpt>
      <trkpt lat="48.53846" lon="1.95243">
        <ele>127</ele>
        <time>2022-07-12T11:49:54+02:00</time>
      </trkpt>
      <trkpt lat="48.53843" lon="1.95256">
        <ele>130</ele>
        <time>2022-07-12T11:50:04+02:00</time>
      </trkpt>
      <trkpt lat="48.5384" lon="1.9527">
        <ele>132</ele>
        <time>2022-07-12T11:50:12+02:00</time>
      </trkpt>
      <trkpt lat="48.53839" lon="1.95285">
        <ele>133</ele>
        <time>2022-07-12T11:50:20+02:00</time>
      </trkpt>
      <trkpt lat="48.53839" lon="1.95298">
        <ele>135</ele>
        <time>2022-07-12T11:50:26+02:00</time>
      </trkpt>
      <trkpt lat="48.5384" lon="1.95312">
        <ele>137</ele>
        <time>2022-07-12T11:50:32+02:00</time>
      </trkpt>
      <trkpt lat="48.53842" lon="1.95327">
        <ele>141</ele>
        <time>2022-07-12T11:50:46+02:00</time>
      </trkpt>
      <trkpt lat="48.53846" lon="1.95341">
        <ele>144</ele>
        <time>2022-07-12T11:50:54+02:00</time>
      </trkpt>
      <trkpt lat="48.53852" lon="1.95352">
        <ele>146</ele>
        <time>2022-07-12T11:51:04+02:00</time>
      </trkpt>
      <trkpt lat="48.53854" lon="1.95367">
        <ele>148</ele>
        <time>2022-07-12T11:51:14+02:00</time>
      </trkpt>
      <trkpt lat="48.53855" lon="1.95382">
        <ele>152</ele>
        <time>2022-07-12T11:51:22+02:00</time>
      </trkpt>
      <trkpt lat="48.53853" lon="1.95395">
        <ele>155</ele>
        <time>2022-07-12T11:51:34+02:00</time>
      </trkpt>
      <trkpt lat="48.53848" lon="1.95408">
        <ele>157</ele>
        <time>2022-07-12T11:51:42+02:00</time>
      </trkpt>
      <trkpt lat="48.53841" lon="1.95416">
        <ele>156</ele>
        <time>2022-07-12T11:51:54+02:00</time>
      </trkpt>
      <trkpt lat="48.53833" lon="1.95424">
        <ele>156</ele>
        <time>2022-07-12T11:52:06+02:00</time>
      </trkpt>
      <trkpt lat="48.53824" lon="1.95428">
        <ele>156</ele>
        <time>2022-07-12T11:52:14+02:00</time>
      </trkpt>
      <trkpt lat="48.53815" lon="1.95432">
        <ele>155</ele>
        <time>2022-07-12T11:52:21+02:00</time>
      </trkpt>
      <trkpt lat="48.53805" lon="1.95434">
        <ele>156</ele>
        <time>2022-07-12T11:52:30+02:00</time>
      </trkpt>
      <trkpt lat="48.53796" lon="1.95436">
        <ele>155</ele>
        <time>2022-07-12T11:52:37+02:00</time>
      </trkpt>
      <trkpt lat="48.53788" lon="1.95444">
        <ele>153</ele>
        <time>2022-07-12T11:52:44+02:00</time>
      </trkpt>
      <trkpt lat="48.5378" lon="1.9545">
        <ele>151</ele>
        <time>2022-07-12T11:52:49+02:00</time>
      </trkpt>
      <trkpt lat="48.53775" lon="1.95461">
        <ele>150</ele>
        <time>2022-07-12T11:52:54+02:00</time>
      </trkpt>
      <trkpt lat="48.53767" lon="1.9547">
        <ele>149</ele>
        <time>2022-07-12T11:53:01+02:00</time>
      </trkpt>
      <trkpt lat="48.53762" lon="1.95482">
        <ele>148</ele>
        <time>2022-07-12T11:53:09+02:00</time>
      </trkpt>
      <trkpt lat="48.53757" lon="1.95494">
        <ele>145</ele>
        <time>2022-07-12T11:53:16+02:00</time>
      </trkpt>
      <trkpt lat="48.53752" lon="1.95506">
        <ele>143</ele>
        <time>2022-07-12T11:53:24+02:00</time>
      </trkpt>
      <trkpt lat="48.53746" lon="1.95517">
        <ele>144</ele>
        <time>2022-07-12T11:53:32+02:00</time>
      </trkpt>
      <trkpt lat="48.53744" lon="1.95531">
        <ele>145</ele>
        <time>2022-07-12T11:53:39+02:00</time>
      </trkpt>
      <trkpt lat="48.53739" lon="1.95544">
        <ele>146</ele>
        <time>2022-07-12T11:53:46+02:00</time>
      </trkpt>
      <trkpt lat="48.53735" lon="1.95557">
        <ele>147</ele>
        <time>2022-07-12T11:53:53+02:00</time>
      </trkpt>
      <trkpt lat="48.53734" lon="1.95571">
        <ele>144</ele>
        <time>2022-07-12T11:54:00+02:00</time>
      </trkpt>
      <trkpt lat="48.53731" lon="1.95585">
        <ele>141</ele>
        <time>2022-07-12T11:54:10+02:00</time>
      </trkpt>
      <trkpt lat="48.53729" lon="1.95598">
        <ele>139</ele>
        <time>2022-07-12T11:54:20+02:00</time>
      </trkpt>
      <trkpt lat="48.53727" lon="1.95612">
        <ele>142</ele>
        <time>2022-07-12T11:54:27+02:00</time>
      </trkpt>
      <trkpt lat="48.53725" lon="1.95627">
        <ele>143</ele>
        <time>2022-07-12T11:54:33+02:00</time>
      </trkpt>
      <trkpt lat="48.53724" lon="1.95641">
        <ele>142</ele>
        <time>2022-07-12T11:54:42+02:00</time>
      </trkpt>
      <trkpt lat="48.53726" lon="1.95654">
        <ele>141</ele>
        <time>2022-07-12T11:54:47+02:00</time>
      </trkpt>
      <trkpt lat="48.53725" lon="1.95668">
        <ele>142</ele>
        <time>2022-07-12T11:54:55+02:00</time>
      </trkpt>
      <trkpt lat="48.53726" lon="1.95683">
        <ele>143</ele>
        <time>2022-07-12T11:55:02+02:00</time>
      </trkpt>
      <trkpt lat="48.53721" lon="1.95696">
        <ele>146</ele>
        <time>2022-07-12T11:55:12+02:00</time>
      </trkpt>
      <trkpt lat="48.53714" lon="1.95707">
        <ele>149</ele>
        <time>2022-07-12T11:55:21+02:00</time>
      </trkpt>
      <trkpt lat="48.53707" lon="1.95718">
        <ele>152</ele>
        <time>2022-07-12T11:55:29+02:00</time>
      </trkpt>
      <trkpt lat="48.53698" lon="1.95721">
        <ele>153</ele>
        <time>2022-07-12T11:55:38+02:00</time>
      </trkpt>
      <trkpt lat="48.53689" lon="1.95727">
        <ele>154</ele>
        <time>2022-07-12T11:55:48+02:00</time>
      </trkpt>
      <trkpt lat="48.53681" lon="1.95734">
        <ele>153</ele>
        <time>2022-07-12T11:55:55+02:00</time>
      </trkpt>
      <trkpt lat="48.53672" lon="1.95738">
        <ele>152</ele>
        <time>2022-07-12T11:56:01+02:00</time>
      </trkpt>
      <trkpt lat="48.53662" lon="1.95742">
        <ele>151</ele>
        <time>2022-07-12T11:56:08+02:00</time>
      </trkpt>
      <trkpt lat="48.53657" lon="1.95755">
        <ele>150</ele>
        <time>2022-07-12T11:56:15+02:00</time>
      </trkpt>
      <trkpt lat="48.53655" lon="1.95769">
        <ele>149</ele>
        <time>2022-07-12T11:56:23+02:00</time>
      </trkpt>
      <trkpt lat="48.53648" lon="1.95779">
        <ele>147</ele>
        <time>2022-07-12T11:56:32+02:00</time>
      </trkpt>
      <trkpt lat="48.53641" lon="1.9579">
        <ele>148</ele>
        <time>2022-07-12T11:56:39+02:00</time>
      </trkpt>
      <trkpt lat="48.53637" lon="1.95803">
        <ele>147</ele>
        <time>2022-07-12T11:56:46+02:00</time>
      </trkpt>
      <trkpt lat="48.53633" lon="1.95816">
        <ele>147</ele>
        <time>2022-07-12T11:56:53+02:00</time>
      </trkpt>
      <trkpt lat="48.53631" lon="1.9583">
        <ele>148</ele>
        <time>2022-07-12T11:56:59+02:00</time>
      </trkpt>
      <trkpt lat="48.5363" lon="1.95845">
        <ele>149</ele>
        <time>2022-07-12T11:57:07+02:00</time>
      </trkpt>
      <trkpt lat="48.53627" lon="1.95859">
        <ele>150</ele>
        <time>2022-07-12T11:57:14+02:00</time>
      </trkpt>
      <trkpt lat="48.53625" lon="1.95872">
        <ele>151</ele>
        <time>2022-07-12T11:57:21+02:00</time>
      </trkpt>
      <trkpt lat="48.53618" lon="1.95881">
        <ele>152</ele>
        <time>2022-07-12T11:57:29+02:00</time>
      </trkpt>
      <trkpt lat="48.53613" lon="1.95892">
        <ele>154</ele>
        <time>2022-07-12T11:57:37+02:00</time>
      </trkpt>
      <trkpt lat="48.5361" lon="1.95908">
        <ele>156</ele>
        <time>2022-07-12T11:57:44+02:00</time>
      </trkpt>
      <trkpt lat="48.53607" lon="1.95922">
        <ele>157</ele>
        <time>2022-07-12T11:57:51+02:00</time>
      </trkpt>
      <trkpt lat="48.53601" lon="1.95934">
        <ele>157</ele>
        <time>2022-07-12T11:57:59+02:00</time>
      </trkpt>
      <trkpt lat="48.53596" lon="1.95944">
        <ele>156</ele>
        <time>2022-07-12T11:58:06+02:00</time>
      </trkpt>
      <trkpt lat="48.53592" lon="1.95958">
        <ele>155</ele>
        <time>2022-07-12T11:58:14+02:00</time>
      </trkpt>
      <trkpt lat="48.53586" lon="1.9597">
        <ele>153</ele>
        <time>2022-07-12T11:58:21+02:00</time>
      </trkpt>
      <trkpt lat="48.53581" lon="1.95983">
        <ele>152</ele>
        <time>2022-07-12T11:58:27+02:00</time>
      </trkpt>
      <trkpt lat="48.53575" lon="1.95993">
        <ele>150</ele>
        <time>2022-07-12T11:58:37+02:00</time>
      </trkpt>
      <trkpt lat="48.53571" lon="1.96006">
        <ele>149</ele>
        <time>2022-07-12T11:58:45+02:00</time>
      </trkpt>
      <trkpt lat="48.53565" lon="1.96016">
        <ele>148</ele>
        <time>2022-07-12T11:58:51+02:00</time>
      </trkpt>
      <trkpt lat="48.53559" lon="1.96027">
        <ele>148</ele>
        <time>2022-07-12T11:59:01+02:00</time>
      </trkpt>
      <trkpt lat="48.53551" lon="1.96034">
        <ele>145</ele>
        <time>2022-07-12T11:59:07+02:00</time>
      </trkpt>
      <trkpt lat="48.53544" lon="1.96044">
        <ele>142</ele>
        <time>2022-07-12T11:59:15+02:00</time>
      </trkpt>
      <trkpt lat="48.53536" lon="1.96054">
        <ele>140</ele>
        <time>2022-07-12T11:59:24+02:00</time>
      </trkpt>
      <trkpt lat="48.53528" lon="1.96064">
        <ele>139</ele>
        <time>2022-07-12T11:59:33+02:00</time>
      </trkpt>
      <trkpt lat="48.53521" lon="1.96073">
        <ele>140</ele>
        <time>2022-07-12T11:59:40+02:00</time>
      </trkpt>
      <trkpt lat="48.53514" lon="1.96082">
        <ele>140</ele>
        <time>2022-07-12T11:59:46+02:00</time>
      </trkpt>
      <trkpt lat="48.53507" lon="1.96091">
        <ele>143</ele>
        <time>2022-07-12T11:59:57+02:00</time>
      </trkpt>
      <trkpt lat="48.53506" lon="1.96105">
        <ele>144</ele>
        <time>2022-07-12T12:00:09+02:00</time>
      </trkpt>
      <trkpt lat="48.53507" lon="1.9612">
        <ele>145</ele>
        <time>2022-07-12T12:00:16+02:00</time>
      </trkpt>
      <trkpt lat="48.53506" lon="1.96135">
        <ele>147</ele>
        <time>2022-07-12T12:00:25+02:00</time>
      </trkpt>
      <trkpt lat="48.53505" lon="1.96149">
        <ele>147</ele>
        <time>2022-07-12T12:00:37+02:00</time>
      </trkpt>
      <trkpt lat="48.53507" lon="1.96162">
        <ele>148</ele>
        <time>2022-07-12T12:00:44+02:00</time>
      </trkpt>
      <trkpt lat="48.53506" lon="1.96177">
        <ele>149</ele>
        <time>2022-07-12T12:00:52+02:00</time>
      </trkpt>
      <trkpt lat="48.53504" lon="1.96191">
        <ele>150</ele>
        <time>2022-07-12T12:01:00+02:00</time>
      </trkpt>
      <trkpt lat="48.53504" lon="1.96207">
        <ele>149</ele>
        <time>2022-07-12T12:01:08+02:00</time>
      </trkpt>
      <trkpt lat="48.53501" lon="1.96221">
        <ele>149</ele>
        <time>2022-07-12T12:01:16+02:00</time>
      </trkpt>
      <trkpt lat="48.53499" lon="1.96234">
        <ele>148</ele>
        <time>2022-07-12T12:01:24+02:00</time>
      </trkpt>
      <trkpt lat="48.53495" lon="1.96248">
        <ele>147</ele>
        <time>2022-07-12T12:01:32+02:00</time>
      </trkpt>
      <trkpt lat="48.53492" lon="1.96262">
        <ele>146</ele>
        <time>2022-07-12T12:01:39+02:00</time>
      </trkpt>
      <trkpt lat="48.53488" lon="1.96275">
        <ele>144</ele>
        <time>2022-07-12T12:01:46+02:00</time>
      </trkpt>
      <trkpt lat="48.53482" lon="1.96287">
        <ele>141</ele>
        <time>2022-07-12T12:01:55+02:00</time>
      </trkpt>
      <trkpt lat="48.53477" lon="1.96299">
        <ele>141</ele>
        <time>2022-07-12T12:02:03+02:00</time>
      </trkpt>
      <trkpt lat="48.53472" lon="1.9631">
        <ele>142</ele>
        <time>2022-07-12T12:02:12+02:00</time>
      </trkpt>
      <trkpt lat="48.53466" lon="1.96321">
        <ele>142</ele>
        <time>2022-07-12T12:02:22+02:00</time>
      </trkpt>
      <trkpt lat="48.53462" lon="1.96335">
        <ele>144</ele>
        <time>2022-07-12T12:02:31+02:00</time>
      </trkpt>
      <trkpt lat="48.53458" lon="1.96348">
        <ele>145</ele>
        <time>2022-07-12T12:02:37+02:00</time>
      </trkpt>
      <trkpt lat="48.53453" lon="1.9636">
        <ele>145</ele>
        <time>2022-07-12T12:02:45+02:00</time>
      </trkpt>
      <trkpt lat="48.53449" lon="1.96373">
        <ele>146</ele>
        <time>2022-07-12T12:02:54+02:00</time>
      </trkpt>
      <trkpt lat="48.53447" lon="1.96386">
        <ele>144</ele>
        <time>2022-07-12T12:03:01+02:00</time>
      </trkpt>
      <trkpt lat="48.5344" lon="1.96397">
        <ele>142</ele>
        <time>2022-07-12T12:03:10+02:00</time>
      </trkpt>
      <trkpt lat="48.53432" lon="1.96408">
        <ele>142</ele>
        <time>2022-07-12T12:03:20+02:00</time>
      </trkpt>
      <trkpt lat="48.53425" lon="1.96417">
        <ele>143</ele>
        <time>2022-07-12T12:03:27+02:00</time>
      </trkpt>
      <trkpt lat="48.53419" lon="1.96429">
        <ele>143</ele>
        <time>2022-07-12T12:03:33+02:00</time>
      </trkpt>
      <trkpt lat="48.53415" lon="1.96442">
        <ele>144</ele>
        <time>2022-07-12T12:03:41+02:00</time>
      </trkpt>
      <trkpt lat="48.53409" lon="1.96453">
        <ele>143</ele>
        <time>2022-07-12T12:03:49+02:00</time>
      </trkpt>
      <trkpt lat="48.53406" lon="1.96466">
        <ele>143</ele>
        <time>2022-07-12T12:03:57+02:00</time>
      </trkpt>
      <trkpt lat="48.53405" lon="1.96481">
        <ele>143</ele>
        <time>2022-07-12T12:04:03+02:00</time>
      </trkpt>
      <trkpt lat="48.53401" lon="1.96494">
        <ele>143</ele>
        <time>2022-07-12T12:04:10+02:00</time>
      </trkpt>
      <trkpt lat="48.53396" lon="1.96507">
        <ele>143</ele>
        <time>2022-07-12T12:04:19+02:00</time>
      </trkpt>
      <trkpt lat="48.53392" lon="1.96521">
        <ele>144</ele>
        <time>2022-07-12T12:04:27+02:00</time>
      </trkpt>
      <trkpt lat="48.5339" lon="1.96535">
        <ele>145</ele>
        <time>2022-07-12T12:04:35+02:00</time>
      </trkpt>
      <trkpt lat="48.53387" lon="1.96548">
        <ele>144</ele>
        <time>2022-07-12T12:04:42+02:00</time>
      </trkpt>
      <trkpt lat="48.53381" lon="1.96561">
        <ele>145</ele>
        <time>2022-07-12T12:04:50+02:00</time>
      </trkpt>
      <trkpt lat="48.53378" lon="1.96575">
        <ele>144</ele>
        <time>2022-07-12T12:04:57+02:00</time>
      </trkpt>
      <trkpt lat="48.53375" lon="1.96588">
        <ele>143</ele>
        <time>2022-07-12T12:05:06+02:00</time>
      </trkpt>
      <trkpt lat="48.5337" lon="1.966">
        <ele>145</ele>
        <time>2022-07-12T12:05:14+02:00</time>
      </trkpt>
      <trkpt lat="48.53367" lon="1.96614">
        <ele>146</ele>
        <time>2022-07-12T12:05:21+02:00</time>
      </trkpt>
      <trkpt lat="48.53364" lon="1.96628">
        <ele>146</ele>
        <time>2022-07-12T12:05:29+02:00</time>
      </trkpt>
      <trkpt lat="48.53359" lon="1.96642">
        <ele>145</ele>
        <time>2022-07-12T12:05:38+02:00</time>
      </trkpt>
      <trkpt lat="48.53356" lon="1.96655">
        <ele>144</ele>
        <time>2022-07-12T12:05:47+02:00</time>
      </trkpt>
      <trkpt lat="48.53349" lon="1.96665">
        <ele>145</ele>
        <time>2022-07-12T12:05:55+02:00</time>
      </trkpt>
      <trkpt lat="48.53342" lon="1.96674">
        <ele>145</ele>
        <time>2022-07-12T12:06:02+02:00</time>
      </trkpt>
      <trkpt lat="48.53336" lon="1.96684">
        <ele>146</ele>
        <time>2022-07-12T12:06:10+02:00</time>
      </trkpt>
      <trkpt lat="48.53327" lon="1.96692">
        <ele>146</ele>
        <time>2022-07-12T12:06:17+02:00</time>
      </trkpt>
      <trkpt lat="48.53323" lon="1.96706">
        <ele>144</ele>
        <time>2022-07-12T12:06:24+02:00</time>
      </trkpt>
      <trkpt lat="48.53317" lon="1.96718">
        <ele>142</ele>
        <time>2022-07-12T12:06:31+02:00</time>
      </trkpt>
      <trkpt lat="48.53312" lon="1.9673">
        <ele>140</ele>
        <time>2022-07-12T12:06:39+02:00</time>
      </trkpt>
      <trkpt lat="48.53307" lon="1.96743">
        <ele>138</ele>
        <time>2022-07-12T12:06:47+02:00</time>
      </trkpt>
      <trkpt lat="48.53303" lon="1.96757">
        <ele>139</ele>
        <time>2022-07-12T12:06:57+02:00</time>
      </trkpt>
      <trkpt lat="48.53303" lon="1.9677">
        <ele>141</ele>
        <time>2022-07-12T12:07:06+02:00</time>
      </trkpt>
      <trkpt lat="48.53308" lon="1.96782">
        <ele>143</ele>
        <time>2022-07-12T12:07:13+02:00</time>
      </trkpt>
      <trkpt lat="48.53316" lon="1.96793">
        <ele>144</ele>
        <time>2022-07-12T12:07:19+02:00</time>
      </trkpt>
      <trkpt lat="48.53323" lon="1.96802">
        <ele>144</ele>
        <time>2022-07-12T12:07:26+02:00</time>
      </trkpt>
      <trkpt lat="48.53329" lon="1.96813">
        <ele>145</ele>
        <time>2022-07-12T12:07:41+02:00</time>
      </trkpt>
      <trkpt lat="48.53335" lon="1.96823">
        <ele>146</ele>
        <time>2022-07-12T12:07:54+02:00</time>
      </trkpt>
      <trkpt lat="48.53341" lon="1.96835">
        <ele>147</ele>
        <time>2022-07-12T12:08:02+02:00</time>
      </trkpt>
      <trkpt lat="48.53344" lon="1.96848">
        <ele>149</ele>
        <time>2022-07-12T12:08:12+02:00</time>
      </trkpt>
      <trkpt lat="48.53346" lon="1.96862">
        <ele>152</ele>
        <time>2022-07-12T12:08:23+02:00</time>
      </trkpt>
      <trkpt lat="48.53348" lon="1.96876">
        <ele>152</ele>
        <time>2022-07-12T12:08:30+02:00</time>
      </trkpt>
      <trkpt lat="48.53343" lon="1.96889">
        <ele>151</ele>
        <time>2022-07-12T12:08:38+02:00</time>
      </trkpt>
      <trkpt lat="48.53334" lon="1.96898">
        <ele>151</ele>
        <time>2022-07-12T12:08:47+02:00</time>
      </trkpt>
      <trkpt lat="48.53328" lon="1.96909">
        <ele>151</ele>
        <time>2022-07-12T12:08:54+02:00</time>
      </trkpt>
      <trkpt lat="48.53319" lon="1.96914">
        <ele>152</ele>
        <time>2022-07-12T12:09:01+02:00</time>
      </trkpt>
      <trkpt lat="48.5331" lon="1.96933">
        <ele>149</ele>
        <time>2022-07-12T12:09:23+02:00</time>
      </trkpt>
      <trkpt lat="48.53302" lon="1.96924">
        <ele>151</ele>
        <time>2022-07-12T12:09:39+02:00</time>
      </trkpt>
      <trkpt lat="48.53293" lon="1.96921">
        <ele>153</ele>
        <time>2022-07-12T12:09:49+02:00</time>
      </trkpt>
      <trkpt lat="48.53283" lon="1.9692">
        <ele>150</ele>
        <time>2022-07-12T12:09:58+02:00</time>
      </trkpt>
      <trkpt lat="48.53274" lon="1.96919">
        <ele>149</ele>
        <time>2022-07-12T12:10:04+02:00</time>
      </trkpt>
      <trkpt lat="48.53265" lon="1.96918">
        <ele>149</ele>
        <time>2022-07-12T12:10:14+02:00</time>
      </trkpt>
      <trkpt lat="48.53256" lon="1.96923">
        <ele>148</ele>
        <time>2022-07-12T12:10:21+02:00</time>
      </trkpt>
      <trkpt lat="48.53247" lon="1.96924">
        <ele>146</ele>
        <time>2022-07-12T12:10:26+02:00</time>
      </trkpt>
      <trkpt lat="48.53236" lon="1.96927">
        <ele>146</ele>
        <time>2022-07-12T12:10:31+02:00</time>
      </trkpt>
      <trkpt lat="48.53227" lon="1.96928">
        <ele>146</ele>
        <time>2022-07-12T12:10:37+02:00</time>
      </trkpt>
      <trkpt lat="48.53218" lon="1.96934">
        <ele>146</ele>
        <time>2022-07-12T12:10:45+02:00</time>
      </trkpt>
      <trkpt lat="48.53209" lon="1.96939">
        <ele>148</ele>
        <time>2022-07-12T12:10:53+02:00</time>
      </trkpt>
      <trkpt lat="48.532" lon="1.96937">
        <ele>149</ele>
        <time>2022-07-12T12:11:00+02:00</time>
      </trkpt>
      <trkpt lat="48.5319" lon="1.96935">
        <ele>149</ele>
        <time>2022-07-12T12:11:05+02:00</time>
      </trkpt>
      <trkpt lat="48.5318" lon="1.96932">
        <ele>147</ele>
        <time>2022-07-12T12:11:10+02:00</time>
      </trkpt>
      <trkpt lat="48.53172" lon="1.96925">
        <ele>145</ele>
        <time>2022-07-12T12:11:18+02:00</time>
      </trkpt>
      <trkpt lat="48.53163" lon="1.96919">
        <ele>142</ele>
        <time>2022-07-12T12:11:28+02:00</time>
      </trkpt>
      <trkpt lat="48.53156" lon="1.96911">
        <ele>138</ele>
        <time>2022-07-12T12:11:35+02:00</time>
      </trkpt>
      <trkpt lat="48.53148" lon="1.96903">
        <ele>136</ele>
        <time>2022-07-12T12:11:43+02:00</time>
      </trkpt>
      <trkpt lat="48.53139" lon="1.96898">
        <ele>132</ele>
        <time>2022-07-12T12:11:51+02:00</time>
      </trkpt>
      <trkpt lat="48.5313" lon="1.96891">
        <ele>131</ele>
        <time>2022-07-12T12:11:57+02:00</time>
      </trkpt>
      <trkpt lat="48.53122" lon="1.96886">
        <ele>129</ele>
        <time>2022-07-12T12:12:04+02:00</time>
      </trkpt>
      <trkpt lat="48.53114" lon="1.9688">
        <ele>127</ele>
        <time>2022-07-12T12:12:10+02:00</time>
      </trkpt>
      <trkpt lat="48.53106" lon="1.9687">
        <ele>124</ele>
        <time>2022-07-12T12:12:18+02:00</time>
      </trkpt>
      <trkpt lat="48.531" lon="1.96859">
        <ele>124</ele>
        <time>2022-07-12T12:12:28+02:00</time>
      </trkpt>
      <trkpt lat="48.53095" lon="1.96846">
        <ele>127</ele>
        <time>2022-07-12T12:12:37+02:00</time>
      </trkpt>
      <trkpt lat="48.53092" lon="1.96832">
        <ele>127</ele>
        <time>2022-07-12T12:12:44+02:00</time>
      </trkpt>
      <trkpt lat="48.53094" lon="1.96817">
        <ele>124</ele>
        <time>2022-07-12T12:13:01+02:00</time>
      </trkpt>
      <trkpt lat="48.53097" lon="1.96803">
        <ele>121</ele>
        <time>2022-07-12T12:13:07+02:00</time>
      </trkpt>
      <trkpt lat="48.53101" lon="1.9679">
        <ele>120</ele>
        <time>2022-07-12T12:13:14+02:00</time>
      </trkpt>
      <trkpt lat="48.53106" lon="1.96777">
        <ele>117</ele>
        <time>2022-07-12T12:13:22+02:00</time>
      </trkpt>
      <trkpt lat="48.53107" lon="1.96763">
        <ele>115</ele>
        <time>2022-07-12T12:13:32+02:00</time>
      </trkpt>
      <trkpt lat="48.53109" lon="1.96747">
        <ele>116</ele>
        <time>2022-07-12T12:13:41+02:00</time>
      </trkpt>
      <trkpt lat="48.53107" lon="1.96734">
        <ele>114</ele>
        <time>2022-07-12T12:13:51+02:00</time>
      </trkpt>
      <trkpt lat="48.53101" lon="1.96724">
        <ele>115</ele>
        <time>2022-07-12T12:14:00+02:00</time>
      </trkpt>
      <trkpt lat="48.53099" lon="1.9671">
        <ele>116</ele>
        <time>2022-07-12T12:14:05+02:00</time>
      </trkpt>
      <trkpt lat="48.53095" lon="1.96697">
        <ele>116</ele>
        <time>2022-07-12T12:14:12+02:00</time>
      </trkpt>
      <trkpt lat="48.53091" lon="1.96684">
        <ele>116</ele>
        <time>2022-07-12T12:14:20+02:00</time>
      </trkpt>
      <trkpt lat="48.53091" lon="1.9667">
        <ele>117</ele>
        <time>2022-07-12T12:14:29+02:00</time>
      </trkpt>
      <trkpt lat="48.53084" lon="1.96661">
        <ele>117</ele>
        <time>2022-07-12T12:14:35+02:00</time>
      </trkpt>
      <trkpt lat="48.53083" lon="1.96646">
        <ele>119</ele>
        <time>2022-07-12T12:14:43+02:00</time>
      </trkpt>
      <trkpt lat="48.53082" lon="1.96631">
        <ele>118</ele>
        <time>2022-07-12T12:14:51+02:00</time>
      </trkpt>
      <trkpt lat="48.53082" lon="1.96616">
        <ele>119</ele>
        <time>2022-07-12T12:14:59+02:00</time>
      </trkpt>
      <trkpt lat="48.53077" lon="1.96604">
        <ele>118</ele>
        <time>2022-07-12T12:15:06+02:00</time>
      </trkpt>
      <trkpt lat="48.53074" lon="1.96591">
        <ele>117</ele>
        <time>2022-07-12T12:15:12+02:00</time>
      </trkpt>
      <trkpt lat="48.53069" lon="1.96579">
        <ele>113</ele>
        <time>2022-07-12T12:15:19+02:00</time>
      </trkpt>
      <trkpt lat="48.53065" lon="1.96566">
        <ele>112</ele>
        <time>2022-07-12T12:15:25+02:00</time>
      </trkpt>
      <trkpt lat="48.53062" lon="1.96553">
        <ele>108</ele>
        <time>2022-07-12T12:15:33+02:00</time>
      </trkpt>
      <trkpt lat="48.53065" lon="1.96539">
        <ele>109</ele>
        <time>2022-07-12T12:15:40+02:00</time>
      </trkpt>
      <trkpt lat="48.53067" lon="1.96525">
        <ele>110</ele>
        <time>2022-07-12T12:15:48+02:00</time>
      </trkpt>
      <trkpt lat="48.53065" lon="1.96511">
        <ele>111</ele>
        <time>2022-07-12T12:15:55+02:00</time>
      </trkpt>
      <trkpt lat="48.53067" lon="1.96497">
        <ele>112</ele>
        <time>2022-07-12T12:16:03+02:00</time>
      </trkpt>
      <trkpt lat="48.53067" lon="1.96482">
        <ele>111</ele>
        <time>2022-07-12T12:16:10+02:00</time>
      </trkpt>
      <trkpt lat="48.5306" lon="1.9647">
        <ele>113</ele>
        <time>2022-07-12T12:16:17+02:00</time>
      </trkpt>
      <trkpt lat="48.53052" lon="1.96462">
        <ele>112</ele>
        <time>2022-07-12T12:16:23+02:00</time>
      </trkpt>
      <trkpt lat="48.53044" lon="1.96457">
        <ele>112</ele>
        <time>2022-07-12T12:16:30+02:00</time>
      </trkpt>
      <trkpt lat="48.53039" lon="1.96444">
        <ele>112</ele>
        <time>2022-07-12T12:16:38+02:00</time>
      </trkpt>
      <trkpt lat="48.53032" lon="1.96432">
        <ele>109</ele>
        <time>2022-07-12T12:16:45+02:00</time>
      </trkpt>
      <trkpt lat="48.53026" lon="1.9642">
        <ele>106</ele>
        <time>2022-07-12T12:16:51+02:00</time>
      </trkpt>
      <trkpt lat="48.53023" lon="1.96406">
        <ele>106</ele>
        <time>2022-07-12T12:16:58+02:00</time>
      </trkpt>
      <trkpt lat="48.53025" lon="1.96392">
        <ele>104</ele>
        <time>2022-07-12T12:17:07+02:00</time>
      </trkpt>
      <trkpt lat="48.53026" lon="1.96378">
        <ele>104</ele>
        <time>2022-07-12T12:17:14+02:00</time>
      </trkpt>
      <trkpt lat="48.53028" lon="1.96363">
        <ele>104</ele>
        <time>2022-07-12T12:17:20+02:00</time>
      </trkpt>
      <trkpt lat="48.5303" lon="1.96348">
        <ele>103</ele>
        <time>2022-07-12T12:17:28+02:00</time>
      </trkpt>
      <trkpt lat="48.53034" lon="1.96333">
        <ele>101</ele>
        <time>2022-07-12T12:17:35+02:00</time>
      </trkpt>
      <trkpt lat="48.53036" lon="1.96319">
        <ele>102</ele>
        <time>2022-07-12T12:17:41+02:00</time>
      </trkpt>
      <trkpt lat="48.53038" lon="1.96306">
        <ele>102</ele>
        <time>2022-07-12T12:17:48+02:00</time>
      </trkpt>
      <trkpt lat="48.5304" lon="1.96291">
        <ele>103</ele>
        <time>2022-07-12T12:17:55+02:00</time>
      </trkpt>
      <trkpt lat="48.53044" lon="1.96278">
        <ele>104</ele>
        <time>2022-07-12T12:18:02+02:00</time>
      </trkpt>
      <trkpt lat="48.53045" lon="1.96264">
        <ele>105</ele>
        <time>2022-07-12T12:18:09+02:00</time>
      </trkpt>
      <trkpt lat="48.53041" lon="1.96252">
        <ele>106</ele>
        <time>2022-07-12T12:18:20+02:00</time>
      </trkpt>
      <trkpt lat="48.53032" lon="1.96245">
        <ele>103</ele>
        <time>2022-07-12T12:18:27+02:00</time>
      </trkpt>
      <trkpt lat="48.53024" lon="1.96238">
        <ele>100</ele>
        <time>2022-07-12T12:18:37+02:00</time>
      </trkpt>
      <trkpt lat="48.53019" lon="1.96227">
        <ele>99</ele>
        <time>2022-07-12T12:18:46+02:00</time>
      </trkpt>
      <trkpt lat="48.5301" lon="1.96224">
        <ele>97</ele>
        <time>2022-07-12T12:18:54+02:00</time>
      </trkpt>
      <trkpt lat="48.53001" lon="1.96221">
        <ele>99</ele>
        <time>2022-07-12T12:19:03+02:00</time>
      </trkpt>
      <trkpt lat="48.52992" lon="1.96216">
        <ele>99</ele>
        <time>2022-07-12T12:19:10+02:00</time>
      </trkpt>
      <trkpt lat="48.52983" lon="1.96211">
        <ele>97</ele>
        <time>2022-07-12T12:19:17+02:00</time>
      </trkpt>
      <trkpt lat="48.52974" lon="1.96207">
        <ele>97</ele>
        <time>2022-07-12T12:19:26+02:00</time>
      </trkpt>
      <trkpt lat="48.52964" lon="1.96205">
        <ele>98</ele>
        <time>2022-07-12T12:19:34+02:00</time>
      </trkpt>
      <trkpt lat="48.52954" lon="1.96203">
        <ele>100</ele>
        <time>2022-07-12T12:19:40+02:00</time>
      </trkpt>
      <trkpt lat="48.52945" lon="1.96197">
        <ele>101</ele>
        <time>2022-07-12T12:19:47+02:00</time>
      </trkpt>
      <trkpt lat="48.52936" lon="1.96195">
        <ele>102</ele>
        <time>2022-07-12T12:19:54+02:00</time>
      </trkpt>
      <trkpt lat="48.52926" lon="1.96193">
        <ele>101</ele>
        <time>2022-07-12T12:20:02+02:00</time>
      </trkpt>
      <trkpt lat="48.52916" lon="1.96192">
        <ele>101</ele>
        <time>2022-07-12T12:20:08+02:00</time>
      </trkpt>
      <trkpt lat="48.52906" lon="1.96194">
        <ele>101</ele>
        <time>2022-07-12T12:20:15+02:00</time>
      </trkpt>
      <trkpt lat="48.52897" lon="1.96193">
        <ele>99</ele>
        <time>2022-07-12T12:20:23+02:00</time>
      </trkpt>
      <trkpt lat="48.52888" lon="1.96191">
        <ele>98</ele>
        <time>2022-07-12T12:20:30+02:00</time>
      </trkpt>
      <trkpt lat="48.52878" lon="1.96187">
        <ele>96</ele>
        <time>2022-07-12T12:20:36+02:00</time>
      </trkpt>
      <trkpt lat="48.52869" lon="1.96186">
        <ele>97</ele>
        <time>2022-07-12T12:20:43+02:00</time>
      </trkpt>
      <trkpt lat="48.52859" lon="1.96188">
        <ele>97</ele>
        <time>2022-07-12T12:20:51+02:00</time>
      </trkpt>
      <trkpt lat="48.5285" lon="1.96189">
        <ele>99</ele>
        <time>2022-07-12T12:20:59+02:00</time>
      </trkpt>
      <trkpt lat="48.52839" lon="1.96189">
        <ele>104</ele>
        <time>2022-07-12T12:21:02+02:00</time>
      </trkpt>
      <trkpt lat="48.52833" lon="1.962">
        <ele>110</ele>
        <time>2022-07-12T12:21:27+02:00</time>
      </trkpt>
      <trkpt lat="48.52837" lon="1.96214">
        <ele>114</ele>
        <time>2022-07-12T12:21:36+02:00</time>
      </trkpt>
      <trkpt lat="48.52837" lon="1.96229">
        <ele>115</ele>
        <time>2022-07-12T12:21:46+02:00</time>
      </trkpt>
      <trkpt lat="48.52835" lon="1.96243">
        <ele>116</ele>
        <time>2022-07-12T12:21:55+02:00</time>
      </trkpt>
      <trkpt lat="48.52838" lon="1.96256">
        <ele>116</ele>
        <time>2022-07-12T12:22:06+02:00</time>
      </trkpt>
      <trkpt lat="48.52837" lon="1.9627">
        <ele>112</ele>
        <time>2022-07-12T12:22:22+02:00</time>
      </trkpt>
      <trkpt lat="48.52833" lon="1.96284">
        <ele>111</ele>
        <time>2022-07-12T12:22:29+02:00</time>
      </trkpt>
      <trkpt lat="48.52829" lon="1.96297">
        <ele>111</ele>
        <time>2022-07-12T12:22:37+02:00</time>
      </trkpt>
      <trkpt lat="48.52827" lon="1.9631">
        <ele>112</ele>
        <time>2022-07-12T12:22:48+02:00</time>
      </trkpt>
      <trkpt lat="48.52824" lon="1.96323">
        <ele>111</ele>
        <time>2022-07-12T12:22:58+02:00</time>
      </trkpt>
      <trkpt lat="48.52822" lon="1.96337">
        <ele>112</ele>
        <time>2022-07-12T12:23:08+02:00</time>
      </trkpt>
      <trkpt lat="48.52818" lon="1.96364">
        <ele>118</ele>
        <time>2022-07-12T12:23:25+02:00</time>
      </trkpt>
      <trkpt lat="48.52819" lon="1.9638">
        <ele>120</ele>
        <time>2022-07-12T12:23:34+02:00</time>
      </trkpt>
      <trkpt lat="48.52819" lon="1.96395">
        <ele>121</ele>
        <time>2022-07-12T12:23:41+02:00</time>
      </trkpt>
      <trkpt lat="48.52818" lon="1.9641">
        <ele>122</ele>
        <time>2022-07-12T12:23:50+02:00</time>
      </trkpt>
      <trkpt lat="48.5282" lon="1.96423">
        <ele>120</ele>
        <time>2022-07-12T12:23:57+02:00</time>
      </trkpt>
      <trkpt lat="48.52821" lon="1.96438">
        <ele>120</ele>
        <time>2022-07-12T12:24:03+02:00</time>
      </trkpt>
      <trkpt lat="48.52822" lon="1.96454">
        <ele>119</ele>
        <time>2022-07-12T12:24:09+02:00</time>
      </trkpt>
      <trkpt lat="48.5282" lon="1.96467">
        <ele>118</ele>
        <time>2022-07-12T12:24:15+02:00</time>
      </trkpt>
      <trkpt lat="48.52814" lon="1.9648">
        <ele>118</ele>
        <time>2022-07-12T12:24:22+02:00</time>
      </trkpt>
      <trkpt lat="48.5281" lon="1.96494">
        <ele>117</ele>
        <time>2022-07-12T12:24:30+02:00</time>
      </trkpt>
      <trkpt lat="48.52809" lon="1.96508">
        <ele>116</ele>
        <time>2022-07-12T12:24:37+02:00</time>
      </trkpt>
      <trkpt lat="48.52805" lon="1.9652">
        <ele>117</ele>
        <time>2022-07-12T12:24:44+02:00</time>
      </trkpt>
      <trkpt lat="48.52803" lon="1.96534">
        <ele>118</ele>
        <time>2022-07-12T12:24:51+02:00</time>
      </trkpt>
      <trkpt lat="48.52806" lon="1.96549">
        <ele>119</ele>
        <time>2022-07-12T12:24:59+02:00</time>
      </trkpt>
      <trkpt lat="48.52805" lon="1.96564">
        <ele>120</ele>
        <time>2022-07-12T12:25:06+02:00</time>
      </trkpt>
      <trkpt lat="48.52804" lon="1.96578">
        <ele>120</ele>
        <time>2022-07-12T12:25:14+02:00</time>
      </trkpt>
      <trkpt lat="48.52803" lon="1.96593">
        <ele>121</ele>
        <time>2022-07-12T12:25:23+02:00</time>
      </trkpt>
      <trkpt lat="48.52802" lon="1.96607">
        <ele>121</ele>
        <time>2022-07-12T12:25:30+02:00</time>
      </trkpt>
      <trkpt lat="48.52802" lon="1.96621">
        <ele>121</ele>
        <time>2022-07-12T12:25:36+02:00</time>
      </trkpt>
      <trkpt lat="48.52801" lon="1.96636">
        <ele>119</ele>
        <time>2022-07-12T12:25:44+02:00</time>
      </trkpt>
      <trkpt lat="48.52798" lon="1.9665">
        <ele>118</ele>
        <time>2022-07-12T12:25:51+02:00</time>
      </trkpt>
      <trkpt lat="48.52793" lon="1.96663">
        <ele>117</ele>
        <time>2022-07-12T12:25:57+02:00</time>
      </trkpt>
      <trkpt lat="48.52788" lon="1.96677">
        <ele>116</ele>
        <time>2022-07-12T12:26:04+02:00</time>
      </trkpt>
      <trkpt lat="48.52785" lon="1.9669">
        <ele>115</ele>
        <time>2022-07-12T12:26:12+02:00</time>
      </trkpt>
      <trkpt lat="48.52784" lon="1.96705">
        <ele>116</ele>
        <time>2022-07-12T12:26:20+02:00</time>
      </trkpt>
      <trkpt lat="48.52782" lon="1.96719">
        <ele>115</ele>
        <time>2022-07-12T12:26:27+02:00</time>
      </trkpt>
      <trkpt lat="48.52782" lon="1.96733">
        <ele>115</ele>
        <time>2022-07-12T12:26:36+02:00</time>
      </trkpt>
      <trkpt lat="48.52781" lon="1.96747">
        <ele>116</ele>
        <time>2022-07-12T12:26:44+02:00</time>
      </trkpt>
      <trkpt lat="48.52781" lon="1.96761">
        <ele>117</ele>
        <time>2022-07-12T12:26:52+02:00</time>
      </trkpt>
      <trkpt lat="48.52782" lon="1.96775">
        <ele>116</ele>
        <time>2022-07-12T12:26:58+02:00</time>
      </trkpt>
      <trkpt lat="48.52782" lon="1.9679">
        <ele>115</ele>
        <time>2022-07-12T12:27:06+02:00</time>
      </trkpt>
      <trkpt lat="48.52781" lon="1.96805">
        <ele>114</ele>
        <time>2022-07-12T12:27:14+02:00</time>
      </trkpt>
      <trkpt lat="48.52777" lon="1.96817">
        <ele>114</ele>
        <time>2022-07-12T12:27:21+02:00</time>
      </trkpt>
      <trkpt lat="48.52777" lon="1.96832">
        <ele>114</ele>
        <time>2022-07-12T12:27:30+02:00</time>
      </trkpt>
      <trkpt lat="48.52775" lon="1.96846">
        <ele>112</ele>
        <time>2022-07-12T12:27:37+02:00</time>
      </trkpt>
      <trkpt lat="48.52772" lon="1.96859">
        <ele>109</ele>
        <time>2022-07-12T12:27:43+02:00</time>
      </trkpt>
      <trkpt lat="48.52771" lon="1.96875">
        <ele>106</ele>
        <time>2022-07-12T12:27:51+02:00</time>
      </trkpt>
      <trkpt lat="48.52768" lon="1.96889">
        <ele>105</ele>
        <time>2022-07-12T12:27:57+02:00</time>
      </trkpt>
      <trkpt lat="48.52767" lon="1.96904">
        <ele>106</ele>
        <time>2022-07-12T12:28:06+02:00</time>
      </trkpt>
      <trkpt lat="48.52767" lon="1.96919">
        <ele>107</ele>
        <time>2022-07-12T12:28:14+02:00</time>
      </trkpt>
      <trkpt lat="48.52767" lon="1.96934">
        <ele>108</ele>
        <time>2022-07-12T12:28:22+02:00</time>
      </trkpt>
      <trkpt lat="48.52765" lon="1.96948">
        <ele>109</ele>
        <time>2022-07-12T12:28:29+02:00</time>
      </trkpt>
      <trkpt lat="48.52767" lon="1.96962">
        <ele>112</ele>
        <time>2022-07-12T12:28:36+02:00</time>
      </trkpt>
      <trkpt lat="48.52766" lon="1.96976">
        <ele>115</ele>
        <time>2022-07-12T12:28:44+02:00</time>
      </trkpt>
      <trkpt lat="48.52764" lon="1.96989">
        <ele>118</ele>
        <time>2022-07-12T12:28:51+02:00</time>
      </trkpt>
      <trkpt lat="48.5276" lon="1.97003">
        <ele>120</ele>
        <time>2022-07-12T12:28:59+02:00</time>
      </trkpt>
      <trkpt lat="48.52755" lon="1.97015">
        <ele>121</ele>
        <time>2022-07-12T12:29:07+02:00</time>
      </trkpt>
      <trkpt lat="48.52753" lon="1.97029">
        <ele>121</ele>
        <time>2022-07-12T12:29:15+02:00</time>
      </trkpt>
      <trkpt lat="48.52752" lon="1.97044">
        <ele>119</ele>
        <time>2022-07-12T12:29:28+02:00</time>
      </trkpt>
      <trkpt lat="48.5275" lon="1.97059">
        <ele>120</ele>
        <time>2022-07-12T12:29:35+02:00</time>
      </trkpt>
      <trkpt lat="48.52752" lon="1.97074">
        <ele>120</ele>
        <time>2022-07-12T12:29:42+02:00</time>
      </trkpt>
      <trkpt lat="48.52753" lon="1.97089">
        <ele>118</ele>
        <time>2022-07-12T12:29:50+02:00</time>
      </trkpt>
      <trkpt lat="48.52752" lon="1.97103">
        <ele>115</ele>
        <time>2022-07-12T12:30:00+02:00</time>
      </trkpt>
      <trkpt lat="48.5275" lon="1.97118">
        <ele>114</ele>
        <time>2022-07-12T12:30:07+02:00</time>
      </trkpt>
      <trkpt lat="48.52748" lon="1.97132">
        <ele>112</ele>
        <time>2022-07-12T12:30:15+02:00</time>
      </trkpt>
      <trkpt lat="48.52745" lon="1.97146">
        <ele>112</ele>
        <time>2022-07-12T12:30:22+02:00</time>
      </trkpt>
      <trkpt lat="48.5274" lon="1.97159">
        <ele>110</ele>
        <time>2022-07-12T12:31:07+02:00</time>
      </trkpt>
      <trkpt lat="48.52731" lon="1.97156">
        <ele>111</ele>
        <time>2022-07-12T12:31:18+02:00</time>
      </trkpt>
      <trkpt lat="48.52721" lon="1.97157">
        <ele>112</ele>
        <time>2022-07-12T12:31:26+02:00</time>
      </trkpt>
      <trkpt lat="48.52711" lon="1.97159">
        <ele>114</ele>
        <time>2022-07-12T12:31:36+02:00</time>
      </trkpt>
      <trkpt lat="48.52702" lon="1.97162">
        <ele>115</ele>
        <time>2022-07-12T12:31:43+02:00</time>
      </trkpt>
      <trkpt lat="48.52691" lon="1.97164">
        <ele>118</ele>
        <time>2022-07-12T12:31:52+02:00</time>
      </trkpt>
      <trkpt lat="48.52681" lon="1.97165">
        <ele>115</ele>
        <time>2022-07-12T12:32:01+02:00</time>
      </trkpt>
      <trkpt lat="48.52671" lon="1.97167">
        <ele>113</ele>
        <time>2022-07-12T12:32:09+02:00</time>
      </trkpt>
      <trkpt lat="48.52661" lon="1.97166">
        <ele>110</ele>
        <time>2022-07-12T12:32:16+02:00</time>
      </trkpt>
      <trkpt lat="48.52652" lon="1.97166">
        <ele>112</ele>
        <time>2022-07-12T12:32:27+02:00</time>
      </trkpt>
      <trkpt lat="48.52642" lon="1.97169">
        <ele>114</ele>
        <time>2022-07-12T12:32:35+02:00</time>
      </trkpt>
      <trkpt lat="48.52632" lon="1.97166">
        <ele>115</ele>
        <time>2022-07-12T12:32:43+02:00</time>
      </trkpt>
      <trkpt lat="48.52624" lon="1.9716">
        <ele>114</ele>
        <time>2022-07-12T12:33:00+02:00</time>
      </trkpt>
      <trkpt lat="48.52615" lon="1.97164">
        <ele>115</ele>
        <time>2022-07-12T12:33:33+02:00</time>
      </trkpt>
      <trkpt lat="48.52606" lon="1.97172">
        <ele>115</ele>
        <time>2022-07-12T12:33:41+02:00</time>
      </trkpt>
      <trkpt lat="48.52597" lon="1.9717">
        <ele>114</ele>
        <time>2022-07-12T12:33:58+02:00</time>
      </trkpt>
      <trkpt lat="48.52587" lon="1.97172">
        <ele>113</ele>
        <time>2022-07-12T12:34:04+02:00</time>
      </trkpt>
      <trkpt lat="48.52577" lon="1.9717">
        <ele>112</ele>
        <time>2022-07-12T12:34:11+02:00</time>
      </trkpt>
      <trkpt lat="48.52568" lon="1.9717">
        <ele>111</ele>
        <time>2022-07-12T12:34:18+02:00</time>
      </trkpt>
      <trkpt lat="48.52559" lon="1.97169">
        <ele>111</ele>
        <time>2022-07-12T12:34:26+02:00</time>
      </trkpt>
      <trkpt lat="48.52549" lon="1.97166">
        <ele>110</ele>
        <time>2022-07-12T12:34:32+02:00</time>
      </trkpt>
      <trkpt lat="48.5254" lon="1.97163">
        <ele>109</ele>
        <time>2022-07-12T12:34:40+02:00</time>
      </trkpt>
      <trkpt lat="48.52531" lon="1.97162">
        <ele>110</ele>
        <time>2022-07-12T12:34:48+02:00</time>
      </trkpt>
      <trkpt lat="48.52521" lon="1.97159">
        <ele>113</ele>
        <time>2022-07-12T12:34:58+02:00</time>
      </trkpt>
      <trkpt lat="48.52512" lon="1.97157">
        <ele>117</ele>
        <time>2022-07-12T12:35:06+02:00</time>
      </trkpt>
      <trkpt lat="48.52502" lon="1.97158">
        <ele>119</ele>
        <time>2022-07-12T12:35:14+02:00</time>
      </trkpt>
      <trkpt lat="48.52493" lon="1.97156">
        <ele>123</ele>
        <time>2022-07-12T12:35:23+02:00</time>
      </trkpt>
      <trkpt lat="48.52484" lon="1.97153">
        <ele>125</ele>
        <time>2022-07-12T12:35:29+02:00</time>
      </trkpt>
      <trkpt lat="48.52474" lon="1.97153">
        <ele>126</ele>
        <time>2022-07-12T12:35:35+02:00</time>
      </trkpt>
      <trkpt lat="48.52465" lon="1.97154">
        <ele>126</ele>
        <time>2022-07-12T12:35:42+02:00</time>
      </trkpt>
      <trkpt lat="48.52454" lon="1.97153">
        <ele>125</ele>
        <time>2022-07-12T12:35:50+02:00</time>
      </trkpt>
      <trkpt lat="48.52443" lon="1.97151">
        <ele>125</ele>
        <time>2022-07-12T12:35:56+02:00</time>
      </trkpt>
      <trkpt lat="48.52433" lon="1.97151">
        <ele>125</ele>
        <time>2022-07-12T12:36:03+02:00</time>
      </trkpt>
      <trkpt lat="48.52423" lon="1.97151">
        <ele>125</ele>
        <time>2022-07-12T12:36:09+02:00</time>
      </trkpt>
      <trkpt lat="48.52413" lon="1.97152">
        <ele>123</ele>
        <time>2022-07-12T12:36:17+02:00</time>
      </trkpt>
      <trkpt lat="48.52404" lon="1.9715">
        <ele>121</ele>
        <time>2022-07-12T12:36:27+02:00</time>
      </trkpt>
      <trkpt lat="48.52394" lon="1.97148">
        <ele>122</ele>
        <time>2022-07-12T12:36:34+02:00</time>
      </trkpt>
      <trkpt lat="48.52384" lon="1.97147">
        <ele>121</ele>
        <time>2022-07-12T12:36:40+02:00</time>
      </trkpt>
      <trkpt lat="48.52374" lon="1.97144">
        <ele>119</ele>
        <time>2022-07-12T12:36:47+02:00</time>
      </trkpt>
      <trkpt lat="48.52364" lon="1.97144">
        <ele>119</ele>
        <time>2022-07-12T12:36:53+02:00</time>
      </trkpt>
      <trkpt lat="48.52354" lon="1.97145">
        <ele>120</ele>
        <time>2022-07-12T12:36:59+02:00</time>
      </trkpt>
      <trkpt lat="48.52344" lon="1.97145">
        <ele>121</ele>
        <time>2022-07-12T12:37:06+02:00</time>
      </trkpt>
      <trkpt lat="48.52335" lon="1.97142">
        <ele>122</ele>
        <time>2022-07-12T12:37:13+02:00</time>
      </trkpt>
      <trkpt lat="48.52326" lon="1.97142">
        <ele>126</ele>
        <time>2022-07-12T12:37:23+02:00</time>
      </trkpt>
      <trkpt lat="48.52318" lon="1.97136">
        <ele>132</ele>
        <time>2022-07-12T12:37:34+02:00</time>
      </trkpt>
      <trkpt lat="48.52308" lon="1.97134">
        <ele>135</ele>
        <time>2022-07-12T12:37:42+02:00</time>
      </trkpt>
      <trkpt lat="48.52299" lon="1.97129">
        <ele>136</ele>
        <time>2022-07-12T12:37:50+02:00</time>
      </trkpt>
      <trkpt lat="48.5229" lon="1.97129">
        <ele>138</ele>
        <time>2022-07-12T12:37:57+02:00</time>
      </trkpt>
      <trkpt lat="48.52281" lon="1.97127">
        <ele>139</ele>
        <time>2022-07-12T12:38:06+02:00</time>
      </trkpt>
      <trkpt lat="48.52271" lon="1.9713">
        <ele>141</ele>
        <time>2022-07-12T12:38:13+02:00</time>
      </trkpt>
      <trkpt lat="48.52262" lon="1.97126">
        <ele>142</ele>
        <time>2022-07-12T12:38:19+02:00</time>
      </trkpt>
      <trkpt lat="48.52252" lon="1.97124">
        <ele>143</ele>
        <time>2022-07-12T12:38:26+02:00</time>
      </trkpt>
      <trkpt lat="48.52242" lon="1.97123">
        <ele>143</ele>
        <time>2022-07-12T12:38:33+02:00</time>
      </trkpt>
      <trkpt lat="48.52232" lon="1.97119">
        <ele>142</ele>
        <time>2022-07-12T12:38:39+02:00</time>
      </trkpt>
      <trkpt lat="48.52222" lon="1.97121">
        <ele>141</ele>
        <time>2022-07-12T12:38:46+02:00</time>
      </trkpt>
      <trkpt lat="48.52212" lon="1.97122">
        <ele>142</ele>
        <time>2022-07-12T12:38:55+02:00</time>
      </trkpt>
      <trkpt lat="48.52203" lon="1.9712">
        <ele>140</ele>
        <time>2022-07-12T12:39:04+02:00</time>
      </trkpt>
      <trkpt lat="48.52194" lon="1.97119">
        <ele>138</ele>
        <time>2022-07-12T12:39:09+02:00</time>
      </trkpt>
      <trkpt lat="48.52183" lon="1.97117">
        <ele>135</ele>
        <time>2022-07-12T12:39:17+02:00</time>
      </trkpt>
      <trkpt lat="48.52173" lon="1.97117">
        <ele>136</ele>
        <time>2022-07-12T12:39:26+02:00</time>
      </trkpt>
      <trkpt lat="48.52164" lon="1.97119">
        <ele>135</ele>
        <time>2022-07-12T12:39:33+02:00</time>
      </trkpt>
      <trkpt lat="48.52154" lon="1.97118">
        <ele>132</ele>
        <time>2022-07-12T12:39:44+02:00</time>
      </trkpt>
      <trkpt lat="48.52144" lon="1.97115">
        <ele>132</ele>
        <time>2022-07-12T12:39:52+02:00</time>
      </trkpt>
      <trkpt lat="48.52134" lon="1.97116">
        <ele>132</ele>
        <time>2022-07-12T12:40:00+02:00</time>
      </trkpt>
      <trkpt lat="48.52124" lon="1.97115">
        <ele>132</ele>
        <time>2022-07-12T12:40:08+02:00</time>
      </trkpt>
      <trkpt lat="48.52116" lon="1.97108">
        <ele>133</ele>
        <time>2022-07-12T12:40:21+02:00</time>
      </trkpt>
      <trkpt lat="48.52107" lon="1.97106">
        <ele>136</ele>
        <time>2022-07-12T12:40:31+02:00</time>
      </trkpt>
      <trkpt lat="48.52097" lon="1.97106">
        <ele>139</ele>
        <time>2022-07-12T12:40:40+02:00</time>
      </trkpt>
      <trkpt lat="48.52088" lon="1.9711">
        <ele>144</ele>
        <time>2022-07-12T12:40:51+02:00</time>
      </trkpt>
      <trkpt lat="48.52079" lon="1.97106">
        <ele>151</ele>
        <time>2022-07-12T12:40:59+02:00</time>
      </trkpt>
      <trkpt lat="48.52071" lon="1.97101">
        <ele>154</ele>
        <time>2022-07-12T12:41:06+02:00</time>
      </trkpt>
      <trkpt lat="48.52062" lon="1.97098">
        <ele>155</ele>
        <time>2022-07-12T12:41:15+02:00</time>
      </trkpt>
      <trkpt lat="48.52052" lon="1.97099">
        <ele>158</ele>
        <time>2022-07-12T12:41:24+02:00</time>
      </trkpt>
      <trkpt lat="48.52042" lon="1.97099">
        <ele>162</ele>
        <time>2022-07-12T12:41:32+02:00</time>
      </trkpt>
      <trkpt lat="48.52033" lon="1.97097">
        <ele>163</ele>
        <time>2022-07-12T12:41:39+02:00</time>
      </trkpt>
      <trkpt lat="48.52024" lon="1.97096">
        <ele>165</ele>
        <time>2022-07-12T12:41:50+02:00</time>
      </trkpt>
      <trkpt lat="48.52015" lon="1.97101">
        <ele>167</ele>
        <time>2022-07-12T12:42:01+02:00</time>
      </trkpt>
      <trkpt lat="48.52006" lon="1.97096">
        <ele>168</ele>
        <time>2022-07-12T12:42:11+02:00</time>
      </trkpt>
      <trkpt lat="48.51996" lon="1.97095">
        <ele>169</ele>
        <time>2022-07-12T12:42:18+02:00</time>
      </trkpt>
      <trkpt lat="48.51987" lon="1.97093">
        <ele>168</ele>
        <time>2022-07-12T12:42:24+02:00</time>
      </trkpt>
      <trkpt lat="48.51978" lon="1.9709">
        <ele>166</ele>
        <time>2022-07-12T12:42:30+02:00</time>
      </trkpt>
      <trkpt lat="48.51967" lon="1.97088">
        <ele>164</ele>
        <time>2022-07-12T12:42:38+02:00</time>
      </trkpt>
      <trkpt lat="48.51958" lon="1.97088">
        <ele>161</ele>
        <time>2022-07-12T12:42:46+02:00</time>
      </trkpt>
      <trkpt lat="48.51948" lon="1.97091">
        <ele>160</ele>
        <time>2022-07-12T12:42:59+02:00</time>
      </trkpt>
      <trkpt lat="48.5194" lon="1.97087">
        <ele>159</ele>
        <time>2022-07-12T12:43:08+02:00</time>
      </trkpt>
      <trkpt lat="48.51932" lon="1.97081">
        <ele>160</ele>
        <time>2022-07-12T12:43:17+02:00</time>
      </trkpt>
      <trkpt lat="48.51923" lon="1.97073">
        <ele>159</ele>
        <time>2022-07-12T12:43:30+02:00</time>
      </trkpt>
      <trkpt lat="48.51918" lon="1.97061">
        <ele>161</ele>
        <time>2022-07-12T12:43:41+02:00</time>
      </trkpt>
      <trkpt lat="48.51916" lon="1.97047">
        <ele>162</ele>
        <time>2022-07-12T12:43:49+02:00</time>
      </trkpt>
      <trkpt lat="48.51914" lon="1.97034">
        <ele>162</ele>
        <time>2022-07-12T12:43:56+02:00</time>
      </trkpt>
      <trkpt lat="48.51909" lon="1.97022">
        <ele>161</ele>
        <time>2022-07-12T12:44:05+02:00</time>
      </trkpt>
      <trkpt lat="48.51907" lon="1.97009">
        <ele>157</ele>
        <time>2022-07-12T12:44:21+02:00</time>
      </trkpt>
      <trkpt lat="48.51907" lon="1.96995">
        <ele>153</ele>
        <time>2022-07-12T12:45:10+02:00</time>
      </trkpt>
      <trkpt lat="48.51903" lon="1.97008">
        <ele>162</ele>
        <time>2022-07-12T12:49:23+02:00</time>
      </trkpt>
      <trkpt lat="48.51907" lon="1.96995">
        <ele>145</ele>
        <time>2022-07-12T12:54:03+02:00</time>
      </trkpt>
      <trkpt lat="48.51901" lon="1.97005">
        <ele>152</ele>
        <time>2022-07-12T12:57:29+02:00</time>
      </trkpt>
      <trkpt lat="48.51906" lon="1.9699">
        <ele>151</ele>
        <time>2022-07-12T12:58:32+02:00</time>
      </trkpt>
      <trkpt lat="48.51905" lon="1.97007">
        <ele>152</ele>
        <time>2022-07-12T13:00:23+02:00</time>
      </trkpt>
      <trkpt lat="48.51913" lon="1.97001">
        <ele>161</ele>
        <time>2022-07-12T13:14:17+02:00</time>
      </trkpt>
      <trkpt lat="48.51904" lon="1.96999">
        <ele>161</ele>
        <time>2022-07-12T13:16:34+02:00</time>
      </trkpt>
      <trkpt lat="48.51901" lon="1.96985">
        <ele>161</ele>
        <time>2022-07-12T13:16:50+02:00</time>
      </trkpt>
      <trkpt lat="48.51897" lon="1.96972">
        <ele>159</ele>
        <time>2022-07-12T13:17:00+02:00</time>
      </trkpt>
      <trkpt lat="48.51893" lon="1.96957">
        <ele>157</ele>
        <time>2022-07-12T13:17:09+02:00</time>
      </trkpt>
      <trkpt lat="48.51887" lon="1.96932">
        <ele>161</ele>
        <time>2022-07-12T13:17:27+02:00</time>
      </trkpt>
      <trkpt lat="48.51885" lon="1.96917">
        <ele>163</ele>
        <time>2022-07-12T13:17:34+02:00</time>
      </trkpt>
      <trkpt lat="48.51884" lon="1.96903">
        <ele>164</ele>
        <time>2022-07-12T13:17:41+02:00</time>
      </trkpt>
      <trkpt lat="48.51883" lon="1.96889">
        <ele>164</ele>
        <time>2022-07-12T13:17:48+02:00</time>
      </trkpt>
      <trkpt lat="48.51883" lon="1.96874">
        <ele>165</ele>
        <time>2022-07-12T13:17:55+02:00</time>
      </trkpt>
      <trkpt lat="48.51882" lon="1.96859">
        <ele>166</ele>
        <time>2022-07-12T13:18:02+02:00</time>
      </trkpt>
      <trkpt lat="48.5188" lon="1.96844">
        <ele>165</ele>
        <time>2022-07-12T13:18:09+02:00</time>
      </trkpt>
      <trkpt lat="48.51879" lon="1.9683">
        <ele>163</ele>
        <time>2022-07-12T13:18:16+02:00</time>
      </trkpt>
      <trkpt lat="48.51877" lon="1.96816">
        <ele>163</ele>
        <time>2022-07-12T13:18:23+02:00</time>
      </trkpt>
      <trkpt lat="48.51873" lon="1.96801">
        <ele>162</ele>
        <time>2022-07-12T13:18:30+02:00</time>
      </trkpt>
      <trkpt lat="48.51871" lon="1.96787">
        <ele>161</ele>
        <time>2022-07-12T13:18:38+02:00</time>
      </trkpt>
      <trkpt lat="48.51869" lon="1.96773">
        <ele>160</ele>
        <time>2022-07-12T13:18:46+02:00</time>
      </trkpt>
      <trkpt lat="48.51869" lon="1.96758">
        <ele>158</ele>
        <time>2022-07-12T13:18:54+02:00</time>
      </trkpt>
      <trkpt lat="48.51866" lon="1.96745">
        <ele>156</ele>
        <time>2022-07-12T13:19:02+02:00</time>
      </trkpt>
      <trkpt lat="48.51864" lon="1.96731">
        <ele>156</ele>
        <time>2022-07-12T13:19:10+02:00</time>
      </trkpt>
      <trkpt lat="48.51862" lon="1.96718">
        <ele>155</ele>
        <time>2022-07-12T13:19:17+02:00</time>
      </trkpt>
      <trkpt lat="48.5186" lon="1.96704">
        <ele>155</ele>
        <time>2022-07-12T13:19:24+02:00</time>
      </trkpt>
      <trkpt lat="48.51858" lon="1.9669">
        <ele>155</ele>
        <time>2022-07-12T13:19:31+02:00</time>
      </trkpt>
      <trkpt lat="48.51854" lon="1.96678">
        <ele>155</ele>
        <time>2022-07-12T13:19:39+02:00</time>
      </trkpt>
      <trkpt lat="48.51849" lon="1.96664">
        <ele>155</ele>
        <time>2022-07-12T13:19:48+02:00</time>
      </trkpt>
      <trkpt lat="48.51849" lon="1.96649">
        <ele>155</ele>
        <time>2022-07-12T13:19:56+02:00</time>
      </trkpt>
      <trkpt lat="48.51846" lon="1.96635">
        <ele>155</ele>
        <time>2022-07-12T13:20:04+02:00</time>
      </trkpt>
      <trkpt lat="48.51845" lon="1.96621">
        <ele>156</ele>
        <time>2022-07-12T13:20:12+02:00</time>
      </trkpt>
      <trkpt lat="48.51845" lon="1.96607">
        <ele>155</ele>
        <time>2022-07-12T13:20:20+02:00</time>
      </trkpt>
      <trkpt lat="48.51841" lon="1.96594">
        <ele>156</ele>
        <time>2022-07-12T13:20:28+02:00</time>
      </trkpt>
      <trkpt lat="48.51837" lon="1.96581">
        <ele>158</ele>
        <time>2022-07-12T13:20:36+02:00</time>
      </trkpt>
      <trkpt lat="48.51834" lon="1.96568">
        <ele>159</ele>
        <time>2022-07-12T13:20:44+02:00</time>
      </trkpt>
      <trkpt lat="48.51834" lon="1.96554">
        <ele>160</ele>
        <time>2022-07-12T13:20:51+02:00</time>
      </trkpt>
      <trkpt lat="48.51831" lon="1.9654">
        <ele>161</ele>
        <time>2022-07-12T13:20:59+02:00</time>
      </trkpt>
      <trkpt lat="48.51828" lon="1.96526">
        <ele>163</ele>
        <time>2022-07-12T13:21:07+02:00</time>
      </trkpt>
      <trkpt lat="48.51825" lon="1.96498">
        <ele>166</ele>
        <time>2022-07-12T13:21:22+02:00</time>
      </trkpt>
      <trkpt lat="48.51822" lon="1.96483">
        <ele>165</ele>
        <time>2022-07-12T13:21:29+02:00</time>
      </trkpt>
      <trkpt lat="48.5182" lon="1.96469">
        <ele>163</ele>
        <time>2022-07-12T13:21:35+02:00</time>
      </trkpt>
      <trkpt lat="48.51819" lon="1.96455">
        <ele>163</ele>
        <time>2022-07-12T13:21:41+02:00</time>
      </trkpt>
      <trkpt lat="48.51818" lon="1.9644">
        <ele>162</ele>
        <time>2022-07-12T13:21:48+02:00</time>
      </trkpt>
      <trkpt lat="48.51815" lon="1.96425">
        <ele>163</ele>
        <time>2022-07-12T13:21:55+02:00</time>
      </trkpt>
      <trkpt lat="48.51813" lon="1.9641">
        <ele>162</ele>
        <time>2022-07-12T13:22:02+02:00</time>
      </trkpt>
      <trkpt lat="48.51811" lon="1.96395">
        <ele>160</ele>
        <time>2022-07-12T13:22:10+02:00</time>
      </trkpt>
      <trkpt lat="48.51809" lon="1.96379">
        <ele>159</ele>
        <time>2022-07-12T13:22:17+02:00</time>
      </trkpt>
      <trkpt lat="48.51807" lon="1.96365">
        <ele>157</ele>
        <time>2022-07-12T13:22:25+02:00</time>
      </trkpt>
      <trkpt lat="48.51803" lon="1.96352">
        <ele>156</ele>
        <time>2022-07-12T13:22:33+02:00</time>
      </trkpt>
      <trkpt lat="48.51801" lon="1.96337">
        <ele>155</ele>
        <time>2022-07-12T13:22:41+02:00</time>
      </trkpt>
      <trkpt lat="48.51799" lon="1.96323">
        <ele>154</ele>
        <time>2022-07-12T13:22:49+02:00</time>
      </trkpt>
      <trkpt lat="48.51797" lon="1.96309">
        <ele>154</ele>
        <time>2022-07-12T13:22:57+02:00</time>
      </trkpt>
      <trkpt lat="48.51794" lon="1.96295">
        <ele>157</ele>
        <time>2022-07-12T13:23:09+02:00</time>
      </trkpt>
      <trkpt lat="48.5179" lon="1.96282">
        <ele>159</ele>
        <time>2022-07-12T13:23:16+02:00</time>
      </trkpt>
      <trkpt lat="48.51782" lon="1.96274">
        <ele>161</ele>
        <time>2022-07-12T13:23:26+02:00</time>
      </trkpt>
      <trkpt lat="48.51774" lon="1.96265">
        <ele>162</ele>
        <time>2022-07-12T13:23:34+02:00</time>
      </trkpt>
      <trkpt lat="48.51765" lon="1.9626">
        <ele>162</ele>
        <time>2022-07-12T13:23:43+02:00</time>
      </trkpt>
      <trkpt lat="48.51755" lon="1.96253">
        <ele>161</ele>
        <time>2022-07-12T13:23:50+02:00</time>
      </trkpt>
      <trkpt lat="48.51747" lon="1.96246">
        <ele>162</ele>
        <time>2022-07-12T13:23:58+02:00</time>
      </trkpt>
      <trkpt lat="48.51737" lon="1.96245">
        <ele>164</ele>
        <time>2022-07-12T13:24:10+02:00</time>
      </trkpt>
      <trkpt lat="48.51727" lon="1.96245">
        <ele>165</ele>
        <time>2022-07-12T13:24:17+02:00</time>
      </trkpt>
      <trkpt lat="48.51717" lon="1.96243">
        <ele>166</ele>
        <time>2022-07-12T13:24:25+02:00</time>
      </trkpt>
      <trkpt lat="48.51707" lon="1.96241">
        <ele>168</ele>
        <time>2022-07-12T13:24:32+02:00</time>
      </trkpt>
      <trkpt lat="48.51697" lon="1.96242">
        <ele>167</ele>
        <time>2022-07-12T13:24:41+02:00</time>
      </trkpt>
      <trkpt lat="48.51688" lon="1.96241">
        <ele>166</ele>
        <time>2022-07-12T13:24:47+02:00</time>
      </trkpt>
      <trkpt lat="48.51679" lon="1.9624">
        <ele>165</ele>
        <time>2022-07-12T13:24:57+02:00</time>
      </trkpt>
      <trkpt lat="48.51669" lon="1.96238">
        <ele>164</ele>
        <time>2022-07-12T13:25:05+02:00</time>
      </trkpt>
      <trkpt lat="48.5166" lon="1.96237">
        <ele>164</ele>
        <time>2022-07-12T13:25:12+02:00</time>
      </trkpt>
      <trkpt lat="48.51651" lon="1.96238">
        <ele>164</ele>
        <time>2022-07-12T13:25:21+02:00</time>
      </trkpt>
      <trkpt lat="48.51641" lon="1.96239">
        <ele>165</ele>
        <time>2022-07-12T13:25:29+02:00</time>
      </trkpt>
      <trkpt lat="48.51631" lon="1.96241">
        <ele>167</ele>
        <time>2022-07-12T13:25:37+02:00</time>
      </trkpt>
      <trkpt lat="48.51622" lon="1.9624">
        <ele>166</ele>
        <time>2022-07-12T13:25:47+02:00</time>
      </trkpt>
      <trkpt lat="48.51613" lon="1.96246">
        <ele>166</ele>
        <time>2022-07-12T13:26:01+02:00</time>
      </trkpt>
      <trkpt lat="48.51602" lon="1.96249">
        <ele>166</ele>
        <time>2022-07-12T13:26:07+02:00</time>
      </trkpt>
      <trkpt lat="48.51593" lon="1.96252">
        <ele>163</ele>
        <time>2022-07-12T13:26:17+02:00</time>
      </trkpt>
      <trkpt lat="48.51585" lon="1.96259">
        <ele>160</ele>
        <time>2022-07-12T13:26:28+02:00</time>
      </trkpt>
      <trkpt lat="48.51576" lon="1.96263">
        <ele>159</ele>
        <time>2022-07-12T13:26:35+02:00</time>
      </trkpt>
      <trkpt lat="48.51567" lon="1.96267">
        <ele>157</ele>
        <time>2022-07-12T13:26:42+02:00</time>
      </trkpt>
      <trkpt lat="48.51558" lon="1.96271">
        <ele>156</ele>
        <time>2022-07-12T13:26:48+02:00</time>
      </trkpt>
      <trkpt lat="48.5155" lon="1.96278">
        <ele>155</ele>
        <time>2022-07-12T13:26:57+02:00</time>
      </trkpt>
      <trkpt lat="48.51541" lon="1.96284">
        <ele>154</ele>
        <time>2022-07-12T13:27:05+02:00</time>
      </trkpt>
      <trkpt lat="48.51533" lon="1.9629">
        <ele>153</ele>
        <time>2022-07-12T13:27:12+02:00</time>
      </trkpt>
      <trkpt lat="48.51525" lon="1.96297">
        <ele>151</ele>
        <time>2022-07-12T13:27:18+02:00</time>
      </trkpt>
      <trkpt lat="48.51517" lon="1.96305">
        <ele>149</ele>
        <time>2022-07-12T13:27:25+02:00</time>
      </trkpt>
      <trkpt lat="48.51512" lon="1.96317">
        <ele>146</ele>
        <time>2022-07-12T13:27:34+02:00</time>
      </trkpt>
      <trkpt lat="48.51504" lon="1.96327">
        <ele>144</ele>
        <time>2022-07-12T13:27:43+02:00</time>
      </trkpt>
      <trkpt lat="48.51496" lon="1.96335">
        <ele>144</ele>
        <time>2022-07-12T13:27:52+02:00</time>
      </trkpt>
      <trkpt lat="48.51488" lon="1.96342">
        <ele>145</ele>
        <time>2022-07-12T13:27:59+02:00</time>
      </trkpt>
      <trkpt lat="48.51481" lon="1.96351">
        <ele>144</ele>
        <time>2022-07-12T13:28:06+02:00</time>
      </trkpt>
      <trkpt lat="48.51475" lon="1.96362">
        <ele>142</ele>
        <time>2022-07-12T13:28:15+02:00</time>
      </trkpt>
      <trkpt lat="48.51468" lon="1.96372">
        <ele>142</ele>
        <time>2022-07-12T13:28:24+02:00</time>
      </trkpt>
      <trkpt lat="48.5146" lon="1.96379">
        <ele>142</ele>
        <time>2022-07-12T13:28:31+02:00</time>
      </trkpt>
      <trkpt lat="48.51452" lon="1.96386">
        <ele>142</ele>
        <time>2022-07-12T13:28:39+02:00</time>
      </trkpt>
      <trkpt lat="48.51445" lon="1.96397">
        <ele>144</ele>
        <time>2022-07-12T13:28:48+02:00</time>
      </trkpt>
      <trkpt lat="48.51438" lon="1.96407">
        <ele>143</ele>
        <time>2022-07-12T13:28:57+02:00</time>
      </trkpt>
      <trkpt lat="48.51431" lon="1.96414">
        <ele>145</ele>
        <time>2022-07-12T13:29:05+02:00</time>
      </trkpt>
      <trkpt lat="48.51423" lon="1.96423">
        <ele>148</ele>
        <time>2022-07-12T13:29:14+02:00</time>
      </trkpt>
      <trkpt lat="48.51417" lon="1.96434">
        <ele>148</ele>
        <time>2022-07-12T13:29:24+02:00</time>
      </trkpt>
      <trkpt lat="48.5141" lon="1.96443">
        <ele>148</ele>
        <time>2022-07-12T13:29:32+02:00</time>
      </trkpt>
      <trkpt lat="48.51401" lon="1.96453">
        <ele>149</ele>
        <time>2022-07-12T13:29:40+02:00</time>
      </trkpt>
      <trkpt lat="48.51395" lon="1.96462">
        <ele>145</ele>
        <time>2022-07-12T13:29:49+02:00</time>
      </trkpt>
      <trkpt lat="48.51387" lon="1.96471">
        <ele>143</ele>
        <time>2022-07-12T13:29:58+02:00</time>
      </trkpt>
      <trkpt lat="48.51379" lon="1.96479">
        <ele>142</ele>
        <time>2022-07-12T13:30:04+02:00</time>
      </trkpt>
      <trkpt lat="48.51371" lon="1.96487">
        <ele>142</ele>
        <time>2022-07-12T13:30:10+02:00</time>
      </trkpt>
      <trkpt lat="48.51363" lon="1.96495">
        <ele>143</ele>
        <time>2022-07-12T13:30:17+02:00</time>
      </trkpt>
      <trkpt lat="48.51355" lon="1.96503">
        <ele>143</ele>
        <time>2022-07-12T13:30:24+02:00</time>
      </trkpt>
      <trkpt lat="48.51347" lon="1.96512">
        <ele>143</ele>
        <time>2022-07-12T13:30:32+02:00</time>
      </trkpt>
      <trkpt lat="48.51342" lon="1.96523">
        <ele>145</ele>
        <time>2022-07-12T13:30:41+02:00</time>
      </trkpt>
      <trkpt lat="48.51336" lon="1.96534">
        <ele>146</ele>
        <time>2022-07-12T13:30:49+02:00</time>
      </trkpt>
      <trkpt lat="48.51332" lon="1.96547">
        <ele>149</ele>
        <time>2022-07-12T13:30:59+02:00</time>
      </trkpt>
      <trkpt lat="48.51326" lon="1.96558">
        <ele>152</ele>
        <time>2022-07-12T13:31:09+02:00</time>
      </trkpt>
      <trkpt lat="48.51324" lon="1.96571">
        <ele>152</ele>
        <time>2022-07-12T13:31:17+02:00</time>
      </trkpt>
      <trkpt lat="48.51319" lon="1.96584">
        <ele>156</ele>
        <time>2022-07-12T13:31:28+02:00</time>
      </trkpt>
      <trkpt lat="48.51314" lon="1.96596">
        <ele>157</ele>
        <time>2022-07-12T13:31:38+02:00</time>
      </trkpt>
      <trkpt lat="48.51309" lon="1.96606">
        <ele>159</ele>
        <time>2022-07-12T13:31:46+02:00</time>
      </trkpt>
      <trkpt lat="48.51301" lon="1.96614">
        <ele>160</ele>
        <time>2022-07-12T13:31:53+02:00</time>
      </trkpt>
      <trkpt lat="48.51291" lon="1.96622">
        <ele>160</ele>
        <time>2022-07-12T13:32:02+02:00</time>
      </trkpt>
      <trkpt lat="48.51284" lon="1.96631">
        <ele>158</ele>
        <time>2022-07-12T13:32:09+02:00</time>
      </trkpt>
      <trkpt lat="48.51276" lon="1.9664">
        <ele>157</ele>
        <time>2022-07-12T13:32:17+02:00</time>
      </trkpt>
      <trkpt lat="48.51267" lon="1.96648">
        <ele>156</ele>
        <time>2022-07-12T13:32:24+02:00</time>
      </trkpt>
      <trkpt lat="48.5126" lon="1.96657">
        <ele>154</ele>
        <time>2022-07-12T13:32:30+02:00</time>
      </trkpt>
      <trkpt lat="48.51253" lon="1.96666">
        <ele>153</ele>
        <time>2022-07-12T13:32:37+02:00</time>
      </trkpt>
      <trkpt lat="48.51248" lon="1.9668">
        <ele>151</ele>
        <time>2022-07-12T13:32:46+02:00</time>
      </trkpt>
      <trkpt lat="48.51244" lon="1.96693">
        <ele>150</ele>
        <time>2022-07-12T13:32:56+02:00</time>
      </trkpt>
      <trkpt lat="48.51237" lon="1.96703">
        <ele>148</ele>
        <time>2022-07-12T13:33:02+02:00</time>
      </trkpt>
      <trkpt lat="48.51231" lon="1.96713">
        <ele>150</ele>
        <time>2022-07-12T13:33:08+02:00</time>
      </trkpt>
      <trkpt lat="48.51224" lon="1.96723">
        <ele>149</ele>
        <time>2022-07-12T13:33:15+02:00</time>
      </trkpt>
      <trkpt lat="48.51218" lon="1.96734">
        <ele>147</ele>
        <time>2022-07-12T13:33:23+02:00</time>
      </trkpt>
      <trkpt lat="48.51212" lon="1.96745">
        <ele>148</ele>
        <time>2022-07-12T13:33:30+02:00</time>
      </trkpt>
      <trkpt lat="48.51207" lon="1.96755">
        <ele>147</ele>
        <time>2022-07-12T13:33:37+02:00</time>
      </trkpt>
      <trkpt lat="48.512" lon="1.96764">
        <ele>148</ele>
        <time>2022-07-12T13:33:44+02:00</time>
      </trkpt>
      <trkpt lat="48.51193" lon="1.96774">
        <ele>151</ele>
        <time>2022-07-12T13:33:52+02:00</time>
      </trkpt>
      <trkpt lat="48.51185" lon="1.96783">
        <ele>152</ele>
        <time>2022-07-12T13:33:58+02:00</time>
      </trkpt>
      <trkpt lat="48.51171" lon="1.96802">
        <ele>152</ele>
        <time>2022-07-12T13:34:12+02:00</time>
      </trkpt>
      <trkpt lat="48.51164" lon="1.96813">
        <ele>151</ele>
        <time>2022-07-12T13:34:20+02:00</time>
      </trkpt>
      <trkpt lat="48.51159" lon="1.96824">
        <ele>151</ele>
        <time>2022-07-12T13:34:28+02:00</time>
      </trkpt>
      <trkpt lat="48.51153" lon="1.96835">
        <ele>151</ele>
        <time>2022-07-12T13:34:36+02:00</time>
      </trkpt>
      <trkpt lat="48.51146" lon="1.96846">
        <ele>152</ele>
        <time>2022-07-12T13:34:44+02:00</time>
      </trkpt>
      <trkpt lat="48.51139" lon="1.96854">
        <ele>152</ele>
        <time>2022-07-12T13:34:51+02:00</time>
      </trkpt>
      <trkpt lat="48.51132" lon="1.96865">
        <ele>153</ele>
        <time>2022-07-12T13:34:59+02:00</time>
      </trkpt>
      <trkpt lat="48.51125" lon="1.96875">
        <ele>154</ele>
        <time>2022-07-12T13:35:07+02:00</time>
      </trkpt>
      <trkpt lat="48.51118" lon="1.96885">
        <ele>154</ele>
        <time>2022-07-12T13:35:15+02:00</time>
      </trkpt>
      <trkpt lat="48.51111" lon="1.96895">
        <ele>154</ele>
        <time>2022-07-12T13:35:22+02:00</time>
      </trkpt>
      <trkpt lat="48.51105" lon="1.96906">
        <ele>153</ele>
        <time>2022-07-12T13:35:30+02:00</time>
      </trkpt>
      <trkpt lat="48.51098" lon="1.96916">
        <ele>152</ele>
        <time>2022-07-12T13:35:39+02:00</time>
      </trkpt>
      <trkpt lat="48.51092" lon="1.96928">
        <ele>150</ele>
        <time>2022-07-12T13:35:49+02:00</time>
      </trkpt>
      <trkpt lat="48.51085" lon="1.96938">
        <ele>153</ele>
        <time>2022-07-12T13:35:56+02:00</time>
      </trkpt>
      <trkpt lat="48.5108" lon="1.9695">
        <ele>155</ele>
        <time>2022-07-12T13:36:04+02:00</time>
      </trkpt>
      <trkpt lat="48.51073" lon="1.9696">
        <ele>156</ele>
        <time>2022-07-12T13:36:12+02:00</time>
      </trkpt>
      <trkpt lat="48.51067" lon="1.96972">
        <ele>158</ele>
        <time>2022-07-12T13:36:20+02:00</time>
      </trkpt>
      <trkpt lat="48.51059" lon="1.96981">
        <ele>161</ele>
        <time>2022-07-12T13:36:26+02:00</time>
      </trkpt>
      <trkpt lat="48.51053" lon="1.96992">
        <ele>162</ele>
        <time>2022-07-12T13:36:34+02:00</time>
      </trkpt>
      <trkpt lat="48.51047" lon="1.97003">
        <ele>160</ele>
        <time>2022-07-12T13:36:40+02:00</time>
      </trkpt>
      <trkpt lat="48.51039" lon="1.97012">
        <ele>161</ele>
        <time>2022-07-12T13:36:47+02:00</time>
      </trkpt>
      <trkpt lat="48.51033" lon="1.97023">
        <ele>160</ele>
        <time>2022-07-12T13:36:55+02:00</time>
      </trkpt>
      <trkpt lat="48.51026" lon="1.97032">
        <ele>161</ele>
        <time>2022-07-12T13:37:02+02:00</time>
      </trkpt>
      <trkpt lat="48.51021" lon="1.97044">
        <ele>161</ele>
        <time>2022-07-12T13:37:09+02:00</time>
      </trkpt>
      <trkpt lat="48.51013" lon="1.97054">
        <ele>160</ele>
        <time>2022-07-12T13:37:16+02:00</time>
      </trkpt>
      <trkpt lat="48.51008" lon="1.97066">
        <ele>159</ele>
        <time>2022-07-12T13:37:23+02:00</time>
      </trkpt>
      <trkpt lat="48.51004" lon="1.97079">
        <ele>159</ele>
        <time>2022-07-12T13:37:32+02:00</time>
      </trkpt>
      <trkpt lat="48.51002" lon="1.97092">
        <ele>161</ele>
        <time>2022-07-12T13:37:42+02:00</time>
      </trkpt>
      <trkpt lat="48.50998" lon="1.97106">
        <ele>163</ele>
        <time>2022-07-12T13:37:52+02:00</time>
      </trkpt>
      <trkpt lat="48.50993" lon="1.97119">
        <ele>165</ele>
        <time>2022-07-12T13:38:01+02:00</time>
      </trkpt>
      <trkpt lat="48.50981" lon="1.97139">
        <ele>169</ele>
        <time>2022-07-12T13:38:16+02:00</time>
      </trkpt>
      <trkpt lat="48.50978" lon="1.97153">
        <ele>169</ele>
        <time>2022-07-12T13:38:24+02:00</time>
      </trkpt>
      <trkpt lat="48.50972" lon="1.97165">
        <ele>168</ele>
        <time>2022-07-12T13:38:32+02:00</time>
      </trkpt>
      <trkpt lat="48.50966" lon="1.97177">
        <ele>167</ele>
        <time>2022-07-12T13:38:41+02:00</time>
      </trkpt>
      <trkpt lat="48.50959" lon="1.97187">
        <ele>166</ele>
        <time>2022-07-12T13:38:48+02:00</time>
      </trkpt>
      <trkpt lat="48.50956" lon="1.97201">
        <ele>167</ele>
        <time>2022-07-12T13:38:57+02:00</time>
      </trkpt>
      <trkpt lat="48.50953" lon="1.97216">
        <ele>168</ele>
        <time>2022-07-12T13:39:05+02:00</time>
      </trkpt>
      <trkpt lat="48.50949" lon="1.97228">
        <ele>167</ele>
        <time>2022-07-12T13:39:13+02:00</time>
      </trkpt>
      <trkpt lat="48.5094" lon="1.97236">
        <ele>164</ele>
        <time>2022-07-12T13:39:19+02:00</time>
      </trkpt>
      <trkpt lat="48.50937" lon="1.9725">
        <ele>162</ele>
        <time>2022-07-12T13:39:28+02:00</time>
      </trkpt>
      <trkpt lat="48.50939" lon="1.97264">
        <ele>162</ele>
        <time>2022-07-12T13:39:35+02:00</time>
      </trkpt>
      <trkpt lat="48.50935" lon="1.97278">
        <ele>161</ele>
        <time>2022-07-12T13:39:43+02:00</time>
      </trkpt>
      <trkpt lat="48.50931" lon="1.97291">
        <ele>160</ele>
        <time>2022-07-12T13:39:50+02:00</time>
      </trkpt>
      <trkpt lat="48.5093" lon="1.97305">
        <ele>159</ele>
        <time>2022-07-12T13:39:58+02:00</time>
      </trkpt>
      <trkpt lat="48.50928" lon="1.97318">
        <ele>158</ele>
        <time>2022-07-12T13:40:06+02:00</time>
      </trkpt>
      <trkpt lat="48.50924" lon="1.97333">
        <ele>156</ele>
        <time>2022-07-12T13:40:14+02:00</time>
      </trkpt>
      <trkpt lat="48.50919" lon="1.97346">
        <ele>156</ele>
        <time>2022-07-12T13:40:21+02:00</time>
      </trkpt>
      <trkpt lat="48.50916" lon="1.97359">
        <ele>155</ele>
        <time>2022-07-12T13:40:31+02:00</time>
      </trkpt>
      <trkpt lat="48.50917" lon="1.97373">
        <ele>156</ele>
        <time>2022-07-12T13:40:42+02:00</time>
      </trkpt>
      <trkpt lat="48.50917" lon="1.97387">
        <ele>154</ele>
        <time>2022-07-12T13:40:52+02:00</time>
      </trkpt>
      <trkpt lat="48.50921" lon="1.97399">
        <ele>153</ele>
        <time>2022-07-12T13:40:59+02:00</time>
      </trkpt>
      <trkpt lat="48.50926" lon="1.97411">
        <ele>153</ele>
        <time>2022-07-12T13:41:05+02:00</time>
      </trkpt>
      <trkpt lat="48.50932" lon="1.97421">
        <ele>152</ele>
        <time>2022-07-12T13:41:11+02:00</time>
      </trkpt>
      <trkpt lat="48.50938" lon="1.97432">
        <ele>150</ele>
        <time>2022-07-12T13:41:22+02:00</time>
      </trkpt>
      <trkpt lat="48.50942" lon="1.97445">
        <ele>150</ele>
        <time>2022-07-12T13:41:35+02:00</time>
      </trkpt>
      <trkpt lat="48.50947" lon="1.97457">
        <ele>152</ele>
        <time>2022-07-12T13:41:42+02:00</time>
      </trkpt>
      <trkpt lat="48.50953" lon="1.97468">
        <ele>152</ele>
        <time>2022-07-12T13:41:49+02:00</time>
      </trkpt>
      <trkpt lat="48.50956" lon="1.97481">
        <ele>150</ele>
        <time>2022-07-12T13:42:03+02:00</time>
      </trkpt>
      <trkpt lat="48.50962" lon="1.97491">
        <ele>145</ele>
        <time>2022-07-12T13:42:36+02:00</time>
      </trkpt>
      <trkpt lat="48.50968" lon="1.97503">
        <ele>147</ele>
        <time>2022-07-12T13:42:46+02:00</time>
      </trkpt>
      <trkpt lat="48.50974" lon="1.97514">
        <ele>149</ele>
        <time>2022-07-12T13:42:58+02:00</time>
      </trkpt>
      <trkpt lat="48.50979" lon="1.97526">
        <ele>151</ele>
        <time>2022-07-12T13:43:07+02:00</time>
      </trkpt>
      <trkpt lat="48.50983" lon="1.97538">
        <ele>150</ele>
        <time>2022-07-12T13:43:15+02:00</time>
      </trkpt>
      <trkpt lat="48.50989" lon="1.97551">
        <ele>149</ele>
        <time>2022-07-12T13:43:22+02:00</time>
      </trkpt>
      <trkpt lat="48.50994" lon="1.97562">
        <ele>151</ele>
        <time>2022-07-12T13:43:30+02:00</time>
      </trkpt>
      <trkpt lat="48.51" lon="1.97575">
        <ele>154</ele>
        <time>2022-07-12T13:43:41+02:00</time>
      </trkpt>
      <trkpt lat="48.51007" lon="1.97585">
        <ele>156</ele>
        <time>2022-07-12T13:43:48+02:00</time>
      </trkpt>
      <trkpt lat="48.51012" lon="1.97597">
        <ele>157</ele>
        <time>2022-07-12T13:43:55+02:00</time>
      </trkpt>
      <trkpt lat="48.51018" lon="1.97609">
        <ele>157</ele>
        <time>2022-07-12T13:44:02+02:00</time>
      </trkpt>
      <trkpt lat="48.51023" lon="1.97621">
        <ele>156</ele>
        <time>2022-07-12T13:44:10+02:00</time>
      </trkpt>
      <trkpt lat="48.51029" lon="1.97633">
        <ele>155</ele>
        <time>2022-07-12T13:44:19+02:00</time>
      </trkpt>
      <trkpt lat="48.51034" lon="1.97644">
        <ele>154</ele>
        <time>2022-07-12T13:44:26+02:00</time>
      </trkpt>
      <trkpt lat="48.5104" lon="1.97657">
        <ele>155</ele>
        <time>2022-07-12T13:44:33+02:00</time>
      </trkpt>
      <trkpt lat="48.51044" lon="1.97669">
        <ele>155</ele>
        <time>2022-07-12T13:44:42+02:00</time>
      </trkpt>
      <trkpt lat="48.5105" lon="1.97681">
        <ele>154</ele>
        <time>2022-07-12T13:44:51+02:00</time>
      </trkpt>
      <trkpt lat="48.51059" lon="1.97704">
        <ele>154</ele>
        <time>2022-07-12T13:45:07+02:00</time>
      </trkpt>
      <trkpt lat="48.51063" lon="1.97717">
        <ele>155</ele>
        <time>2022-07-12T13:45:17+02:00</time>
      </trkpt>
      <trkpt lat="48.51069" lon="1.97728">
        <ele>154</ele>
        <time>2022-07-12T13:45:24+02:00</time>
      </trkpt>
      <trkpt lat="48.51073" lon="1.97741">
        <ele>154</ele>
        <time>2022-07-12T13:45:34+02:00</time>
      </trkpt>
      <trkpt lat="48.5108" lon="1.97753">
        <ele>155</ele>
        <time>2022-07-12T13:45:41+02:00</time>
      </trkpt>
      <trkpt lat="48.51085" lon="1.97765">
        <ele>155</ele>
        <time>2022-07-12T13:45:50+02:00</time>
      </trkpt>
      <trkpt lat="48.51091" lon="1.97775">
        <ele>155</ele>
        <time>2022-07-12T13:45:56+02:00</time>
      </trkpt>
      <trkpt lat="48.51098" lon="1.97787">
        <ele>155</ele>
        <time>2022-07-12T13:46:05+02:00</time>
      </trkpt>
      <trkpt lat="48.51103" lon="1.97798">
        <ele>156</ele>
        <time>2022-07-12T13:46:11+02:00</time>
      </trkpt>
      <trkpt lat="48.51109" lon="1.9781">
        <ele>155</ele>
        <time>2022-07-12T13:46:17+02:00</time>
      </trkpt>
      <trkpt lat="48.51115" lon="1.9782">
        <ele>154</ele>
        <time>2022-07-12T13:46:25+02:00</time>
      </trkpt>
      <trkpt lat="48.51112" lon="1.97833">
        <ele>152</ele>
        <time>2022-07-12T13:46:34+02:00</time>
      </trkpt>
      <trkpt lat="48.51112" lon="1.97848">
        <ele>153</ele>
        <time>2022-07-12T13:46:41+02:00</time>
      </trkpt>
      <trkpt lat="48.51113" lon="1.97861">
        <ele>149</ele>
        <time>2022-07-12T13:46:50+02:00</time>
      </trkpt>
      <trkpt lat="48.51111" lon="1.97876">
        <ele>147</ele>
        <time>2022-07-12T13:46:59+02:00</time>
      </trkpt>
      <trkpt lat="48.51108" lon="1.9789">
        <ele>147</ele>
        <time>2022-07-12T13:47:06+02:00</time>
      </trkpt>
      <trkpt lat="48.51103" lon="1.97902">
        <ele>147</ele>
        <time>2022-07-12T13:47:14+02:00</time>
      </trkpt>
      <trkpt lat="48.51094" lon="1.97909">
        <ele>146</ele>
        <time>2022-07-12T13:47:21+02:00</time>
      </trkpt>
      <trkpt lat="48.51093" lon="1.97923">
        <ele>145</ele>
        <time>2022-07-12T13:47:29+02:00</time>
      </trkpt>
      <trkpt lat="48.51087" lon="1.97934">
        <ele>147</ele>
        <time>2022-07-12T13:47:40+02:00</time>
      </trkpt>
      <trkpt lat="48.51087" lon="1.97948">
        <ele>147</ele>
        <time>2022-07-12T13:47:55+02:00</time>
      </trkpt>
      <trkpt lat="48.51083" lon="1.97962">
        <ele>148</ele>
        <time>2022-07-12T13:48:10+02:00</time>
      </trkpt>
      <trkpt lat="48.51077" lon="1.97973">
        <ele>152</ele>
        <time>2022-07-12T13:48:23+02:00</time>
      </trkpt>
      <trkpt lat="48.5107" lon="1.97981">
        <ele>153</ele>
        <time>2022-07-12T13:48:35+02:00</time>
      </trkpt>
      <trkpt lat="48.51065" lon="1.97994">
        <ele>155</ele>
        <time>2022-07-12T13:48:51+02:00</time>
      </trkpt>
      <trkpt lat="48.51059" lon="1.98019">
        <ele>156</ele>
        <time>2022-07-12T13:49:14+02:00</time>
      </trkpt>
      <trkpt lat="48.51055" lon="1.98033">
        <ele>158</ele>
        <time>2022-07-12T13:49:22+02:00</time>
      </trkpt>
      <trkpt lat="48.51049" lon="1.98044">
        <ele>161</ele>
        <time>2022-07-12T13:49:29+02:00</time>
      </trkpt>
      <trkpt lat="48.51044" lon="1.9807">
        <ele>169</ele>
        <time>2022-07-12T13:49:49+02:00</time>
      </trkpt>
      <trkpt lat="48.5104" lon="1.98083">
        <ele>174</ele>
        <time>2022-07-12T13:49:58+02:00</time>
      </trkpt>
      <trkpt lat="48.51033" lon="1.98095">
        <ele>178</ele>
        <time>2022-07-12T13:50:07+02:00</time>
      </trkpt>
      <trkpt lat="48.51028" lon="1.98108">
        <ele>180</ele>
        <time>2022-07-12T13:50:15+02:00</time>
      </trkpt>
      <trkpt lat="48.51021" lon="1.98118">
        <ele>181</ele>
        <time>2022-07-12T13:50:23+02:00</time>
      </trkpt>
      <trkpt lat="48.51013" lon="1.98126">
        <ele>183</ele>
        <time>2022-07-12T13:50:32+02:00</time>
      </trkpt>
      <trkpt lat="48.51004" lon="1.98131">
        <ele>182</ele>
        <time>2022-07-12T13:50:46+02:00</time>
      </trkpt>
      <trkpt lat="48.51" lon="1.98145">
        <ele>177</ele>
        <time>2022-07-12T13:51:00+02:00</time>
      </trkpt>
      <trkpt lat="48.51009" lon="1.9815">
        <ele>165</ele>
        <time>2022-07-12T13:52:03+02:00</time>
      </trkpt>
      <trkpt lat="48.51001" lon="1.98159">
        <ele>163</ele>
        <time>2022-07-12T13:53:35+02:00</time>
      </trkpt>
      <trkpt lat="48.50996" lon="1.98172">
        <ele>163</ele>
        <time>2022-07-12T13:53:44+02:00</time>
      </trkpt>
      <trkpt lat="48.50993" lon="1.98185">
        <ele>163</ele>
        <time>2022-07-12T13:53:53+02:00</time>
      </trkpt>
      <trkpt lat="48.50987" lon="1.98198">
        <ele>163</ele>
        <time>2022-07-12T13:54:03+02:00</time>
      </trkpt>
      <trkpt lat="48.50981" lon="1.98208">
        <ele>162</ele>
        <time>2022-07-12T13:54:12+02:00</time>
      </trkpt>
      <trkpt lat="48.50978" lon="1.98222">
        <ele>162</ele>
        <time>2022-07-12T13:54:32+02:00</time>
      </trkpt>
      <trkpt lat="48.50975" lon="1.98237">
        <ele>165</ele>
        <time>2022-07-12T13:54:42+02:00</time>
      </trkpt>
      <trkpt lat="48.50973" lon="1.9825">
        <ele>170</ele>
        <time>2022-07-12T13:54:52+02:00</time>
      </trkpt>
      <trkpt lat="48.50971" lon="1.98264">
        <ele>175</ele>
        <time>2022-07-12T13:55:05+02:00</time>
      </trkpt>
      <trkpt lat="48.50964" lon="1.98275">
        <ele>177</ele>
        <time>2022-07-12T13:55:13+02:00</time>
      </trkpt>
      <trkpt lat="48.50957" lon="1.98285">
        <ele>178</ele>
        <time>2022-07-12T13:55:21+02:00</time>
      </trkpt>
      <trkpt lat="48.50952" lon="1.98296">
        <ele>179</ele>
        <time>2022-07-12T13:55:31+02:00</time>
      </trkpt>
      <trkpt lat="48.50947" lon="1.98309">
        <ele>180</ele>
        <time>2022-07-12T13:55:41+02:00</time>
      </trkpt>
      <trkpt lat="48.50943" lon="1.98321">
        <ele>182</ele>
        <time>2022-07-12T13:55:49+02:00</time>
      </trkpt>
      <trkpt lat="48.50935" lon="1.9833">
        <ele>181</ele>
        <time>2022-07-12T13:55:56+02:00</time>
      </trkpt>
      <trkpt lat="48.5093" lon="1.98341">
        <ele>181</ele>
        <time>2022-07-12T13:56:04+02:00</time>
      </trkpt>
      <trkpt lat="48.50924" lon="1.98353">
        <ele>182</ele>
        <time>2022-07-12T13:56:12+02:00</time>
      </trkpt>
      <trkpt lat="48.50918" lon="1.98365">
        <ele>184</ele>
        <time>2022-07-12T13:56:19+02:00</time>
      </trkpt>
      <trkpt lat="48.50914" lon="1.98377">
        <ele>183</ele>
        <time>2022-07-12T13:56:24+02:00</time>
      </trkpt>
      <trkpt lat="48.5091" lon="1.9839">
        <ele>181</ele>
        <time>2022-07-12T13:56:30+02:00</time>
      </trkpt>
      <trkpt lat="48.50904" lon="1.98401">
        <ele>179</ele>
        <time>2022-07-12T13:56:37+02:00</time>
      </trkpt>
      <trkpt lat="48.50899" lon="1.98412">
        <ele>178</ele>
        <time>2022-07-12T13:56:48+02:00</time>
      </trkpt>
      <trkpt lat="48.50897" lon="1.98426">
        <ele>178</ele>
        <time>2022-07-12T13:56:56+02:00</time>
      </trkpt>
      <trkpt lat="48.50892" lon="1.98438">
        <ele>177</ele>
        <time>2022-07-12T13:57:03+02:00</time>
      </trkpt>
      <trkpt lat="48.50888" lon="1.98452">
        <ele>177</ele>
        <time>2022-07-12T13:57:11+02:00</time>
      </trkpt>
      <trkpt lat="48.50883" lon="1.98464">
        <ele>177</ele>
        <time>2022-07-12T13:57:19+02:00</time>
      </trkpt>
      <trkpt lat="48.50877" lon="1.98474">
        <ele>177</ele>
        <time>2022-07-12T13:57:30+02:00</time>
      </trkpt>
      <trkpt lat="48.50872" lon="1.98488">
        <ele>177</ele>
        <time>2022-07-12T13:57:38+02:00</time>
      </trkpt>
      <trkpt lat="48.5087" lon="1.98501">
        <ele>176</ele>
        <time>2022-07-12T13:57:45+02:00</time>
      </trkpt>
      <trkpt lat="48.50867" lon="1.98515">
        <ele>175</ele>
        <time>2022-07-12T13:57:54+02:00</time>
      </trkpt>
      <trkpt lat="48.50861" lon="1.98526">
        <ele>175</ele>
        <time>2022-07-12T13:58:02+02:00</time>
      </trkpt>
      <trkpt lat="48.50856" lon="1.98539">
        <ele>174</ele>
        <time>2022-07-12T13:58:09+02:00</time>
      </trkpt>
      <trkpt lat="48.50853" lon="1.98554">
        <ele>175</ele>
        <time>2022-07-12T13:58:18+02:00</time>
      </trkpt>
      <trkpt lat="48.50849" lon="1.98567">
        <ele>175</ele>
        <time>2022-07-12T13:58:25+02:00</time>
      </trkpt>
      <trkpt lat="48.50844" lon="1.98578">
        <ele>175</ele>
        <time>2022-07-12T13:58:32+02:00</time>
      </trkpt>
      <trkpt lat="48.50839" lon="1.98592">
        <ele>175</ele>
        <time>2022-07-12T13:58:40+02:00</time>
      </trkpt>
      <trkpt lat="48.50836" lon="1.98605">
        <ele>176</ele>
        <time>2022-07-12T13:58:48+02:00</time>
      </trkpt>
      <trkpt lat="48.50831" lon="1.98618">
        <ele>177</ele>
        <time>2022-07-12T13:58:55+02:00</time>
      </trkpt>
      <trkpt lat="48.50826" lon="1.9863">
        <ele>177</ele>
        <time>2022-07-12T13:59:03+02:00</time>
      </trkpt>
      <trkpt lat="48.50822" lon="1.98645">
        <ele>177</ele>
        <time>2022-07-12T13:59:11+02:00</time>
      </trkpt>
      <trkpt lat="48.50818" lon="1.98658">
        <ele>177</ele>
        <time>2022-07-12T13:59:18+02:00</time>
      </trkpt>
      <trkpt lat="48.50811" lon="1.98669">
        <ele>177</ele>
        <time>2022-07-12T13:59:26+02:00</time>
      </trkpt>
      <trkpt lat="48.50805" lon="1.9868">
        <ele>178</ele>
        <time>2022-07-12T13:59:32+02:00</time>
      </trkpt>
      <trkpt lat="48.50797" lon="1.98689">
        <ele>175</ele>
        <time>2022-07-12T13:59:38+02:00</time>
      </trkpt>
      <trkpt lat="48.50794" lon="1.98702">
        <ele>175</ele>
        <time>2022-07-12T13:59:45+02:00</time>
      </trkpt>
      <trkpt lat="48.50792" lon="1.98716">
        <ele>174</ele>
        <time>2022-07-12T13:59:53+02:00</time>
      </trkpt>
      <trkpt lat="48.50788" lon="1.98729">
        <ele>173</ele>
        <time>2022-07-12T14:00:02+02:00</time>
      </trkpt>
      <trkpt lat="48.50783" lon="1.98741">
        <ele>171</ele>
        <time>2022-07-12T14:00:09+02:00</time>
      </trkpt>
      <trkpt lat="48.50776" lon="1.9875">
        <ele>169</ele>
        <time>2022-07-12T14:00:16+02:00</time>
      </trkpt>
      <trkpt lat="48.50771" lon="1.98762">
        <ele>167</ele>
        <time>2022-07-12T14:00:23+02:00</time>
      </trkpt>
      <trkpt lat="48.50766" lon="1.98775">
        <ele>166</ele>
        <time>2022-07-12T14:00:30+02:00</time>
      </trkpt>
      <trkpt lat="48.50763" lon="1.98789">
        <ele>164</ele>
        <time>2022-07-12T14:00:38+02:00</time>
      </trkpt>
      <trkpt lat="48.50758" lon="1.98801">
        <ele>161</ele>
        <time>2022-07-12T14:00:47+02:00</time>
      </trkpt>
      <trkpt lat="48.50752" lon="1.98811">
        <ele>159</ele>
        <time>2022-07-12T14:00:55+02:00</time>
      </trkpt>
      <trkpt lat="48.50748" lon="1.98824">
        <ele>157</ele>
        <time>2022-07-12T14:01:04+02:00</time>
      </trkpt>
      <trkpt lat="48.50743" lon="1.98837">
        <ele>157</ele>
        <time>2022-07-12T14:01:13+02:00</time>
      </trkpt>
      <trkpt lat="48.50738" lon="1.98848">
        <ele>157</ele>
        <time>2022-07-12T14:01:20+02:00</time>
      </trkpt>
      <trkpt lat="48.50736" lon="1.98862">
        <ele>157</ele>
        <time>2022-07-12T14:01:28+02:00</time>
      </trkpt>
      <trkpt lat="48.50731" lon="1.98874">
        <ele>157</ele>
        <time>2022-07-12T14:01:36+02:00</time>
      </trkpt>
      <trkpt lat="48.5073" lon="1.98888">
        <ele>156</ele>
        <time>2022-07-12T14:01:43+02:00</time>
      </trkpt>
      <trkpt lat="48.50724" lon="1.98899">
        <ele>156</ele>
        <time>2022-07-12T14:01:53+02:00</time>
      </trkpt>
      <trkpt lat="48.50723" lon="1.98913">
        <ele>156</ele>
        <time>2022-07-12T14:02:02+02:00</time>
      </trkpt>
      <trkpt lat="48.5072" lon="1.98926">
        <ele>155</ele>
        <time>2022-07-12T14:02:11+02:00</time>
      </trkpt>
      <trkpt lat="48.50717" lon="1.98939">
        <ele>150</ele>
        <time>2022-07-12T14:02:19+02:00</time>
      </trkpt>
      <trkpt lat="48.50711" lon="1.98951">
        <ele>148</ele>
        <time>2022-07-12T14:02:26+02:00</time>
      </trkpt>
      <trkpt lat="48.50712" lon="1.98965">
        <ele>136</ele>
        <time>2022-07-12T14:03:26+02:00</time>
      </trkpt>
      <trkpt lat="48.50705" lon="1.98973">
        <ele>137</ele>
        <time>2022-07-12T14:03:49+02:00</time>
      </trkpt>
      <trkpt lat="48.50694" lon="1.98977">
        <ele>137</ele>
        <time>2022-07-12T14:03:55+02:00</time>
      </trkpt>
      <trkpt lat="48.50685" lon="1.98982">
        <ele>135</ele>
        <time>2022-07-12T14:04:02+02:00</time>
      </trkpt>
      <trkpt lat="48.50676" lon="1.98979">
        <ele>132</ele>
        <time>2022-07-12T14:04:11+02:00</time>
      </trkpt>
      <trkpt lat="48.50671" lon="1.98992">
        <ele>134</ele>
        <time>2022-07-12T14:04:34+02:00</time>
      </trkpt>
      <trkpt lat="48.50666" lon="1.99004">
        <ele>136</ele>
        <time>2022-07-12T14:04:40+02:00</time>
      </trkpt>
      <trkpt lat="48.5066" lon="1.99014">
        <ele>135</ele>
        <time>2022-07-12T14:04:47+02:00</time>
      </trkpt>
      <trkpt lat="48.50657" lon="1.99027">
        <ele>135</ele>
        <time>2022-07-12T14:04:55+02:00</time>
      </trkpt>
      <trkpt lat="48.50656" lon="1.99055">
        <ele>131</ele>
        <time>2022-07-12T14:05:11+02:00</time>
      </trkpt>
      <trkpt lat="48.50659" lon="1.9907">
        <ele>127</ele>
        <time>2022-07-12T14:05:29+02:00</time>
      </trkpt>
      <trkpt lat="48.50658" lon="1.99084">
        <ele>131</ele>
        <time>2022-07-12T14:05:40+02:00</time>
      </trkpt>
      <trkpt lat="48.50651" lon="1.9911">
        <ele>133</ele>
        <time>2022-07-12T14:05:58+02:00</time>
      </trkpt>
      <trkpt lat="48.50651" lon="1.99124">
        <ele>133</ele>
        <time>2022-07-12T14:06:05+02:00</time>
      </trkpt>
      <trkpt lat="48.5065" lon="1.99139">
        <ele>132</ele>
        <time>2022-07-12T14:06:13+02:00</time>
      </trkpt>
      <trkpt lat="48.5065" lon="1.99153">
        <ele>134</ele>
        <time>2022-07-12T14:06:20+02:00</time>
      </trkpt>
      <trkpt lat="48.50652" lon="1.99168">
        <ele>134</ele>
        <time>2022-07-12T14:06:27+02:00</time>
      </trkpt>
      <trkpt lat="48.50652" lon="1.99182">
        <ele>134</ele>
        <time>2022-07-12T14:06:34+02:00</time>
      </trkpt>
      <trkpt lat="48.50654" lon="1.99196">
        <ele>134</ele>
        <time>2022-07-12T14:06:41+02:00</time>
      </trkpt>
      <trkpt lat="48.50655" lon="1.9921">
        <ele>134</ele>
        <time>2022-07-12T14:06:48+02:00</time>
      </trkpt>
      <trkpt lat="48.50659" lon="1.99223">
        <ele>133</ele>
        <time>2022-07-12T14:06:55+02:00</time>
      </trkpt>
      <trkpt lat="48.50662" lon="1.99238">
        <ele>134</ele>
        <time>2022-07-12T14:07:02+02:00</time>
      </trkpt>
      <trkpt lat="48.50664" lon="1.99252">
        <ele>134</ele>
        <time>2022-07-12T14:07:10+02:00</time>
      </trkpt>
      <trkpt lat="48.50664" lon="1.99266">
        <ele>134</ele>
        <time>2022-07-12T14:07:17+02:00</time>
      </trkpt>
      <trkpt lat="48.50663" lon="1.99281">
        <ele>132</ele>
        <time>2022-07-12T14:07:24+02:00</time>
      </trkpt>
      <trkpt lat="48.50662" lon="1.99295">
        <ele>129</ele>
        <time>2022-07-12T14:07:33+02:00</time>
      </trkpt>
      <trkpt lat="48.50662" lon="1.99309">
        <ele>127</ele>
        <time>2022-07-12T14:07:41+02:00</time>
      </trkpt>
      <trkpt lat="48.50662" lon="1.99324">
        <ele>127</ele>
        <time>2022-07-12T14:07:49+02:00</time>
      </trkpt>
      <trkpt lat="48.50663" lon="1.99337">
        <ele>126</ele>
        <time>2022-07-12T14:07:56+02:00</time>
      </trkpt>
      <trkpt lat="48.50667" lon="1.9935">
        <ele>126</ele>
        <time>2022-07-12T14:08:03+02:00</time>
      </trkpt>
      <trkpt lat="48.50671" lon="1.99363">
        <ele>128</ele>
        <time>2022-07-12T14:08:10+02:00</time>
      </trkpt>
      <trkpt lat="48.50673" lon="1.99377">
        <ele>130</ele>
        <time>2022-07-12T14:08:17+02:00</time>
      </trkpt>
      <trkpt lat="48.50671" lon="1.99392">
        <ele>130</ele>
        <time>2022-07-12T14:08:24+02:00</time>
      </trkpt>
      <trkpt lat="48.50671" lon="1.99406">
        <ele>128</ele>
        <time>2022-07-12T14:08:30+02:00</time>
      </trkpt>
      <trkpt lat="48.50669" lon="1.9942">
        <ele>127</ele>
        <time>2022-07-12T14:08:37+02:00</time>
      </trkpt>
      <trkpt lat="48.50668" lon="1.99435">
        <ele>124</ele>
        <time>2022-07-12T14:08:44+02:00</time>
      </trkpt>
      <trkpt lat="48.50668" lon="1.99449">
        <ele>122</ele>
        <time>2022-07-12T14:08:55+02:00</time>
      </trkpt>
      <trkpt lat="48.5067" lon="1.99464">
        <ele>120</ele>
        <time>2022-07-12T14:09:03+02:00</time>
      </trkpt>
      <trkpt lat="48.50669" lon="1.99478">
        <ele>118</ele>
        <time>2022-07-12T14:09:10+02:00</time>
      </trkpt>
      <trkpt lat="48.5067" lon="1.99492">
        <ele>118</ele>
        <time>2022-07-12T14:09:17+02:00</time>
      </trkpt>
      <trkpt lat="48.50671" lon="1.99507">
        <ele>116</ele>
        <time>2022-07-12T14:09:25+02:00</time>
      </trkpt>
      <trkpt lat="48.50674" lon="1.99522">
        <ele>115</ele>
        <time>2022-07-12T14:09:32+02:00</time>
      </trkpt>
      <trkpt lat="48.50676" lon="1.99537">
        <ele>114</ele>
        <time>2022-07-12T14:09:40+02:00</time>
      </trkpt>
      <trkpt lat="48.50679" lon="1.99551">
        <ele>113</ele>
        <time>2022-07-12T14:09:47+02:00</time>
      </trkpt>
      <trkpt lat="48.5068" lon="1.99565">
        <ele>114</ele>
        <time>2022-07-12T14:09:54+02:00</time>
      </trkpt>
      <trkpt lat="48.50682" lon="1.99579">
        <ele>115</ele>
        <time>2022-07-12T14:10:01+02:00</time>
      </trkpt>
      <trkpt lat="48.50683" lon="1.99593">
        <ele>114</ele>
        <time>2022-07-12T14:10:08+02:00</time>
      </trkpt>
      <trkpt lat="48.50684" lon="1.99608">
        <ele>113</ele>
        <time>2022-07-12T14:10:15+02:00</time>
      </trkpt>
      <trkpt lat="48.50684" lon="1.99623">
        <ele>112</ele>
        <time>2022-07-12T14:10:22+02:00</time>
      </trkpt>
      <trkpt lat="48.50687" lon="1.99637">
        <ele>111</ele>
        <time>2022-07-12T14:10:29+02:00</time>
      </trkpt>
      <trkpt lat="48.50689" lon="1.99651">
        <ele>110</ele>
        <time>2022-07-12T14:10:36+02:00</time>
      </trkpt>
      <trkpt lat="48.50691" lon="1.99665">
        <ele>109</ele>
        <time>2022-07-12T14:10:43+02:00</time>
      </trkpt>
      <trkpt lat="48.50692" lon="1.9968">
        <ele>108</ele>
        <time>2022-07-12T14:10:51+02:00</time>
      </trkpt>
      <trkpt lat="48.50694" lon="1.99693">
        <ele>108</ele>
        <time>2022-07-12T14:10:58+02:00</time>
      </trkpt>
      <trkpt lat="48.50697" lon="1.99706">
        <ele>108</ele>
        <time>2022-07-12T14:11:04+02:00</time>
      </trkpt>
      <trkpt lat="48.50698" lon="1.99721">
        <ele>109</ele>
        <time>2022-07-12T14:11:11+02:00</time>
      </trkpt>
      <trkpt lat="48.50704" lon="1.99733">
        <ele>110</ele>
        <time>2022-07-12T14:11:19+02:00</time>
      </trkpt>
      <trkpt lat="48.50707" lon="1.99748">
        <ele>111</ele>
        <time>2022-07-12T14:11:26+02:00</time>
      </trkpt>
      <trkpt lat="48.50708" lon="1.99761">
        <ele>111</ele>
        <time>2022-07-12T14:11:33+02:00</time>
      </trkpt>
      <trkpt lat="48.5071" lon="1.99776">
        <ele>111</ele>
        <time>2022-07-12T14:11:41+02:00</time>
      </trkpt>
      <trkpt lat="48.50712" lon="1.9979">
        <ele>110</ele>
        <time>2022-07-12T14:11:48+02:00</time>
      </trkpt>
      <trkpt lat="48.50713" lon="1.99804">
        <ele>111</ele>
        <time>2022-07-12T14:11:55+02:00</time>
      </trkpt>
      <trkpt lat="48.50715" lon="1.99819">
        <ele>111</ele>
        <time>2022-07-12T14:12:03+02:00</time>
      </trkpt>
      <trkpt lat="48.50719" lon="1.99833">
        <ele>112</ele>
        <time>2022-07-12T14:12:11+02:00</time>
      </trkpt>
      <trkpt lat="48.50723" lon="1.99847">
        <ele>113</ele>
        <time>2022-07-12T14:12:21+02:00</time>
      </trkpt>
      <trkpt lat="48.50725" lon="1.99861">
        <ele>117</ele>
        <time>2022-07-12T14:12:34+02:00</time>
      </trkpt>
      <trkpt lat="48.50726" lon="1.99875">
        <ele>123</ele>
        <time>2022-07-12T14:12:47+02:00</time>
      </trkpt>
      <trkpt lat="48.50724" lon="1.9989">
        <ele>127</ele>
        <time>2022-07-12T14:12:55+02:00</time>
      </trkpt>
      <trkpt lat="48.50723" lon="1.99904">
        <ele>129</ele>
        <time>2022-07-12T14:13:04+02:00</time>
      </trkpt>
      <trkpt lat="48.50718" lon="1.99916">
        <ele>131</ele>
        <time>2022-07-12T14:13:14+02:00</time>
      </trkpt>
      <trkpt lat="48.50713" lon="1.99928">
        <ele>134</ele>
        <time>2022-07-12T14:13:25+02:00</time>
      </trkpt>
      <trkpt lat="48.50708" lon="1.9994">
        <ele>135</ele>
        <time>2022-07-12T14:13:35+02:00</time>
      </trkpt>
      <trkpt lat="48.50705" lon="1.99952">
        <ele>139</ele>
        <time>2022-07-12T14:13:44+02:00</time>
      </trkpt>
      <trkpt lat="48.507" lon="1.99964">
        <ele>141</ele>
        <time>2022-07-12T14:13:51+02:00</time>
      </trkpt>
      <trkpt lat="48.50699" lon="1.99979">
        <ele>139</ele>
        <time>2022-07-12T14:14:01+02:00</time>
      </trkpt>
      <trkpt lat="48.50694" lon="1.99991">
        <ele>141</ele>
        <time>2022-07-12T14:14:11+02:00</time>
      </trkpt>
      <trkpt lat="48.50688" lon="2.00004">
        <ele>143</ele>
        <time>2022-07-12T14:14:19+02:00</time>
      </trkpt>
      <trkpt lat="48.50681" lon="2.00014">
        <ele>146</ele>
        <time>2022-07-12T14:14:30+02:00</time>
      </trkpt>
      <trkpt lat="48.50675" lon="2.00024">
        <ele>147</ele>
        <time>2022-07-12T14:14:42+02:00</time>
      </trkpt>
      <trkpt lat="48.5067" lon="2.00036">
        <ele>150</ele>
        <time>2022-07-12T14:14:50+02:00</time>
      </trkpt>
      <trkpt lat="48.50665" lon="2.00047">
        <ele>152</ele>
        <time>2022-07-12T14:15:00+02:00</time>
      </trkpt>
      <trkpt lat="48.50663" lon="2.00061">
        <ele>153</ele>
        <time>2022-07-12T14:15:09+02:00</time>
      </trkpt>
      <trkpt lat="48.50662" lon="2.00076">
        <ele>156</ele>
        <time>2022-07-12T14:15:18+02:00</time>
      </trkpt>
      <trkpt lat="48.50659" lon="2.00089">
        <ele>159</ele>
        <time>2022-07-12T14:15:29+02:00</time>
      </trkpt>
      <trkpt lat="48.50662" lon="2.00102">
        <ele>161</ele>
        <time>2022-07-12T14:15:37+02:00</time>
      </trkpt>
      <trkpt lat="48.50659" lon="2.00117">
        <ele>163</ele>
        <time>2022-07-12T14:15:48+02:00</time>
      </trkpt>
      <trkpt lat="48.5066" lon="2.00131">
        <ele>164</ele>
        <time>2022-07-12T14:15:56+02:00</time>
      </trkpt>
      <trkpt lat="48.50659" lon="2.00145">
        <ele>165</ele>
        <time>2022-07-12T14:16:04+02:00</time>
      </trkpt>
      <trkpt lat="48.50659" lon="2.00159">
        <ele>164</ele>
        <time>2022-07-12T14:16:14+02:00</time>
      </trkpt>
      <trkpt lat="48.50656" lon="2.00173">
        <ele>166</ele>
        <time>2022-07-12T14:16:23+02:00</time>
      </trkpt>
      <trkpt lat="48.50651" lon="2.00185">
        <ele>166</ele>
        <time>2022-07-12T14:16:30+02:00</time>
      </trkpt>
      <trkpt lat="48.50646" lon="2.00196">
        <ele>168</ele>
        <time>2022-07-12T14:16:38+02:00</time>
      </trkpt>
      <trkpt lat="48.50639" lon="2.00206">
        <ele>170</ele>
        <time>2022-07-12T14:16:49+02:00</time>
      </trkpt>
      <trkpt lat="48.5063" lon="2.0021">
        <ele>171</ele>
        <time>2022-07-12T14:16:59+02:00</time>
      </trkpt>
      <trkpt lat="48.50621" lon="2.00216">
        <ele>165</ele>
        <time>2022-07-12T14:17:37+02:00</time>
      </trkpt>
      <trkpt lat="48.5062" lon="2.0023">
        <ele>167</ele>
        <time>2022-07-12T14:18:54+02:00</time>
      </trkpt>
      <trkpt lat="48.50625" lon="2.00248">
        <ele>166</ele>
        <time>2022-07-12T14:19:09+02:00</time>
      </trkpt>
      <trkpt lat="48.50633" lon="2.00256">
        <ele>161</ele>
        <time>2022-07-12T14:24:22+02:00</time>
      </trkpt>
      <trkpt lat="48.50642" lon="2.00256">
        <ele>164</ele>
        <time>2022-07-12T14:24:30+02:00</time>
      </trkpt>
      <trkpt lat="48.50651" lon="2.00257">
        <ele>167</ele>
        <time>2022-07-12T14:24:38+02:00</time>
      </trkpt>
      <trkpt lat="48.5066" lon="2.00259">
        <ele>170</ele>
        <time>2022-07-12T14:24:49+02:00</time>
      </trkpt>
      <trkpt lat="48.5067" lon="2.00256">
        <ele>170</ele>
        <time>2022-07-12T14:24:56+02:00</time>
      </trkpt>
      <trkpt lat="48.5068" lon="2.00254">
        <ele>171</ele>
        <time>2022-07-12T14:25:04+02:00</time>
      </trkpt>
      <trkpt lat="48.50689" lon="2.00251">
        <ele>173</ele>
        <time>2022-07-12T14:25:11+02:00</time>
      </trkpt>
      <trkpt lat="48.50699" lon="2.00252">
        <ele>173</ele>
        <time>2022-07-12T14:25:21+02:00</time>
      </trkpt>
      <trkpt lat="48.50708" lon="2.00251">
        <ele>174</ele>
        <time>2022-07-12T14:25:28+02:00</time>
      </trkpt>
      <trkpt lat="48.50718" lon="2.0025">
        <ele>175</ele>
        <time>2022-07-12T14:25:35+02:00</time>
      </trkpt>
      <trkpt lat="48.50727" lon="2.00252">
        <ele>176</ele>
        <time>2022-07-12T14:25:42+02:00</time>
      </trkpt>
      <trkpt lat="48.50736" lon="2.00253">
        <ele>175</ele>
        <time>2022-07-12T14:25:47+02:00</time>
      </trkpt>
      <trkpt lat="48.50746" lon="2.00252">
        <ele>175</ele>
        <time>2022-07-12T14:25:55+02:00</time>
      </trkpt>
      <trkpt lat="48.50755" lon="2.00255">
        <ele>176</ele>
        <time>2022-07-12T14:26:06+02:00</time>
      </trkpt>
      <trkpt lat="48.50764" lon="2.00263">
        <ele>175</ele>
        <time>2022-07-12T14:26:13+02:00</time>
      </trkpt>
      <trkpt lat="48.50771" lon="2.0027">
        <ele>174</ele>
        <time>2022-07-12T14:26:21+02:00</time>
      </trkpt>
      <trkpt lat="48.50779" lon="2.0028">
        <ele>174</ele>
        <time>2022-07-12T14:26:33+02:00</time>
      </trkpt>
      <trkpt lat="48.50785" lon="2.00292">
        <ele>174</ele>
        <time>2022-07-12T14:26:41+02:00</time>
      </trkpt>
      <trkpt lat="48.5079" lon="2.00303">
        <ele>174</ele>
        <time>2022-07-12T14:26:50+02:00</time>
      </trkpt>
      <trkpt lat="48.50797" lon="2.00313">
        <ele>174</ele>
        <time>2022-07-12T14:26:56+02:00</time>
      </trkpt>
      <trkpt lat="48.50804" lon="2.00322">
        <ele>175</ele>
        <time>2022-07-12T14:27:04+02:00</time>
      </trkpt>
      <trkpt lat="48.50811" lon="2.00333">
        <ele>176</ele>
        <time>2022-07-12T14:27:15+02:00</time>
      </trkpt>
      <trkpt lat="48.50815" lon="2.00346">
        <ele>178</ele>
        <time>2022-07-12T14:27:25+02:00</time>
      </trkpt>
      <trkpt lat="48.50817" lon="2.00362">
        <ele>181</ele>
        <time>2022-07-12T14:27:34+02:00</time>
      </trkpt>
      <trkpt lat="48.5082" lon="2.00375">
        <ele>182</ele>
        <time>2022-07-12T14:27:41+02:00</time>
      </trkpt>
      <trkpt lat="48.50822" lon="2.00389">
        <ele>182</ele>
        <time>2022-07-12T14:27:49+02:00</time>
      </trkpt>
      <trkpt lat="48.50823" lon="2.00404">
        <ele>182</ele>
        <time>2022-07-12T14:27:57+02:00</time>
      </trkpt>
      <trkpt lat="48.50823" lon="2.0042">
        <ele>180</ele>
        <time>2022-07-12T14:28:05+02:00</time>
      </trkpt>
      <trkpt lat="48.5082" lon="2.00447">
        <ele>179</ele>
        <time>2022-07-12T14:28:21+02:00</time>
      </trkpt>
      <trkpt lat="48.50819" lon="2.0046">
        <ele>180</ele>
        <time>2022-07-12T14:28:28+02:00</time>
      </trkpt>
      <trkpt lat="48.50817" lon="2.00474">
        <ele>181</ele>
        <time>2022-07-12T14:28:36+02:00</time>
      </trkpt>
      <trkpt lat="48.50818" lon="2.0049">
        <ele>181</ele>
        <time>2022-07-12T14:28:45+02:00</time>
      </trkpt>
      <trkpt lat="48.50817" lon="2.00503">
        <ele>181</ele>
        <time>2022-07-12T14:28:52+02:00</time>
      </trkpt>
      <trkpt lat="48.50816" lon="2.00517">
        <ele>183</ele>
        <time>2022-07-12T14:29:02+02:00</time>
      </trkpt>
      <trkpt lat="48.50814" lon="2.00531">
        <ele>181</ele>
        <time>2022-07-12T14:29:10+02:00</time>
      </trkpt>
      <trkpt lat="48.5081" lon="2.00544">
        <ele>180</ele>
        <time>2022-07-12T14:29:19+02:00</time>
      </trkpt>
      <trkpt lat="48.50806" lon="2.00558">
        <ele>181</ele>
        <time>2022-07-12T14:29:28+02:00</time>
      </trkpt>
      <trkpt lat="48.50804" lon="2.00572">
        <ele>182</ele>
        <time>2022-07-12T14:29:35+02:00</time>
      </trkpt>
      <trkpt lat="48.50801" lon="2.00587">
        <ele>182</ele>
        <time>2022-07-12T14:29:43+02:00</time>
      </trkpt>
      <trkpt lat="48.50796" lon="2.00599">
        <ele>182</ele>
        <time>2022-07-12T14:29:51+02:00</time>
      </trkpt>
      <trkpt lat="48.50792" lon="2.00611">
        <ele>182</ele>
        <time>2022-07-12T14:29:59+02:00</time>
      </trkpt>
      <trkpt lat="48.50787" lon="2.00625">
        <ele>182</ele>
        <time>2022-07-12T14:30:06+02:00</time>
      </trkpt>
      <trkpt lat="48.50784" lon="2.00638">
        <ele>183</ele>
        <time>2022-07-12T14:30:13+02:00</time>
      </trkpt>
      <trkpt lat="48.50784" lon="2.00652">
        <ele>184</ele>
        <time>2022-07-12T14:30:21+02:00</time>
      </trkpt>
      <trkpt lat="48.50784" lon="2.00666">
        <ele>186</ele>
        <time>2022-07-12T14:30:29+02:00</time>
      </trkpt>
      <trkpt lat="48.50782" lon="2.00682">
        <ele>187</ele>
        <time>2022-07-12T14:30:39+02:00</time>
      </trkpt>
      <trkpt lat="48.50779" lon="2.00696">
        <ele>187</ele>
        <time>2022-07-12T14:30:45+02:00</time>
      </trkpt>
      <trkpt lat="48.5078" lon="2.00712">
        <ele>185</ele>
        <time>2022-07-12T14:30:52+02:00</time>
      </trkpt>
      <trkpt lat="48.50775" lon="2.00724">
        <ele>182</ele>
        <time>2022-07-12T14:31:02+02:00</time>
      </trkpt>
      <trkpt lat="48.50775" lon="2.00738">
        <ele>174</ele>
        <time>2022-07-12T14:31:22+02:00</time>
      </trkpt>
      <trkpt lat="48.50775" lon="2.00752">
        <ele>175</ele>
        <time>2022-07-12T14:31:36+02:00</time>
      </trkpt>
      <trkpt lat="48.50772" lon="2.00767">
        <ele>176</ele>
        <time>2022-07-12T14:31:45+02:00</time>
      </trkpt>
      <trkpt lat="48.50772" lon="2.00794">
        <ele>175</ele>
        <time>2022-07-12T14:31:58+02:00</time>
      </trkpt>
      <trkpt lat="48.5077" lon="2.00807">
        <ele>175</ele>
        <time>2022-07-12T14:32:05+02:00</time>
      </trkpt>
      <trkpt lat="48.50772" lon="2.00822">
        <ele>176</ele>
        <time>2022-07-12T14:32:12+02:00</time>
      </trkpt>
      <trkpt lat="48.50773" lon="2.00837">
        <ele>176</ele>
        <time>2022-07-12T14:32:19+02:00</time>
      </trkpt>
      <trkpt lat="48.50776" lon="2.0085">
        <ele>177</ele>
        <time>2022-07-12T14:32:25+02:00</time>
      </trkpt>
      <trkpt lat="48.50778" lon="2.00863">
        <ele>178</ele>
        <time>2022-07-12T14:32:34+02:00</time>
      </trkpt>
      <trkpt lat="48.5078" lon="2.00878">
        <ele>178</ele>
        <time>2022-07-12T14:32:42+02:00</time>
      </trkpt>
      <trkpt lat="48.50781" lon="2.00893">
        <ele>179</ele>
        <time>2022-07-12T14:32:50+02:00</time>
      </trkpt>
      <trkpt lat="48.50783" lon="2.00907">
        <ele>177</ele>
        <time>2022-07-12T14:33:00+02:00</time>
      </trkpt>
      <trkpt lat="48.50784" lon="2.00922">
        <ele>176</ele>
        <time>2022-07-12T14:33:11+02:00</time>
      </trkpt>
      <trkpt lat="48.50783" lon="2.00936">
        <ele>175</ele>
        <time>2022-07-12T14:33:25+02:00</time>
      </trkpt>
      <trkpt lat="48.50784" lon="2.0095">
        <ele>173</ele>
        <time>2022-07-12T14:33:32+02:00</time>
      </trkpt>
      <trkpt lat="48.50784" lon="2.00965">
        <ele>168</ele>
        <time>2022-07-12T14:33:55+02:00</time>
      </trkpt>
      <trkpt lat="48.50783" lon="2.0098">
        <ele>167</ele>
        <time>2022-07-12T14:34:05+02:00</time>
      </trkpt>
      <trkpt lat="48.50778" lon="2.00991">
        <ele>168</ele>
        <time>2022-07-12T14:34:16+02:00</time>
      </trkpt>
      <trkpt lat="48.50769" lon="2.01001">
        <ele>167</ele>
        <time>2022-07-12T14:34:24+02:00</time>
      </trkpt>
      <trkpt lat="48.50764" lon="2.01013">
        <ele>165</ele>
        <time>2022-07-12T14:34:35+02:00</time>
      </trkpt>
      <trkpt lat="48.50756" lon="2.01021">
        <ele>163</ele>
        <time>2022-07-12T14:34:45+02:00</time>
      </trkpt>
      <trkpt lat="48.50749" lon="2.01033">
        <ele>162</ele>
        <time>2022-07-12T14:34:54+02:00</time>
      </trkpt>
      <trkpt lat="48.50743" lon="2.01043">
        <ele>161</ele>
        <time>2022-07-12T14:35:01+02:00</time>
      </trkpt>
      <trkpt lat="48.50737" lon="2.01056">
        <ele>160</ele>
        <time>2022-07-12T14:35:08+02:00</time>
      </trkpt>
      <trkpt lat="48.5073" lon="2.01068">
        <ele>160</ele>
        <time>2022-07-12T14:35:15+02:00</time>
      </trkpt>
      <trkpt lat="48.50724" lon="2.01079">
        <ele>159</ele>
        <time>2022-07-12T14:35:22+02:00</time>
      </trkpt>
      <trkpt lat="48.50716" lon="2.01089">
        <ele>156</ele>
        <time>2022-07-12T14:35:31+02:00</time>
      </trkpt>
      <trkpt lat="48.50711" lon="2.01101">
        <ele>157</ele>
        <time>2022-07-12T14:35:37+02:00</time>
      </trkpt>
      <trkpt lat="48.50704" lon="2.01111">
        <ele>157</ele>
        <time>2022-07-12T14:35:43+02:00</time>
      </trkpt>
      <trkpt lat="48.50696" lon="2.01119">
        <ele>155</ele>
        <time>2022-07-12T14:35:50+02:00</time>
      </trkpt>
      <trkpt lat="48.50692" lon="2.01132">
        <ele>156</ele>
        <time>2022-07-12T14:35:57+02:00</time>
      </trkpt>
      <trkpt lat="48.50686" lon="2.01145">
        <ele>154</ele>
        <time>2022-07-12T14:36:05+02:00</time>
      </trkpt>
      <trkpt lat="48.50681" lon="2.01156">
        <ele>154</ele>
        <time>2022-07-12T14:36:11+02:00</time>
      </trkpt>
      <trkpt lat="48.50673" lon="2.01166">
        <ele>151</ele>
        <time>2022-07-12T14:36:21+02:00</time>
      </trkpt>
      <trkpt lat="48.50666" lon="2.01177">
        <ele>150</ele>
        <time>2022-07-12T14:36:29+02:00</time>
      </trkpt>
      <trkpt lat="48.50654" lon="2.01198">
        <ele>150</ele>
        <time>2022-07-12T14:36:42+02:00</time>
      </trkpt>
      <trkpt lat="48.50648" lon="2.0121">
        <ele>149</ele>
        <time>2022-07-12T14:36:50+02:00</time>
      </trkpt>
      <trkpt lat="48.50641" lon="2.01219">
        <ele>148</ele>
        <time>2022-07-12T14:36:56+02:00</time>
      </trkpt>
      <trkpt lat="48.50635" lon="2.0123">
        <ele>149</ele>
        <time>2022-07-12T14:37:02+02:00</time>
      </trkpt>
      <trkpt lat="48.5063" lon="2.01242">
        <ele>149</ele>
        <time>2022-07-12T14:37:09+02:00</time>
      </trkpt>
      <trkpt lat="48.50624" lon="2.01253">
        <ele>149</ele>
        <time>2022-07-12T14:37:17+02:00</time>
      </trkpt>
      <trkpt lat="48.50621" lon="2.01265">
        <ele>147</ele>
        <time>2022-07-12T14:37:26+02:00</time>
      </trkpt>
      <trkpt lat="48.50613" lon="2.01275">
        <ele>149</ele>
        <time>2022-07-12T14:37:39+02:00</time>
      </trkpt>
      <trkpt lat="48.50607" lon="2.01285">
        <ele>149</ele>
        <time>2022-07-12T14:37:47+02:00</time>
      </trkpt>
      <trkpt lat="48.506" lon="2.01295">
        <ele>148</ele>
        <time>2022-07-12T14:37:54+02:00</time>
      </trkpt>
      <trkpt lat="48.50594" lon="2.01307">
        <ele>148</ele>
        <time>2022-07-12T14:38:02+02:00</time>
      </trkpt>
      <trkpt lat="48.50587" lon="2.01318">
        <ele>147</ele>
        <time>2022-07-12T14:38:10+02:00</time>
      </trkpt>
      <trkpt lat="48.50588" lon="2.01332">
        <ele>153</ele>
        <time>2022-07-12T14:38:27+02:00</time>
      </trkpt>
      <trkpt lat="48.50598" lon="2.01333">
        <ele>157</ele>
        <time>2022-07-12T14:38:38+02:00</time>
      </trkpt>
      <trkpt lat="48.50609" lon="2.01334">
        <ele>159</ele>
        <time>2022-07-12T14:38:46+02:00</time>
      </trkpt>
      <trkpt lat="48.50618" lon="2.01336">
        <ele>159</ele>
        <time>2022-07-12T14:38:51+02:00</time>
      </trkpt>
      <trkpt lat="48.50627" lon="2.01336">
        <ele>157</ele>
        <time>2022-07-12T14:38:57+02:00</time>
      </trkpt>
      <trkpt lat="48.50637" lon="2.01334">
        <ele>157</ele>
        <time>2022-07-12T14:39:07+02:00</time>
      </trkpt>
      <trkpt lat="48.50646" lon="2.01336">
        <ele>158</ele>
        <time>2022-07-12T14:39:14+02:00</time>
      </trkpt>
      <trkpt lat="48.50656" lon="2.01338">
        <ele>160</ele>
        <time>2022-07-12T14:39:21+02:00</time>
      </trkpt>
      <trkpt lat="48.50665" lon="2.01339">
        <ele>160</ele>
        <time>2022-07-12T14:39:28+02:00</time>
      </trkpt>
      <trkpt lat="48.50674" lon="2.01345">
        <ele>158</ele>
        <time>2022-07-12T14:39:36+02:00</time>
      </trkpt>
      <trkpt lat="48.50684" lon="2.01345">
        <ele>158</ele>
        <time>2022-07-12T14:39:45+02:00</time>
      </trkpt>
      <trkpt lat="48.50695" lon="2.01345">
        <ele>158</ele>
        <time>2022-07-12T14:39:51+02:00</time>
      </trkpt>
      <trkpt lat="48.50704" lon="2.01345">
        <ele>159</ele>
        <time>2022-07-12T14:39:57+02:00</time>
      </trkpt>
      <trkpt lat="48.50714" lon="2.01344">
        <ele>159</ele>
        <time>2022-07-12T14:40:04+02:00</time>
      </trkpt>
      <trkpt lat="48.50724" lon="2.01342">
        <ele>161</ele>
        <time>2022-07-12T14:40:11+02:00</time>
      </trkpt>
      <trkpt lat="48.50733" lon="2.01341">
        <ele>161</ele>
        <time>2022-07-12T14:40:19+02:00</time>
      </trkpt>
      <trkpt lat="48.50743" lon="2.01339">
        <ele>159</ele>
        <time>2022-07-12T14:40:26+02:00</time>
      </trkpt>
      <trkpt lat="48.50753" lon="2.0134">
        <ele>158</ele>
        <time>2022-07-12T14:40:37+02:00</time>
      </trkpt>
      <trkpt lat="48.50764" lon="2.01341">
        <ele>156</ele>
        <time>2022-07-12T14:40:44+02:00</time>
      </trkpt>
      <trkpt lat="48.50773" lon="2.0134">
        <ele>155</ele>
        <time>2022-07-12T14:40:50+02:00</time>
      </trkpt>
      <trkpt lat="48.50782" lon="2.01341">
        <ele>154</ele>
        <time>2022-07-12T14:40:58+02:00</time>
      </trkpt>
      <trkpt lat="48.50792" lon="2.0134">
        <ele>152</ele>
        <time>2022-07-12T14:41:16+02:00</time>
      </trkpt>
      <trkpt lat="48.50798" lon="2.0135">
        <ele>149</ele>
        <time>2022-07-12T14:41:57+02:00</time>
      </trkpt>
      <trkpt lat="48.50806" lon="2.01344">
        <ele>148</ele>
        <time>2022-07-12T14:42:57+02:00</time>
      </trkpt>
      <trkpt lat="48.50815" lon="2.01344">
        <ele>152</ele>
        <time>2022-07-12T14:43:14+02:00</time>
      </trkpt>
      <trkpt lat="48.50822" lon="2.01354">
        <ele>157</ele>
        <time>2022-07-12T14:43:25+02:00</time>
      </trkpt>
      <trkpt lat="48.50831" lon="2.01361">
        <ele>159</ele>
        <time>2022-07-12T14:43:35+02:00</time>
      </trkpt>
      <trkpt lat="48.50836" lon="2.01373">
        <ele>161</ele>
        <time>2022-07-12T14:43:44+02:00</time>
      </trkpt>
      <trkpt lat="48.50843" lon="2.01384">
        <ele>162</ele>
        <time>2022-07-12T14:43:54+02:00</time>
      </trkpt>
      <trkpt lat="48.50849" lon="2.01395">
        <ele>163</ele>
        <time>2022-07-12T14:44:05+02:00</time>
      </trkpt>
      <trkpt lat="48.50855" lon="2.01408">
        <ele>164</ele>
        <time>2022-07-12T14:44:14+02:00</time>
      </trkpt>
      <trkpt lat="48.50861" lon="2.0142">
        <ele>165</ele>
        <time>2022-07-12T14:44:22+02:00</time>
      </trkpt>
      <trkpt lat="48.50868" lon="2.0143">
        <ele>167</ele>
        <time>2022-07-12T14:44:31+02:00</time>
      </trkpt>
      <trkpt lat="48.50876" lon="2.01438">
        <ele>169</ele>
        <time>2022-07-12T14:44:39+02:00</time>
      </trkpt>
      <trkpt lat="48.50883" lon="2.01447">
        <ele>169</ele>
        <time>2022-07-12T14:44:48+02:00</time>
      </trkpt>
      <trkpt lat="48.50891" lon="2.01453">
        <ele>168</ele>
        <time>2022-07-12T14:44:57+02:00</time>
      </trkpt>
      <trkpt lat="48.509" lon="2.0146">
        <ele>167</ele>
        <time>2022-07-12T14:45:06+02:00</time>
      </trkpt>
      <trkpt lat="48.50908" lon="2.01467">
        <ele>164</ele>
        <time>2022-07-12T14:45:16+02:00</time>
      </trkpt>
      <trkpt lat="48.50916" lon="2.01475">
        <ele>162</ele>
        <time>2022-07-12T14:45:23+02:00</time>
      </trkpt>
      <trkpt lat="48.50923" lon="2.01485">
        <ele>159</ele>
        <time>2022-07-12T14:45:29+02:00</time>
      </trkpt>
      <trkpt lat="48.5093" lon="2.01495">
        <ele>155</ele>
        <time>2022-07-12T14:45:37+02:00</time>
      </trkpt>
      <trkpt lat="48.50935" lon="2.01508">
        <ele>151</ele>
        <time>2022-07-12T14:45:49+02:00</time>
      </trkpt>
      <trkpt lat="48.50939" lon="2.0152">
        <ele>151</ele>
        <time>2022-07-12T14:45:58+02:00</time>
      </trkpt>
      <trkpt lat="48.50945" lon="2.01533">
        <ele>151</ele>
        <time>2022-07-12T14:46:07+02:00</time>
      </trkpt>
      <trkpt lat="48.50949" lon="2.01546">
        <ele>151</ele>
        <time>2022-07-12T14:46:14+02:00</time>
      </trkpt>
      <trkpt lat="48.50954" lon="2.0156">
        <ele>154</ele>
        <time>2022-07-12T14:46:23+02:00</time>
      </trkpt>
      <trkpt lat="48.5096" lon="2.01571">
        <ele>155</ele>
        <time>2022-07-12T14:46:31+02:00</time>
      </trkpt>
      <trkpt lat="48.50964" lon="2.01583">
        <ele>154</ele>
        <time>2022-07-12T14:46:38+02:00</time>
      </trkpt>
      <trkpt lat="48.50971" lon="2.0161">
        <ele>153</ele>
        <time>2022-07-12T14:46:55+02:00</time>
      </trkpt>
      <trkpt lat="48.50973" lon="2.01625">
        <ele>152</ele>
        <time>2022-07-12T14:47:02+02:00</time>
      </trkpt>
      <trkpt lat="48.5097" lon="2.01639">
        <ele>151</ele>
        <time>2022-07-12T14:47:09+02:00</time>
      </trkpt>
      <trkpt lat="48.50965" lon="2.01651">
        <ele>144</ele>
        <time>2022-07-12T14:47:17+02:00</time>
      </trkpt>
      <trkpt lat="48.50961" lon="2.01662">
        <ele>136</ele>
        <time>2022-07-12T14:47:26+02:00</time>
      </trkpt>
      <trkpt lat="48.50956" lon="2.01675">
        <ele>130</ele>
        <time>2022-07-12T14:47:35+02:00</time>
      </trkpt>
      <trkpt lat="48.50948" lon="2.01685">
        <ele>127</ele>
        <time>2022-07-12T14:47:43+02:00</time>
      </trkpt>
      <trkpt lat="48.50942" lon="2.01695">
        <ele>126</ele>
        <time>2022-07-12T14:47:50+02:00</time>
      </trkpt>
      <trkpt lat="48.50937" lon="2.01707">
        <ele>126</ele>
        <time>2022-07-12T14:47:57+02:00</time>
      </trkpt>
      <trkpt lat="48.50931" lon="2.01718">
        <ele>127</ele>
        <time>2022-07-12T14:48:04+02:00</time>
      </trkpt>
      <trkpt lat="48.50925" lon="2.01729">
        <ele>129</ele>
        <time>2022-07-12T14:48:12+02:00</time>
      </trkpt>
      <trkpt lat="48.50919" lon="2.0174">
        <ele>131</ele>
        <time>2022-07-12T14:48:18+02:00</time>
      </trkpt>
      <trkpt lat="48.50913" lon="2.01752">
        <ele>130</ele>
        <time>2022-07-12T14:48:28+02:00</time>
      </trkpt>
      <trkpt lat="48.50907" lon="2.01763">
        <ele>130</ele>
        <time>2022-07-12T14:48:36+02:00</time>
      </trkpt>
      <trkpt lat="48.5091" lon="2.01777">
        <ele>125</ele>
        <time>2022-07-12T14:48:57+02:00</time>
      </trkpt>
      <trkpt lat="48.50918" lon="2.01792">
        <ele>122</ele>
        <time>2022-07-12T14:49:25+02:00</time>
      </trkpt>
      <trkpt lat="48.50908" lon="2.01794">
        <ele>108</ele>
        <time>2022-07-12T14:52:15+02:00</time>
      </trkpt>
      <trkpt lat="48.50898" lon="2.01797">
        <ele>108</ele>
        <time>2022-07-12T14:52:20+02:00</time>
      </trkpt>
      <trkpt lat="48.50883" lon="2.01774">
        <ele>108</ele>
        <time>2022-07-12T14:52:22+02:00</time>
      </trkpt>
      <trkpt lat="48.50891" lon="2.01764">
        <ele>108</ele>
        <time>2022-07-12T14:52:23+02:00</time>
      </trkpt>
      <trkpt lat="48.50902" lon="2.01759">
        <ele>108</ele>
        <time>2022-07-12T14:52:24+02:00</time>
      </trkpt>
      <trkpt lat="48.50913" lon="2.01756">
        <ele>108</ele>
        <time>2022-07-12T14:52:26+02:00</time>
      </trkpt>
      <trkpt lat="48.50919" lon="2.01768">
        <ele>108</ele>
        <time>2022-07-12T14:52:34+02:00</time>
      </trkpt>
      <trkpt lat="48.50919" lon="2.01786">
        <ele>108</ele>
        <time>2022-07-12T14:52:39+02:00</time>
      </trkpt>
      <trkpt lat="48.50924" lon="2.01797">
        <ele>104</ele>
        <time>2022-07-12T14:53:30+02:00</time>
      </trkpt>
      <trkpt lat="48.50934" lon="2.01798">
        <ele>104</ele>
        <time>2022-07-12T14:54:08+02:00</time>
      </trkpt>
      <trkpt lat="48.50942" lon="2.01806">
        <ele>104</ele>
        <time>2022-07-12T14:54:15+02:00</time>
      </trkpt>
      <trkpt lat="48.50947" lon="2.01819">
        <ele>103</ele>
        <time>2022-07-12T14:54:24+02:00</time>
      </trkpt>
      <trkpt lat="48.50951" lon="2.01833">
        <ele>103</ele>
        <time>2022-07-12T14:54:33+02:00</time>
      </trkpt>
      <trkpt lat="48.50954" lon="2.01846">
        <ele>104</ele>
        <time>2022-07-12T14:54:41+02:00</time>
      </trkpt>
      <trkpt lat="48.5095" lon="2.01833">
        <ele>100</ele>
        <time>2022-07-12T14:55:09+02:00</time>
      </trkpt>
      <trkpt lat="48.50944" lon="2.01822">
        <ele>99</ele>
        <time>2022-07-12T14:55:18+02:00</time>
      </trkpt>
      <trkpt lat="48.5094" lon="2.0181">
        <ele>98</ele>
        <time>2022-07-12T14:55:27+02:00</time>
      </trkpt>
      <trkpt lat="48.50933" lon="2.018">
        <ele>98</ele>
        <time>2022-07-12T14:55:34+02:00</time>
      </trkpt>
      <trkpt lat="48.50926" lon="2.0179">
        <ele>95</ele>
        <time>2022-07-12T14:55:40+02:00</time>
      </trkpt>
      <trkpt lat="48.50934" lon="2.01783">
        <ele>96</ele>
        <time>2022-07-12T14:56:02+02:00</time>
      </trkpt>
      <trkpt lat="48.50943" lon="2.01779">
        <ele>104</ele>
        <time>2022-07-12T14:56:10+02:00</time>
      </trkpt>
      <trkpt lat="48.50953" lon="2.01775">
        <ele>114</ele>
        <time>2022-07-12T14:56:19+02:00</time>
      </trkpt>
      <trkpt lat="48.50961" lon="2.01772">
        <ele>118</ele>
        <time>2022-07-12T14:56:26+02:00</time>
      </trkpt>
      <trkpt lat="48.50971" lon="2.01769">
        <ele>118</ele>
        <time>2022-07-12T14:56:34+02:00</time>
      </trkpt>
      <trkpt lat="48.5098" lon="2.01769">
        <ele>118</ele>
        <time>2022-07-12T14:56:42+02:00</time>
      </trkpt>
      <trkpt lat="48.50989" lon="2.01763">
        <ele>118</ele>
        <time>2022-07-12T14:56:50+02:00</time>
      </trkpt>
      <trkpt lat="48.50998" lon="2.01756">
        <ele>111</ele>
        <time>2022-07-12T14:57:00+02:00</time>
      </trkpt>
      <trkpt lat="48.51007" lon="2.01754">
        <ele>105</ele>
        <time>2022-07-12T14:57:07+02:00</time>
      </trkpt>
      <trkpt lat="48.51012" lon="2.01742">
        <ele>103</ele>
        <time>2022-07-12T14:57:15+02:00</time>
      </trkpt>
      <trkpt lat="48.51014" lon="2.01728">
        <ele>102</ele>
        <time>2022-07-12T14:57:25+02:00</time>
      </trkpt>
      <trkpt lat="48.5102" lon="2.01717">
        <ele>104</ele>
        <time>2022-07-12T14:57:34+02:00</time>
      </trkpt>
      <trkpt lat="48.51027" lon="2.01706">
        <ele>106</ele>
        <time>2022-07-12T14:57:42+02:00</time>
      </trkpt>
      <trkpt lat="48.51032" lon="2.01694">
        <ele>108</ele>
        <time>2022-07-12T14:57:50+02:00</time>
      </trkpt>
      <trkpt lat="48.51035" lon="2.0168">
        <ele>112</ele>
        <time>2022-07-12T14:58:00+02:00</time>
      </trkpt>
      <trkpt lat="48.51037" lon="2.01666">
        <ele>113</ele>
        <time>2022-07-12T14:58:09+02:00</time>
      </trkpt>
      <trkpt lat="48.51047" lon="2.01661">
        <ele>114</ele>
        <time>2022-07-12T14:58:17+02:00</time>
      </trkpt>
      <trkpt lat="48.51056" lon="2.01656">
        <ele>120</ele>
        <time>2022-07-12T14:58:22+02:00</time>
      </trkpt>
      <trkpt lat="48.51064" lon="2.01648">
        <ele>127</ele>
        <time>2022-07-12T14:58:28+02:00</time>
      </trkpt>
      <trkpt lat="48.51074" lon="2.01648">
        <ele>138</ele>
        <time>2022-07-12T14:58:38+02:00</time>
      </trkpt>
      <trkpt lat="48.51082" lon="2.01642">
        <ele>141</ele>
        <time>2022-07-12T14:58:49+02:00</time>
      </trkpt>
      <trkpt lat="48.51091" lon="2.01635">
        <ele>140</ele>
        <time>2022-07-12T14:58:56+02:00</time>
      </trkpt>
      <trkpt lat="48.51099" lon="2.01626">
        <ele>140</ele>
        <time>2022-07-12T14:59:03+02:00</time>
      </trkpt>
      <trkpt lat="48.51105" lon="2.01616">
        <ele>139</ele>
        <time>2022-07-12T14:59:08+02:00</time>
      </trkpt>
      <trkpt lat="48.51109" lon="2.01604">
        <ele>136</ele>
        <time>2022-07-12T14:59:16+02:00</time>
      </trkpt>
      <trkpt lat="48.51114" lon="2.01591">
        <ele>134</ele>
        <time>2022-07-12T14:59:27+02:00</time>
      </trkpt>
      <trkpt lat="48.51122" lon="2.01582">
        <ele>133</ele>
        <time>2022-07-12T14:59:33+02:00</time>
      </trkpt>
      <trkpt lat="48.51128" lon="2.01572">
        <ele>133</ele>
        <time>2022-07-12T14:59:40+02:00</time>
      </trkpt>
      <trkpt lat="48.51135" lon="2.0156">
        <ele>133</ele>
        <time>2022-07-12T14:59:50+02:00</time>
      </trkpt>
      <trkpt lat="48.51141" lon="2.01548">
        <ele>131</ele>
        <time>2022-07-12T14:59:59+02:00</time>
      </trkpt>
      <trkpt lat="48.51145" lon="2.01535">
        <ele>130</ele>
        <time>2022-07-12T15:00:06+02:00</time>
      </trkpt>
      <trkpt lat="48.5115" lon="2.01523">
        <ele>127</ele>
        <time>2022-07-12T15:00:14+02:00</time>
      </trkpt>
      <trkpt lat="48.51154" lon="2.0151">
        <ele>125</ele>
        <time>2022-07-12T15:00:20+02:00</time>
      </trkpt>
      <trkpt lat="48.51159" lon="2.01496">
        <ele>125</ele>
        <time>2022-07-12T15:00:27+02:00</time>
      </trkpt>
      <trkpt lat="48.51163" lon="2.01483">
        <ele>126</ele>
        <time>2022-07-12T15:00:36+02:00</time>
      </trkpt>
      <trkpt lat="48.51168" lon="2.0147">
        <ele>126</ele>
        <time>2022-07-12T15:00:43+02:00</time>
      </trkpt>
      <trkpt lat="48.51172" lon="2.01457">
        <ele>124</ele>
        <time>2022-07-12T15:00:52+02:00</time>
      </trkpt>
      <trkpt lat="48.5118" lon="2.01448">
        <ele>123</ele>
        <time>2022-07-12T15:00:59+02:00</time>
      </trkpt>
      <trkpt lat="48.51184" lon="2.01435">
        <ele>121</ele>
        <time>2022-07-12T15:01:08+02:00</time>
      </trkpt>
      <trkpt lat="48.51187" lon="2.01422">
        <ele>120</ele>
        <time>2022-07-12T15:01:16+02:00</time>
      </trkpt>
      <trkpt lat="48.51196" lon="2.01412">
        <ele>121</ele>
        <time>2022-07-12T15:01:22+02:00</time>
      </trkpt>
      <trkpt lat="48.51203" lon="2.01403">
        <ele>120</ele>
        <time>2022-07-12T15:01:28+02:00</time>
      </trkpt>
      <trkpt lat="48.51209" lon="2.0139">
        <ele>119</ele>
        <time>2022-07-12T15:01:34+02:00</time>
      </trkpt>
      <trkpt lat="48.51213" lon="2.01377">
        <ele>117</ele>
        <time>2022-07-12T15:01:43+02:00</time>
      </trkpt>
      <trkpt lat="48.51219" lon="2.01365">
        <ele>115</ele>
        <time>2022-07-12T15:01:52+02:00</time>
      </trkpt>
      <trkpt lat="48.51224" lon="2.01351">
        <ele>115</ele>
        <time>2022-07-12T15:01:59+02:00</time>
      </trkpt>
      <trkpt lat="48.51228" lon="2.01338">
        <ele>115</ele>
        <time>2022-07-12T15:02:08+02:00</time>
      </trkpt>
      <trkpt lat="48.51231" lon="2.01325">
        <ele>114</ele>
        <time>2022-07-12T15:02:16+02:00</time>
      </trkpt>
      <trkpt lat="48.51236" lon="2.01312">
        <ele>114</ele>
        <time>2022-07-12T15:02:24+02:00</time>
      </trkpt>
      <trkpt lat="48.51238" lon="2.01298">
        <ele>113</ele>
        <time>2022-07-12T15:02:33+02:00</time>
      </trkpt>
      <trkpt lat="48.51244" lon="2.01287">
        <ele>112</ele>
        <time>2022-07-12T15:02:40+02:00</time>
      </trkpt>
      <trkpt lat="48.51254" lon="2.01263">
        <ele>112</ele>
        <time>2022-07-12T15:02:54+02:00</time>
      </trkpt>
      <trkpt lat="48.51261" lon="2.01251">
        <ele>112</ele>
        <time>2022-07-12T15:03:01+02:00</time>
      </trkpt>
      <trkpt lat="48.51266" lon="2.01238">
        <ele>111</ele>
        <time>2022-07-12T15:03:08+02:00</time>
      </trkpt>
      <trkpt lat="48.51273" lon="2.01228">
        <ele>110</ele>
        <time>2022-07-12T15:03:15+02:00</time>
      </trkpt>
      <trkpt lat="48.51279" lon="2.01216">
        <ele>109</ele>
        <time>2022-07-12T15:03:22+02:00</time>
      </trkpt>
      <trkpt lat="48.51285" lon="2.01207">
        <ele>108</ele>
        <time>2022-07-12T15:03:29+02:00</time>
      </trkpt>
      <trkpt lat="48.5129" lon="2.01194">
        <ele>109</ele>
        <time>2022-07-12T15:03:37+02:00</time>
      </trkpt>
      <trkpt lat="48.51297" lon="2.01185">
        <ele>110</ele>
        <time>2022-07-12T15:03:43+02:00</time>
      </trkpt>
      <trkpt lat="48.51297" lon="2.01169">
        <ele>112</ele>
        <time>2022-07-12T15:03:53+02:00</time>
      </trkpt>
      <trkpt lat="48.513" lon="2.01156">
        <ele>112</ele>
        <time>2022-07-12T15:04:00+02:00</time>
      </trkpt>
      <trkpt lat="48.51306" lon="2.01144">
        <ele>111</ele>
        <time>2022-07-12T15:04:07+02:00</time>
      </trkpt>
      <trkpt lat="48.51311" lon="2.01134">
        <ele>111</ele>
        <time>2022-07-12T15:04:16+02:00</time>
      </trkpt>
      <trkpt lat="48.51317" lon="2.01122">
        <ele>109</ele>
        <time>2022-07-12T15:04:24+02:00</time>
      </trkpt>
      <trkpt lat="48.51324" lon="2.01111">
        <ele>106</ele>
        <time>2022-07-12T15:04:32+02:00</time>
      </trkpt>
      <trkpt lat="48.51331" lon="2.011">
        <ele>103</ele>
        <time>2022-07-12T15:04:40+02:00</time>
      </trkpt>
      <trkpt lat="48.51337" lon="2.0109">
        <ele>102</ele>
        <time>2022-07-12T15:04:48+02:00</time>
      </trkpt>
      <trkpt lat="48.51344" lon="2.01078">
        <ele>103</ele>
        <time>2022-07-12T15:04:55+02:00</time>
      </trkpt>
      <trkpt lat="48.51349" lon="2.01066">
        <ele>101</ele>
        <time>2022-07-12T15:05:03+02:00</time>
      </trkpt>
      <trkpt lat="48.51356" lon="2.01055">
        <ele>103</ele>
        <time>2022-07-12T15:05:11+02:00</time>
      </trkpt>
      <trkpt lat="48.51359" lon="2.0104">
        <ele>102</ele>
        <time>2022-07-12T15:05:18+02:00</time>
      </trkpt>
      <trkpt lat="48.51362" lon="2.01026">
        <ele>101</ele>
        <time>2022-07-12T15:05:26+02:00</time>
      </trkpt>
      <trkpt lat="48.51368" lon="2.01016">
        <ele>99</ele>
        <time>2022-07-12T15:05:34+02:00</time>
      </trkpt>
      <trkpt lat="48.51376" lon="2.01007">
        <ele>99</ele>
        <time>2022-07-12T15:05:40+02:00</time>
      </trkpt>
      <trkpt lat="48.51382" lon="2.00997">
        <ele>99</ele>
        <time>2022-07-12T15:05:47+02:00</time>
      </trkpt>
      <trkpt lat="48.51386" lon="2.00983">
        <ele>99</ele>
        <time>2022-07-12T15:05:53+02:00</time>
      </trkpt>
      <trkpt lat="48.51394" lon="2.00975">
        <ele>100</ele>
        <time>2022-07-12T15:06:01+02:00</time>
      </trkpt>
      <trkpt lat="48.51403" lon="2.0097">
        <ele>102</ele>
        <time>2022-07-12T15:06:09+02:00</time>
      </trkpt>
      <trkpt lat="48.51412" lon="2.00968">
        <ele>102</ele>
        <time>2022-07-12T15:06:20+02:00</time>
      </trkpt>
      <trkpt lat="48.51422" lon="2.00964">
        <ele>101</ele>
        <time>2022-07-12T15:06:29+02:00</time>
      </trkpt>
      <trkpt lat="48.51432" lon="2.00962">
        <ele>100</ele>
        <time>2022-07-12T15:06:36+02:00</time>
      </trkpt>
      <trkpt lat="48.51441" lon="2.00957">
        <ele>101</ele>
        <time>2022-07-12T15:06:43+02:00</time>
      </trkpt>
      <trkpt lat="48.5145" lon="2.00951">
        <ele>101</ele>
        <time>2022-07-12T15:06:49+02:00</time>
      </trkpt>
      <trkpt lat="48.51456" lon="2.00941">
        <ele>100</ele>
        <time>2022-07-12T15:06:58+02:00</time>
      </trkpt>
      <trkpt lat="48.51459" lon="2.00928">
        <ele>102</ele>
        <time>2022-07-12T15:07:15+02:00</time>
      </trkpt>
      <trkpt lat="48.51464" lon="2.00916">
        <ele>101</ele>
        <time>2022-07-12T15:07:23+02:00</time>
      </trkpt>
      <trkpt lat="48.51462" lon="2.00901">
        <ele>98</ele>
        <time>2022-07-12T15:07:35+02:00</time>
      </trkpt>
      <trkpt lat="48.51461" lon="2.00887">
        <ele>96</ele>
        <time>2022-07-12T15:07:42+02:00</time>
      </trkpt>
      <trkpt lat="48.51467" lon="2.00874">
        <ele>94</ele>
        <time>2022-07-12T15:07:50+02:00</time>
      </trkpt>
      <trkpt lat="48.51474" lon="2.00863">
        <ele>93</ele>
        <time>2022-07-12T15:07:56+02:00</time>
      </trkpt>
      <trkpt lat="48.51477" lon="2.0085">
        <ele>91</ele>
        <time>2022-07-12T15:08:04+02:00</time>
      </trkpt>
      <trkpt lat="48.51481" lon="2.00837">
        <ele>89</ele>
        <time>2022-07-12T15:08:15+02:00</time>
      </trkpt>
      <trkpt lat="48.51487" lon="2.00825">
        <ele>88</ele>
        <time>2022-07-12T15:08:23+02:00</time>
      </trkpt>
      <trkpt lat="48.51494" lon="2.00816">
        <ele>88</ele>
        <time>2022-07-12T15:08:30+02:00</time>
      </trkpt>
      <trkpt lat="48.51505" lon="2.00794">
        <ele>86</ele>
        <time>2022-07-12T15:08:44+02:00</time>
      </trkpt>
      <trkpt lat="48.51513" lon="2.00787">
        <ele>84</ele>
        <time>2022-07-12T15:08:50+02:00</time>
      </trkpt>
      <trkpt lat="48.51518" lon="2.00774">
        <ele>84</ele>
        <time>2022-07-12T15:08:56+02:00</time>
      </trkpt>
      <trkpt lat="48.51522" lon="2.0076">
        <ele>84</ele>
        <time>2022-07-12T15:09:02+02:00</time>
      </trkpt>
      <trkpt lat="48.51529" lon="2.00751">
        <ele>86</ele>
        <time>2022-07-12T15:09:09+02:00</time>
      </trkpt>
      <trkpt lat="48.51535" lon="2.00739">
        <ele>88</ele>
        <time>2022-07-12T15:09:16+02:00</time>
      </trkpt>
      <trkpt lat="48.51537" lon="2.00725">
        <ele>88</ele>
        <time>2022-07-12T15:09:23+02:00</time>
      </trkpt>
      <trkpt lat="48.51542" lon="2.00714">
        <ele>90</ele>
        <time>2022-07-12T15:09:29+02:00</time>
      </trkpt>
      <trkpt lat="48.51547" lon="2.00702">
        <ele>92</ele>
        <time>2022-07-12T15:09:38+02:00</time>
      </trkpt>
      <trkpt lat="48.51553" lon="2.00691">
        <ele>92</ele>
        <time>2022-07-12T15:09:43+02:00</time>
      </trkpt>
      <trkpt lat="48.51559" lon="2.00679">
        <ele>96</ele>
        <time>2022-07-12T15:09:51+02:00</time>
      </trkpt>
      <trkpt lat="48.51566" lon="2.0067">
        <ele>97</ele>
        <time>2022-07-12T15:09:58+02:00</time>
      </trkpt>
      <trkpt lat="48.51573" lon="2.00661">
        <ele>96</ele>
        <time>2022-07-12T15:10:05+02:00</time>
      </trkpt>
      <trkpt lat="48.51579" lon="2.0065">
        <ele>95</ele>
        <time>2022-07-12T15:10:13+02:00</time>
      </trkpt>
      <trkpt lat="48.51586" lon="2.00641">
        <ele>95</ele>
        <time>2022-07-12T15:10:21+02:00</time>
      </trkpt>
      <trkpt lat="48.51595" lon="2.00632">
        <ele>94</ele>
        <time>2022-07-12T15:10:27+02:00</time>
      </trkpt>
      <trkpt lat="48.51601" lon="2.00621">
        <ele>96</ele>
        <time>2022-07-12T15:10:35+02:00</time>
      </trkpt>
      <trkpt lat="48.51606" lon="2.0061">
        <ele>97</ele>
        <time>2022-07-12T15:10:43+02:00</time>
      </trkpt>
      <trkpt lat="48.51613" lon="2.00599">
        <ele>97</ele>
        <time>2022-07-12T15:10:50+02:00</time>
      </trkpt>
      <trkpt lat="48.51619" lon="2.00589">
        <ele>98</ele>
        <time>2022-07-12T15:10:57+02:00</time>
      </trkpt>
      <trkpt lat="48.51624" lon="2.00577">
        <ele>95</ele>
        <time>2022-07-12T15:11:05+02:00</time>
      </trkpt>
      <trkpt lat="48.51632" lon="2.00567">
        <ele>94</ele>
        <time>2022-07-12T15:11:11+02:00</time>
      </trkpt>
      <trkpt lat="48.51639" lon="2.00558">
        <ele>95</ele>
        <time>2022-07-12T15:11:17+02:00</time>
      </trkpt>
      <trkpt lat="48.51645" lon="2.00547">
        <ele>95</ele>
        <time>2022-07-12T15:11:27+02:00</time>
      </trkpt>
      <trkpt lat="48.51655" lon="2.00543">
        <ele>96</ele>
        <time>2022-07-12T15:11:35+02:00</time>
      </trkpt>
      <trkpt lat="48.51664" lon="2.00545">
        <ele>96</ele>
        <time>2022-07-12T15:11:45+02:00</time>
      </trkpt>
      <trkpt lat="48.51673" lon="2.00546">
        <ele>95</ele>
        <time>2022-07-12T15:11:53+02:00</time>
      </trkpt>
      <trkpt lat="48.51682" lon="2.0055">
        <ele>96</ele>
        <time>2022-07-12T15:12:00+02:00</time>
      </trkpt>
      <trkpt lat="48.51691" lon="2.00555">
        <ele>100</ele>
        <time>2022-07-12T15:12:09+02:00</time>
      </trkpt>
      <trkpt lat="48.51701" lon="2.00558">
        <ele>102</ele>
        <time>2022-07-12T15:12:17+02:00</time>
      </trkpt>
      <trkpt lat="48.51709" lon="2.00563">
        <ele>104</ele>
        <time>2022-07-12T15:12:24+02:00</time>
      </trkpt>
      <trkpt lat="48.51718" lon="2.00567">
        <ele>105</ele>
        <time>2022-07-12T15:12:31+02:00</time>
      </trkpt>
      <trkpt lat="48.51727" lon="2.00571">
        <ele>106</ele>
        <time>2022-07-12T15:12:39+02:00</time>
      </trkpt>
      <trkpt lat="48.51736" lon="2.00575">
        <ele>107</ele>
        <time>2022-07-12T15:12:49+02:00</time>
      </trkpt>
      <trkpt lat="48.51746" lon="2.00577">
        <ele>107</ele>
        <time>2022-07-12T15:12:56+02:00</time>
      </trkpt>
      <trkpt lat="48.51756" lon="2.0058">
        <ele>107</ele>
        <time>2022-07-12T15:13:03+02:00</time>
      </trkpt>
      <trkpt lat="48.51765" lon="2.00582">
        <ele>109</ele>
        <time>2022-07-12T15:13:13+02:00</time>
      </trkpt>
      <trkpt lat="48.51774" lon="2.00585">
        <ele>110</ele>
        <time>2022-07-12T15:13:21+02:00</time>
      </trkpt>
      <trkpt lat="48.51783" lon="2.00583">
        <ele>110</ele>
        <time>2022-07-12T15:13:31+02:00</time>
      </trkpt>
      <trkpt lat="48.51792" lon="2.00577">
        <ele>111</ele>
        <time>2022-07-12T15:13:39+02:00</time>
      </trkpt>
      <trkpt lat="48.51801" lon="2.00574">
        <ele>112</ele>
        <time>2022-07-12T15:13:47+02:00</time>
      </trkpt>
      <trkpt lat="48.51811" lon="2.00567">
        <ele>113</ele>
        <time>2022-07-12T15:13:53+02:00</time>
      </trkpt>
      <trkpt lat="48.5182" lon="2.00562">
        <ele>112</ele>
        <time>2022-07-12T15:14:00+02:00</time>
      </trkpt>
      <trkpt lat="48.51829" lon="2.00557">
        <ele>112</ele>
        <time>2022-07-12T15:14:07+02:00</time>
      </trkpt>
      <trkpt lat="48.51837" lon="2.00549">
        <ele>112</ele>
        <time>2022-07-12T15:14:14+02:00</time>
      </trkpt>
      <trkpt lat="48.51846" lon="2.00545">
        <ele>111</ele>
        <time>2022-07-12T15:14:21+02:00</time>
      </trkpt>
      <trkpt lat="48.51853" lon="2.00535">
        <ele>114</ele>
        <time>2022-07-12T15:14:34+02:00</time>
      </trkpt>
      <trkpt lat="48.51862" lon="2.00531">
        <ele>115</ele>
        <time>2022-07-12T15:14:44+02:00</time>
      </trkpt>
      <trkpt lat="48.51871" lon="2.00526">
        <ele>115</ele>
        <time>2022-07-12T15:14:50+02:00</time>
      </trkpt>
      <trkpt lat="48.5188" lon="2.00521">
        <ele>115</ele>
        <time>2022-07-12T15:14:57+02:00</time>
      </trkpt>
      <trkpt lat="48.5189" lon="2.00521">
        <ele>116</ele>
        <time>2022-07-12T15:15:04+02:00</time>
      </trkpt>
      <trkpt lat="48.51898" lon="2.00512">
        <ele>115</ele>
        <time>2022-07-12T15:15:12+02:00</time>
      </trkpt>
      <trkpt lat="48.51906" lon="2.00509">
        <ele>114</ele>
        <time>2022-07-12T15:15:19+02:00</time>
      </trkpt>
      <trkpt lat="48.51916" lon="2.0051">
        <ele>114</ele>
        <time>2022-07-12T15:15:26+02:00</time>
      </trkpt>
      <trkpt lat="48.51925" lon="2.0051">
        <ele>114</ele>
        <time>2022-07-12T15:15:32+02:00</time>
      </trkpt>
      <trkpt lat="48.51935" lon="2.00513">
        <ele>114</ele>
        <time>2022-07-12T15:15:43+02:00</time>
      </trkpt>
      <trkpt lat="48.51945" lon="2.00511">
        <ele>114</ele>
        <time>2022-07-12T15:15:50+02:00</time>
      </trkpt>
      <trkpt lat="48.51954" lon="2.00516">
        <ele>114</ele>
        <time>2022-07-12T15:15:56+02:00</time>
      </trkpt>
      <trkpt lat="48.51963" lon="2.00519">
        <ele>115</ele>
        <time>2022-07-12T15:16:03+02:00</time>
      </trkpt>
      <trkpt lat="48.51974" lon="2.00524">
        <ele>117</ele>
        <time>2022-07-12T15:16:10+02:00</time>
      </trkpt>
      <trkpt lat="48.51983" lon="2.00526">
        <ele>119</ele>
        <time>2022-07-12T15:16:18+02:00</time>
      </trkpt>
      <trkpt lat="48.51993" lon="2.00529">
        <ele>119</ele>
        <time>2022-07-12T15:16:25+02:00</time>
      </trkpt>
      <trkpt lat="48.52001" lon="2.00534">
        <ele>118</ele>
        <time>2022-07-12T15:16:33+02:00</time>
      </trkpt>
      <trkpt lat="48.5201" lon="2.00539">
        <ele>117</ele>
        <time>2022-07-12T15:16:40+02:00</time>
      </trkpt>
      <trkpt lat="48.5202" lon="2.00542">
        <ele>116</ele>
        <time>2022-07-12T15:16:48+02:00</time>
      </trkpt>
      <trkpt lat="48.52029" lon="2.00546">
        <ele>116</ele>
        <time>2022-07-12T15:16:57+02:00</time>
      </trkpt>
      <trkpt lat="48.52037" lon="2.00556">
        <ele>114</ele>
        <time>2022-07-12T15:17:05+02:00</time>
      </trkpt>
      <trkpt lat="48.52046" lon="2.00562">
        <ele>114</ele>
        <time>2022-07-12T15:17:13+02:00</time>
      </trkpt>
      <trkpt lat="48.52055" lon="2.00568">
        <ele>115</ele>
        <time>2022-07-12T15:17:18+02:00</time>
      </trkpt>
      <trkpt lat="48.52063" lon="2.00577">
        <ele>115</ele>
        <time>2022-07-12T15:17:25+02:00</time>
      </trkpt>
      <trkpt lat="48.52072" lon="2.00584">
        <ele>116</ele>
        <time>2022-07-12T15:17:31+02:00</time>
      </trkpt>
      <trkpt lat="48.5208" lon="2.00593">
        <ele>118</ele>
        <time>2022-07-12T15:17:40+02:00</time>
      </trkpt>
      <trkpt lat="48.52088" lon="2.00603">
        <ele>118</ele>
        <time>2022-07-12T15:17:46+02:00</time>
      </trkpt>
      <trkpt lat="48.52096" lon="2.0061">
        <ele>119</ele>
        <time>2022-07-12T15:17:54+02:00</time>
      </trkpt>
      <trkpt lat="48.52105" lon="2.00616">
        <ele>118</ele>
        <time>2022-07-12T15:18:02+02:00</time>
      </trkpt>
      <trkpt lat="48.52114" lon="2.00618">
        <ele>117</ele>
        <time>2022-07-12T15:18:10+02:00</time>
      </trkpt>
      <trkpt lat="48.52122" lon="2.00626">
        <ele>117</ele>
        <time>2022-07-12T15:18:18+02:00</time>
      </trkpt>
      <trkpt lat="48.52131" lon="2.00632">
        <ele>118</ele>
        <time>2022-07-12T15:18:27+02:00</time>
      </trkpt>
      <trkpt lat="48.5214" lon="2.00638">
        <ele>119</ele>
        <time>2022-07-12T15:18:36+02:00</time>
      </trkpt>
      <trkpt lat="48.52147" lon="2.00645">
        <ele>120</ele>
        <time>2022-07-12T15:18:45+02:00</time>
      </trkpt>
      <trkpt lat="48.52157" lon="2.00651">
        <ele>118</ele>
        <time>2022-07-12T15:18:52+02:00</time>
      </trkpt>
      <trkpt lat="48.52167" lon="2.00654">
        <ele>117</ele>
        <time>2022-07-12T15:18:59+02:00</time>
      </trkpt>
      <trkpt lat="48.52176" lon="2.00658">
        <ele>115</ele>
        <time>2022-07-12T15:19:06+02:00</time>
      </trkpt>
      <trkpt lat="48.52185" lon="2.00663">
        <ele>114</ele>
        <time>2022-07-12T15:19:12+02:00</time>
      </trkpt>
      <trkpt lat="48.52193" lon="2.0067">
        <ele>114</ele>
        <time>2022-07-12T15:19:21+02:00</time>
      </trkpt>
      <trkpt lat="48.52201" lon="2.00677">
        <ele>111</ele>
        <time>2022-07-12T15:19:29+02:00</time>
      </trkpt>
      <trkpt lat="48.52209" lon="2.00684">
        <ele>110</ele>
        <time>2022-07-12T15:19:37+02:00</time>
      </trkpt>
      <trkpt lat="48.52218" lon="2.00689">
        <ele>110</ele>
        <time>2022-07-12T15:19:43+02:00</time>
      </trkpt>
      <trkpt lat="48.52226" lon="2.00698">
        <ele>110</ele>
        <time>2022-07-12T15:19:49+02:00</time>
      </trkpt>
      <trkpt lat="48.52233" lon="2.00706">
        <ele>110</ele>
        <time>2022-07-12T15:19:57+02:00</time>
      </trkpt>
      <trkpt lat="48.5224" lon="2.00718">
        <ele>109</ele>
        <time>2022-07-12T15:20:06+02:00</time>
      </trkpt>
      <trkpt lat="48.52248" lon="2.00725">
        <ele>109</ele>
        <time>2022-07-12T15:20:12+02:00</time>
      </trkpt>
      <trkpt lat="48.52256" lon="2.00732">
        <ele>109</ele>
        <time>2022-07-12T15:20:20+02:00</time>
      </trkpt>
      <trkpt lat="48.52264" lon="2.00739">
        <ele>107</ele>
        <time>2022-07-12T15:20:29+02:00</time>
      </trkpt>
      <trkpt lat="48.52271" lon="2.00749">
        <ele>104</ele>
        <time>2022-07-12T15:20:36+02:00</time>
      </trkpt>
      <trkpt lat="48.52278" lon="2.00758">
        <ele>101</ele>
        <time>2022-07-12T15:20:46+02:00</time>
      </trkpt>
      <trkpt lat="48.52286" lon="2.00768">
        <ele>100</ele>
        <time>2022-07-12T15:20:52+02:00</time>
      </trkpt>
      <trkpt lat="48.52293" lon="2.00777">
        <ele>103</ele>
        <time>2022-07-12T15:21:00+02:00</time>
      </trkpt>
      <trkpt lat="48.52293" lon="2.00791">
        <ele>106</ele>
        <time>2022-07-12T15:21:08+02:00</time>
      </trkpt>
      <trkpt lat="48.52301" lon="2.00801">
        <ele>115</ele>
        <time>2022-07-12T15:22:55+02:00</time>
      </trkpt>
      <trkpt lat="48.52311" lon="2.00798">
        <ele>116</ele>
        <time>2022-07-12T15:23:02+02:00</time>
      </trkpt>
      <trkpt lat="48.5232" lon="2.00804">
        <ele>113</ele>
        <time>2022-07-12T15:23:13+02:00</time>
      </trkpt>
      <trkpt lat="48.52329" lon="2.00809">
        <ele>111</ele>
        <time>2022-07-12T15:23:23+02:00</time>
      </trkpt>
      <trkpt lat="48.52337" lon="2.00815">
        <ele>110</ele>
        <time>2022-07-12T15:23:33+02:00</time>
      </trkpt>
      <trkpt lat="48.52347" lon="2.00812">
        <ele>109</ele>
        <time>2022-07-12T15:23:39+02:00</time>
      </trkpt>
      <trkpt lat="48.52357" lon="2.0081">
        <ele>107</ele>
        <time>2022-07-12T15:23:45+02:00</time>
      </trkpt>
      <trkpt lat="48.52364" lon="2.00823">
        <ele>108</ele>
        <time>2022-07-12T15:23:55+02:00</time>
      </trkpt>
      <trkpt lat="48.5237" lon="2.00832">
        <ele>109</ele>
        <time>2022-07-12T15:24:01+02:00</time>
      </trkpt>
      <trkpt lat="48.52377" lon="2.00842">
        <ele>109</ele>
        <time>2022-07-12T15:24:07+02:00</time>
      </trkpt>
      <trkpt lat="48.52386" lon="2.00848">
        <ele>110</ele>
        <time>2022-07-12T15:24:17+02:00</time>
      </trkpt>
      <trkpt lat="48.52396" lon="2.00851">
        <ele>108</ele>
        <time>2022-07-12T15:24:25+02:00</time>
      </trkpt>
      <trkpt lat="48.52406" lon="2.00856">
        <ele>109</ele>
        <time>2022-07-12T15:24:30+02:00</time>
      </trkpt>
      <trkpt lat="48.52415" lon="2.00859">
        <ele>109</ele>
        <time>2022-07-12T15:24:38+02:00</time>
      </trkpt>
      <trkpt lat="48.52424" lon="2.00865">
        <ele>109</ele>
        <time>2022-07-12T15:24:46+02:00</time>
      </trkpt>
      <trkpt lat="48.52433" lon="2.00872">
        <ele>108</ele>
        <time>2022-07-12T15:24:53+02:00</time>
      </trkpt>
      <trkpt lat="48.52441" lon="2.0088">
        <ele>106</ele>
        <time>2022-07-12T15:25:00+02:00</time>
      </trkpt>
      <trkpt lat="48.5245" lon="2.00884">
        <ele>105</ele>
        <time>2022-07-12T15:25:08+02:00</time>
      </trkpt>
      <trkpt lat="48.52459" lon="2.00889">
        <ele>104</ele>
        <time>2022-07-12T15:25:16+02:00</time>
      </trkpt>
      <trkpt lat="48.52467" lon="2.00897">
        <ele>102</ele>
        <time>2022-07-12T15:25:23+02:00</time>
      </trkpt>
      <trkpt lat="48.52476" lon="2.00904">
        <ele>101</ele>
        <time>2022-07-12T15:25:30+02:00</time>
      </trkpt>
      <trkpt lat="48.52485" lon="2.0091">
        <ele>99</ele>
        <time>2022-07-12T15:25:35+02:00</time>
      </trkpt>
      <trkpt lat="48.52492" lon="2.00917">
        <ele>102</ele>
        <time>2022-07-12T15:25:45+02:00</time>
      </trkpt>
      <trkpt lat="48.52502" lon="2.00921">
        <ele>100</ele>
        <time>2022-07-12T15:25:52+02:00</time>
      </trkpt>
      <trkpt lat="48.52507" lon="2.00934">
        <ele>98</ele>
        <time>2022-07-12T15:25:59+02:00</time>
      </trkpt>
      <trkpt lat="48.52516" lon="2.00939">
        <ele>99</ele>
        <time>2022-07-12T15:26:09+02:00</time>
      </trkpt>
      <trkpt lat="48.52525" lon="2.00946">
        <ele>99</ele>
        <time>2022-07-12T15:26:16+02:00</time>
      </trkpt>
      <trkpt lat="48.52533" lon="2.00955">
        <ele>99</ele>
        <time>2022-07-12T15:26:23+02:00</time>
      </trkpt>
      <trkpt lat="48.52543" lon="2.0096">
        <ele>97</ele>
        <time>2022-07-12T15:26:34+02:00</time>
      </trkpt>
      <trkpt lat="48.52553" lon="2.00967">
        <ele>96</ele>
        <time>2022-07-12T15:26:41+02:00</time>
      </trkpt>
      <trkpt lat="48.52563" lon="2.0097">
        <ele>98</ele>
        <time>2022-07-12T15:26:47+02:00</time>
      </trkpt>
      <trkpt lat="48.52572" lon="2.00975">
        <ele>99</ele>
        <time>2022-07-12T15:26:55+02:00</time>
      </trkpt>
      <trkpt lat="48.5258" lon="2.00981">
        <ele>97</ele>
        <time>2022-07-12T15:27:02+02:00</time>
      </trkpt>
      <trkpt lat="48.5259" lon="2.00986">
        <ele>96</ele>
        <time>2022-07-12T15:27:09+02:00</time>
      </trkpt>
      <trkpt lat="48.52598" lon="2.00993">
        <ele>95</ele>
        <time>2022-07-12T15:27:15+02:00</time>
      </trkpt>
      <trkpt lat="48.52608" lon="2.00997">
        <ele>96</ele>
        <time>2022-07-12T15:27:23+02:00</time>
      </trkpt>
      <trkpt lat="48.52617" lon="2.01001">
        <ele>95</ele>
        <time>2022-07-12T15:27:32+02:00</time>
      </trkpt>
      <trkpt lat="48.52625" lon="2.01008">
        <ele>93</ele>
        <time>2022-07-12T15:27:39+02:00</time>
      </trkpt>
      <trkpt lat="48.52634" lon="2.01016">
        <ele>92</ele>
        <time>2022-07-12T15:27:46+02:00</time>
      </trkpt>
      <trkpt lat="48.52643" lon="2.01021">
        <ele>92</ele>
        <time>2022-07-12T15:27:52+02:00</time>
      </trkpt>
      <trkpt lat="48.52652" lon="2.01023">
        <ele>94</ele>
        <time>2022-07-12T15:27:59+02:00</time>
      </trkpt>
      <trkpt lat="48.52661" lon="2.01028">
        <ele>93</ele>
        <time>2022-07-12T15:28:07+02:00</time>
      </trkpt>
      <trkpt lat="48.5267" lon="2.01036">
        <ele>92</ele>
        <time>2022-07-12T15:28:15+02:00</time>
      </trkpt>
      <trkpt lat="48.52679" lon="2.0104">
        <ele>94</ele>
        <time>2022-07-12T15:28:31+02:00</time>
      </trkpt>
      <trkpt lat="48.52685" lon="2.01049">
        <ele>95</ele>
        <time>2022-07-12T15:28:38+02:00</time>
      </trkpt>
      <trkpt lat="48.52695" lon="2.01055">
        <ele>95</ele>
        <time>2022-07-12T15:28:45+02:00</time>
      </trkpt>
      <trkpt lat="48.52704" lon="2.01061">
        <ele>94</ele>
        <time>2022-07-12T15:28:51+02:00</time>
      </trkpt>
      <trkpt lat="48.52713" lon="2.01064">
        <ele>96</ele>
        <time>2022-07-12T15:29:00+02:00</time>
      </trkpt>
      <trkpt lat="48.52721" lon="2.01073">
        <ele>96</ele>
        <time>2022-07-12T15:29:09+02:00</time>
      </trkpt>
      <trkpt lat="48.52729" lon="2.01082">
        <ele>95</ele>
        <time>2022-07-12T15:29:16+02:00</time>
      </trkpt>
      <trkpt lat="48.52736" lon="2.01091">
        <ele>93</ele>
        <time>2022-07-12T15:29:24+02:00</time>
      </trkpt>
      <trkpt lat="48.52743" lon="2.01103">
        <ele>91</ele>
        <time>2022-07-12T15:29:32+02:00</time>
      </trkpt>
      <trkpt lat="48.52751" lon="2.01109">
        <ele>91</ele>
        <time>2022-07-12T15:29:41+02:00</time>
      </trkpt>
      <trkpt lat="48.5276" lon="2.01111">
        <ele>90</ele>
        <time>2022-07-12T15:29:47+02:00</time>
      </trkpt>
      <trkpt lat="48.52769" lon="2.01115">
        <ele>91</ele>
        <time>2022-07-12T15:29:53+02:00</time>
      </trkpt>
      <trkpt lat="48.52778" lon="2.01122">
        <ele>91</ele>
        <time>2022-07-12T15:30:02+02:00</time>
      </trkpt>
      <trkpt lat="48.52786" lon="2.01129">
        <ele>91</ele>
        <time>2022-07-12T15:30:09+02:00</time>
      </trkpt>
      <trkpt lat="48.52795" lon="2.01133">
        <ele>91</ele>
        <time>2022-07-12T15:30:16+02:00</time>
      </trkpt>
      <trkpt lat="48.52804" lon="2.01129">
        <ele>90</ele>
        <time>2022-07-12T15:30:26+02:00</time>
      </trkpt>
      <trkpt lat="48.52814" lon="2.01129">
        <ele>90</ele>
        <time>2022-07-12T15:30:34+02:00</time>
      </trkpt>
      <trkpt lat="48.52822" lon="2.0112">
        <ele>90</ele>
        <time>2022-07-12T15:30:40+02:00</time>
      </trkpt>
      <trkpt lat="48.52829" lon="2.0111">
        <ele>91</ele>
        <time>2022-07-12T15:30:47+02:00</time>
      </trkpt>
      <trkpt lat="48.52833" lon="2.01097">
        <ele>91</ele>
        <time>2022-07-12T15:30:56+02:00</time>
      </trkpt>
      <trkpt lat="48.52843" lon="2.01096">
        <ele>91</ele>
        <time>2022-07-12T15:31:08+02:00</time>
      </trkpt>
      <trkpt lat="48.52851" lon="2.01103">
        <ele>93</ele>
        <time>2022-07-12T15:31:16+02:00</time>
      </trkpt>
      <trkpt lat="48.5286" lon="2.01108">
        <ele>94</ele>
        <time>2022-07-12T15:31:24+02:00</time>
      </trkpt>
      <trkpt lat="48.52869" lon="2.01113">
        <ele>95</ele>
        <time>2022-07-12T15:31:29+02:00</time>
      </trkpt>
      <trkpt lat="48.52879" lon="2.01115">
        <ele>94</ele>
        <time>2022-07-12T15:31:37+02:00</time>
      </trkpt>
      <trkpt lat="48.52889" lon="2.01115">
        <ele>93</ele>
        <time>2022-07-12T15:31:47+02:00</time>
      </trkpt>
      <trkpt lat="48.52899" lon="2.01113">
        <ele>95</ele>
        <time>2022-07-12T15:31:57+02:00</time>
      </trkpt>
      <trkpt lat="48.52908" lon="2.01111">
        <ele>97</ele>
        <time>2022-07-12T15:32:05+02:00</time>
      </trkpt>
      <trkpt lat="48.52919" lon="2.01113">
        <ele>99</ele>
        <time>2022-07-12T15:32:13+02:00</time>
      </trkpt>
      <trkpt lat="48.52929" lon="2.01111">
        <ele>98</ele>
        <time>2022-07-12T15:32:22+02:00</time>
      </trkpt>
      <trkpt lat="48.52937" lon="2.01117">
        <ele>97</ele>
        <time>2022-07-12T15:32:33+02:00</time>
      </trkpt>
      <trkpt lat="48.52943" lon="2.0113">
        <ele>96</ele>
        <time>2022-07-12T15:32:42+02:00</time>
      </trkpt>
      <trkpt lat="48.52951" lon="2.01138">
        <ele>97</ele>
        <time>2022-07-12T15:32:50+02:00</time>
      </trkpt>
      <trkpt lat="48.5296" lon="2.01144">
        <ele>100</ele>
        <time>2022-07-12T15:32:58+02:00</time>
      </trkpt>
      <trkpt lat="48.52969" lon="2.01151">
        <ele>103</ele>
        <time>2022-07-12T15:33:06+02:00</time>
      </trkpt>
      <trkpt lat="48.52978" lon="2.01155">
        <ele>104</ele>
        <time>2022-07-12T15:33:13+02:00</time>
      </trkpt>
      <trkpt lat="48.52984" lon="2.01165">
        <ele>105</ele>
        <time>2022-07-12T15:33:22+02:00</time>
      </trkpt>
      <trkpt lat="48.52991" lon="2.01174">
        <ele>107</ele>
        <time>2022-07-12T15:33:29+02:00</time>
      </trkpt>
      <trkpt lat="48.53001" lon="2.01175">
        <ele>109</ele>
        <time>2022-07-12T15:33:38+02:00</time>
      </trkpt>
      <trkpt lat="48.5301" lon="2.01168">
        <ele>109</ele>
        <time>2022-07-12T15:33:44+02:00</time>
      </trkpt>
      <trkpt lat="48.53017" lon="2.01158">
        <ele>109</ele>
        <time>2022-07-12T15:33:51+02:00</time>
      </trkpt>
      <trkpt lat="48.53026" lon="2.01151">
        <ele>108</ele>
        <time>2022-07-12T15:33:57+02:00</time>
      </trkpt>
      <trkpt lat="48.53036" lon="2.01149">
        <ele>107</ele>
        <time>2022-07-12T15:34:02+02:00</time>
      </trkpt>
      <trkpt lat="48.53043" lon="2.0114">
        <ele>106</ele>
        <time>2022-07-12T15:34:10+02:00</time>
      </trkpt>
      <trkpt lat="48.5305" lon="2.01128">
        <ele>105</ele>
        <time>2022-07-12T15:34:17+02:00</time>
      </trkpt>
      <trkpt lat="48.53055" lon="2.01116">
        <ele>105</ele>
        <time>2022-07-12T15:34:24+02:00</time>
      </trkpt>
      <trkpt lat="48.53059" lon="2.01103">
        <ele>104</ele>
        <time>2022-07-12T15:34:31+02:00</time>
      </trkpt>
      <trkpt lat="48.53062" lon="2.01089">
        <ele>104</ele>
        <time>2022-07-12T15:34:39+02:00</time>
      </trkpt>
      <trkpt lat="48.53062" lon="2.01075">
        <ele>104</ele>
        <time>2022-07-12T15:34:46+02:00</time>
      </trkpt>
      <trkpt lat="48.53065" lon="2.01061">
        <ele>105</ele>
        <time>2022-07-12T15:34:53+02:00</time>
      </trkpt>
      <trkpt lat="48.53075" lon="2.01057">
        <ele>106</ele>
        <time>2022-07-12T15:35:01+02:00</time>
      </trkpt>
      <trkpt lat="48.53085" lon="2.01057">
        <ele>105</ele>
        <time>2022-07-12T15:35:06+02:00</time>
      </trkpt>
      <trkpt lat="48.53093" lon="2.01051">
        <ele>107</ele>
        <time>2022-07-12T15:35:16+02:00</time>
      </trkpt>
      <trkpt lat="48.53099" lon="2.0104">
        <ele>109</ele>
        <time>2022-07-12T15:35:23+02:00</time>
      </trkpt>
      <trkpt lat="48.53104" lon="2.01029">
        <ele>109</ele>
        <time>2022-07-12T15:35:31+02:00</time>
      </trkpt>
      <trkpt lat="48.53112" lon="2.0102">
        <ele>111</ele>
        <time>2022-07-12T15:35:40+02:00</time>
      </trkpt>
      <trkpt lat="48.53119" lon="2.01012">
        <ele>113</ele>
        <time>2022-07-12T15:35:48+02:00</time>
      </trkpt>
      <trkpt lat="48.53128" lon="2.01009">
        <ele>112</ele>
        <time>2022-07-12T15:35:56+02:00</time>
      </trkpt>
      <trkpt lat="48.53137" lon="2.01005">
        <ele>110</ele>
        <time>2022-07-12T15:36:02+02:00</time>
      </trkpt>
      <trkpt lat="48.53144" lon="2.00994">
        <ele>111</ele>
        <time>2022-07-12T15:36:08+02:00</time>
      </trkpt>
      <trkpt lat="48.53153" lon="2.00987">
        <ele>113</ele>
        <time>2022-07-12T15:36:17+02:00</time>
      </trkpt>
      <trkpt lat="48.53162" lon="2.0098">
        <ele>115</ele>
        <time>2022-07-12T15:36:30+02:00</time>
      </trkpt>
      <trkpt lat="48.5317" lon="2.00974">
        <ele>114</ele>
        <time>2022-07-12T15:36:39+02:00</time>
      </trkpt>
      <trkpt lat="48.53177" lon="2.00963">
        <ele>114</ele>
        <time>2022-07-12T15:36:50+02:00</time>
      </trkpt>
      <trkpt lat="48.53185" lon="2.00954">
        <ele>113</ele>
        <time>2022-07-12T15:36:57+02:00</time>
      </trkpt>
      <trkpt lat="48.53194" lon="2.00947">
        <ele>113</ele>
        <time>2022-07-12T15:37:04+02:00</time>
      </trkpt>
      <trkpt lat="48.53203" lon="2.00944">
        <ele>113</ele>
        <time>2022-07-12T15:37:12+02:00</time>
      </trkpt>
      <trkpt lat="48.53212" lon="2.00939">
        <ele>114</ele>
        <time>2022-07-12T15:37:20+02:00</time>
      </trkpt>
      <trkpt lat="48.53222" lon="2.00938">
        <ele>114</ele>
        <time>2022-07-12T15:37:30+02:00</time>
      </trkpt>
      <trkpt lat="48.53232" lon="2.0094">
        <ele>114</ele>
        <time>2022-07-12T15:37:38+02:00</time>
      </trkpt>
      <trkpt lat="48.53242" lon="2.00943">
        <ele>114</ele>
        <time>2022-07-12T15:37:46+02:00</time>
      </trkpt>
      <trkpt lat="48.5325" lon="2.00949">
        <ele>117</ele>
        <time>2022-07-12T15:37:53+02:00</time>
      </trkpt>
      <trkpt lat="48.5326" lon="2.0095">
        <ele>120</ele>
        <time>2022-07-12T15:38:00+02:00</time>
      </trkpt>
      <trkpt lat="48.53269" lon="2.00946">
        <ele>120</ele>
        <time>2022-07-12T15:38:08+02:00</time>
      </trkpt>
      <trkpt lat="48.53278" lon="2.00947">
        <ele>121</ele>
        <time>2022-07-12T15:38:15+02:00</time>
      </trkpt>
      <trkpt lat="48.53287" lon="2.00949">
        <ele>122</ele>
        <time>2022-07-12T15:38:21+02:00</time>
      </trkpt>
      <trkpt lat="48.53296" lon="2.00953">
        <ele>120</ele>
        <time>2022-07-12T15:38:29+02:00</time>
      </trkpt>
      <trkpt lat="48.53306" lon="2.00958">
        <ele>121</ele>
        <time>2022-07-12T15:38:36+02:00</time>
      </trkpt>
      <trkpt lat="48.53314" lon="2.00965">
        <ele>120</ele>
        <time>2022-07-12T15:38:43+02:00</time>
      </trkpt>
      <trkpt lat="48.53321" lon="2.00972">
        <ele>119</ele>
        <time>2022-07-12T15:38:54+02:00</time>
      </trkpt>
    </trkseg>
  </trk>
</gpx>